<?xml version='1.0' encoding='UTF-8'?><gpx version="1.1" creator="JPX - https://github.com/jenetics/jpx" xmlns="http://www.topografix.com/GPX/1/1"><trk><trkseg><trkpt lat="49.7187767" lon="3.29044"><ele>94.0</ele><time>2026-04-24T12:21:48.497Z</time></trkpt><trkpt lat="49.718875" lon="3.2905033"><ele>94.0</ele><time>2026-04-24T12:21:51.496Z</time></trkpt><trkpt lat="49.7189333" lon="3.29058"><ele>94.0</ele><time>2026-04-24T12:21:53.499Z</time></trkpt><trkpt lat="49.718955" lon="3.2906867"><ele>94.0</ele><time>2026-04-24T12:21:55.497Z</time></trkpt><trkpt lat="49.71894" lon="3.29081"><ele>94.0</ele><time>2026-04-24T12:21:57.497Z</time></trkpt><trkpt lat="49.7189233" lon="3.290945"><ele>94.0</ele><time>2026-04-24T12:21:59.497Z</time></trkpt><trkpt lat="49.7189133" lon="3.2910867"><ele>94.16666666666666</ele><time>2026-04-24T12:22:01.496Z</time></trkpt><trkpt lat="49.7189083" lon="3.2912283"><ele>94.33333333333333</ele><time>2026-04-24T12:22:03.496Z</time></trkpt><trkpt lat="49.718905" lon="3.2913733"><ele>94.5</ele><time>2026-04-24T12:22:05.497Z</time></trkpt><trkpt lat="49.7189067" lon="3.2915083"><ele>94.66666666666667</ele><time>2026-04-24T12:22:07.496Z</time></trkpt><trkpt lat="49.7189083" lon="3.29164"><ele>94.83333333333334</ele><time>2026-04-24T12:22:09.496Z</time></trkpt><trkpt lat="49.7189083" lon="3.2917533"><ele>95.0</ele><time>2026-04-24T12:22:11.498Z</time></trkpt><trkpt lat="49.7189133" lon="3.2918933"><ele>95.16666666666667</ele><time>2026-04-24T12:22:14.497Z</time></trkpt><trkpt lat="49.7189267" lon="3.292035"><ele>95.33333333333334</ele><time>2026-04-24T12:22:17.497Z</time></trkpt><trkpt lat="49.718935" lon="3.2921367"><ele>95.5</ele><time>2026-04-24T12:22:19.497Z</time></trkpt><trkpt lat="49.71894" lon="3.29225"><ele>95.66666666666667</ele><time>2026-04-24T12:22:21.497Z</time></trkpt><trkpt lat="49.71895" lon="3.2923667"><ele>95.83333333333333</ele><time>2026-04-24T12:22:23.497Z</time></trkpt><trkpt lat="49.7189233" lon="3.2925083"><ele>96.0</ele><time>2026-04-24T12:22:25.498Z</time></trkpt><trkpt lat="49.7188633" lon="3.2926283"><ele>96.19999999999999</ele><time>2026-04-24T12:22:27.497Z</time></trkpt><trkpt lat="49.7187733" lon="3.29273"><ele>96.39999999999999</ele><time>2026-04-24T12:22:29.498Z</time></trkpt><trkpt lat="49.7186867" lon="3.2928183"><ele>96.6</ele><time>2026-04-24T12:22:31.497Z</time></trkpt><trkpt lat="49.718595" lon="3.2928967"><ele>96.8</ele><time>2026-04-24T12:22:33.499Z</time></trkpt><trkpt lat="49.7185067" lon="3.2929617"><ele>97.0</ele><time>2026-04-24T12:22:35.497Z</time></trkpt><trkpt lat="49.7184267" lon="3.293025"><ele>97.19999999999999</ele><time>2026-04-24T12:22:37.498Z</time></trkpt><trkpt lat="49.718355" lon="3.2930917"><ele>97.4</ele><time>2026-04-24T12:22:39.497Z</time></trkpt><trkpt lat="49.7182817" lon="3.293155"><ele>97.6</ele><time>2026-04-24T12:22:41.5Z</time></trkpt><trkpt lat="49.7182017" lon="3.2932217"><ele>97.80000000000001</ele><time>2026-04-24T12:22:43.498Z</time></trkpt><trkpt lat="49.7181133" lon="3.2932983"><ele>98.0</ele><time>2026-04-24T12:22:45.497Z</time></trkpt><trkpt lat="49.718015" lon="3.293365"><ele>98.0</ele><time>2026-04-24T12:22:47.498Z</time></trkpt><trkpt lat="49.7179133" lon="3.2934133"><ele>98.0</ele><time>2026-04-24T12:22:49.498Z</time></trkpt><trkpt lat="49.7178083" lon="3.2934317"><ele>98.0</ele><time>2026-04-24T12:22:51.497Z</time></trkpt><trkpt lat="49.7177033" lon="3.2934367"><ele>98.0</ele><time>2026-04-24T12:22:53.498Z</time></trkpt><trkpt lat="49.7176" lon="3.29344"><ele>98.0</ele><time>2026-04-24T12:22:55.497Z</time></trkpt><trkpt lat="49.717495" lon="3.2934367"><ele>97.80000000000001</ele><time>2026-04-24T12:22:57.497Z</time></trkpt><trkpt lat="49.7173933" lon="3.2934333"><ele>97.6</ele><time>2026-04-24T12:22:59.497Z</time></trkpt><trkpt lat="49.717295" lon="3.293435"><ele>97.4</ele><time>2026-04-24T12:23:01.498Z</time></trkpt><trkpt lat="49.7172" lon="3.29345"><ele>97.19999999999999</ele><time>2026-04-24T12:23:03.497Z</time></trkpt><trkpt lat="49.717105" lon="3.2934583"><ele>97.0</ele><time>2026-04-24T12:23:05.497Z</time></trkpt><trkpt lat="49.7170117" lon="3.2934583"><ele>97.0</ele><time>2026-04-24T12:23:07.498Z</time></trkpt><trkpt lat="49.7169183" lon="3.2934633"><ele>97.0</ele><time>2026-04-24T12:23:09.498Z</time></trkpt><trkpt lat="49.7168267" lon="3.2934767"><ele>97.0</ele><time>2026-04-24T12:23:11.498Z</time></trkpt><trkpt lat="49.7167367" lon="3.2934867"><ele>97.0</ele><time>2026-04-24T12:23:13.498Z</time></trkpt><trkpt lat="49.716645" lon="3.2935133"><ele>97.0</ele><time>2026-04-24T12:23:15.497Z</time></trkpt><trkpt lat="49.716555" lon="3.2935467"><ele>96.6</ele><time>2026-04-24T12:23:17.497Z</time></trkpt><trkpt lat="49.7164667" lon="3.293595"><ele>96.19999999999999</ele><time>2026-04-24T12:23:19.497Z</time></trkpt><trkpt lat="49.7163767" lon="3.2936483"><ele>95.8</ele><time>2026-04-24T12:23:21.499Z</time></trkpt><trkpt lat="49.716285" lon="3.293705"><ele>95.4</ele><time>2026-04-24T12:23:23.497Z</time></trkpt><trkpt lat="49.7162" lon="3.293775"><ele>95.0</ele><time>2026-04-24T12:23:25.498Z</time></trkpt><trkpt lat="49.716115" lon="3.2938533"><ele>94.66666666666667</ele><time>2026-04-24T12:23:27.498Z</time></trkpt><trkpt lat="49.7160317" lon="3.2939317"><ele>94.33333333333334</ele><time>2026-04-24T12:23:29.498Z</time></trkpt><trkpt lat="49.7159533" lon="3.2940033"><ele>94.0</ele><time>2026-04-24T12:23:31.496Z</time></trkpt><trkpt lat="49.7158767" lon="3.294075"><ele>93.66666666666667</ele><time>2026-04-24T12:23:33.497Z</time></trkpt><trkpt lat="49.7158033" lon="3.2941483"><ele>93.33333333333333</ele><time>2026-04-24T12:23:35.495Z</time></trkpt><trkpt lat="49.7157333" lon="3.29422"><ele>93.0</ele><time>2026-04-24T12:23:37.496Z</time></trkpt><trkpt lat="49.7156667" lon="3.2942917"><ele>93.0</ele><time>2026-04-24T12:23:39.496Z</time></trkpt><trkpt lat="49.7156033" lon="3.294365"><ele>93.0</ele><time>2026-04-24T12:23:41.496Z</time></trkpt><trkpt lat="49.7155417" lon="3.2944333"><ele>93.0</ele><time>2026-04-24T12:23:43.498Z</time></trkpt><trkpt lat="49.7154833" lon="3.2945083"><ele>93.0</ele><time>2026-04-24T12:23:45.498Z</time></trkpt><trkpt lat="49.7154233" lon="3.2945867"><ele>93.0</ele><time>2026-04-24T12:23:47.497Z</time></trkpt><trkpt lat="49.7153617" lon="3.2946617"><ele>93.0</ele><time>2026-04-24T12:23:49.5Z</time></trkpt><trkpt lat="49.715295" lon="3.294745"><ele>93.0</ele><time>2026-04-24T12:23:51.498Z</time></trkpt><trkpt lat="49.7152317" lon="3.2948233"><ele>93.0</ele><time>2026-04-24T12:23:53.497Z</time></trkpt><trkpt lat="49.7151767" lon="3.2948983"><ele>93.0</ele><time>2026-04-24T12:23:55.497Z</time></trkpt><trkpt lat="49.7151217" lon="3.2949633"><ele>93.0</ele><time>2026-04-24T12:23:57.497Z</time></trkpt><trkpt lat="49.7150583" lon="3.2950267"><ele>93.0</ele><time>2026-04-24T12:23:59.498Z</time></trkpt><trkpt lat="49.7149967" lon="3.2950983"><ele>93.0</ele><time>2026-04-24T12:24:01.497Z</time></trkpt><trkpt lat="49.71493" lon="3.2951667"><ele>93.0</ele><time>2026-04-24T12:24:03.497Z</time></trkpt><trkpt lat="49.7148617" lon="3.2952417"><ele>93.0</ele><time>2026-04-24T12:24:05.497Z</time></trkpt><trkpt lat="49.7147933" lon="3.29532"><ele>93.0</ele><time>2026-04-24T12:24:07.497Z</time></trkpt><trkpt lat="49.7147283" lon="3.2954017"><ele>93.0</ele><time>2026-04-24T12:24:09.497Z</time></trkpt><trkpt lat="49.7146633" lon="3.2954783"><ele>93.0</ele><time>2026-04-24T12:24:11.496Z</time></trkpt><trkpt lat="49.7146" lon="3.29554"><ele>93.0</ele><time>2026-04-24T12:24:13.496Z</time></trkpt><trkpt lat="49.7145417" lon="3.2956"><ele>93.00000000000001</ele><time>2026-04-24T12:24:15.495Z</time></trkpt><trkpt lat="49.7144817" lon="3.295655"><ele>93.0</ele><time>2026-04-24T12:24:17.496Z</time></trkpt><trkpt lat="49.7144267" lon="3.2957233"><ele>93.0</ele><time>2026-04-24T12:24:19.496Z</time></trkpt><trkpt lat="49.71438" lon="3.295795"><ele>93.0</ele><time>2026-04-24T12:24:21.496Z</time></trkpt><trkpt lat="49.7143233" lon="3.2958483"><ele>93.0</ele><time>2026-04-24T12:24:23.497Z</time></trkpt><trkpt lat="49.7142683" lon="3.2959033"><ele>93.00000000000001</ele><time>2026-04-24T12:24:25.497Z</time></trkpt><trkpt lat="49.7142117" lon="3.2959617"><ele>93.0</ele><time>2026-04-24T12:24:27.495Z</time></trkpt><trkpt lat="49.714155" lon="3.2960167"><ele>93.00000000000001</ele><time>2026-04-24T12:24:29.496Z</time></trkpt><trkpt lat="49.714095" lon="3.2960683"><ele>93.0</ele><time>2026-04-24T12:24:31.494Z</time></trkpt><trkpt lat="49.7140333" lon="3.2961217"><ele>93.0</ele><time>2026-04-24T12:24:33.495Z</time></trkpt><trkpt lat="49.7139767" lon="3.29618"><ele>93.0</ele><time>2026-04-24T12:24:35.496Z</time></trkpt><trkpt lat="49.7139167" lon="3.29624"><ele>93.0</ele><time>2026-04-24T12:24:37.496Z</time></trkpt><trkpt lat="49.7138617" lon="3.2962933"><ele>93.00000000000001</ele><time>2026-04-24T12:24:39.498Z</time></trkpt><trkpt lat="49.7137867" lon="3.296365"><ele>93.0</ele><time>2026-04-24T12:24:42.497Z</time></trkpt><trkpt lat="49.71371" lon="3.2964317"><ele>93.00000000000001</ele><time>2026-04-24T12:24:45.497Z</time></trkpt><trkpt lat="49.7136533" lon="3.2964817"><ele>93.0</ele><time>2026-04-24T12:24:47.497Z</time></trkpt><trkpt lat="49.7135917" lon="3.2965367"><ele>93.0</ele><time>2026-04-24T12:24:49.496Z</time></trkpt><trkpt lat="49.7135283" lon="3.2965967"><ele>93.0</ele><time>2026-04-24T12:24:51.495Z</time></trkpt><trkpt lat="49.7134633" lon="3.2966533"><ele>93.0</ele><time>2026-04-24T12:24:53.497Z</time></trkpt><trkpt lat="49.7133967" lon="3.2967133"><ele>93.00000000000001</ele><time>2026-04-24T12:24:55.496Z</time></trkpt><trkpt lat="49.71333" lon="3.2967733"><ele>93.0</ele><time>2026-04-24T12:24:57.496Z</time></trkpt><trkpt lat="49.7132617" lon="3.2968367"><ele>92.83333333333333</ele><time>2026-04-24T12:24:59.497Z</time></trkpt><trkpt lat="49.71319" lon="3.2968983"><ele>92.66666666666667</ele><time>2026-04-24T12:25:01.495Z</time></trkpt><trkpt lat="49.7131133" lon="3.29695"><ele>92.5</ele><time>2026-04-24T12:25:03.495Z</time></trkpt><trkpt lat="49.7130367" lon="3.2970133"><ele>92.33333333333334</ele><time>2026-04-24T12:25:05.498Z</time></trkpt><trkpt lat="49.7129633" lon="3.2970767"><ele>92.16666666666667</ele><time>2026-04-24T12:25:07.498Z</time></trkpt><trkpt lat="49.7128833" lon="3.2971467"><ele>92.0</ele><time>2026-04-24T12:25:09.497Z</time></trkpt><trkpt lat="49.712805" lon="3.2972233"><ele>91.66666666666667</ele><time>2026-04-24T12:25:11.498Z</time></trkpt><trkpt lat="49.712725" lon="3.2973"><ele>91.33333333333334</ele><time>2026-04-24T12:25:13.497Z</time></trkpt><trkpt lat="49.7126467" lon="3.2973783"><ele>91.0</ele><time>2026-04-24T12:25:15.497Z</time></trkpt><trkpt lat="49.7125733" lon="3.2974567"><ele>90.66666666666667</ele><time>2026-04-24T12:25:17.497Z</time></trkpt><trkpt lat="49.7124983" lon="3.29753"><ele>90.33333333333333</ele><time>2026-04-24T12:25:19.497Z</time></trkpt><trkpt lat="49.71243" lon="3.2975983"><ele>90.0</ele><time>2026-04-24T12:25:21.497Z</time></trkpt><trkpt lat="49.71237" lon="3.29766"><ele>90.0</ele><time>2026-04-24T12:25:23.497Z</time></trkpt><trkpt lat="49.7123083" lon="3.2976283"><ele>90.0</ele><time>2026-04-24T12:25:35.496Z</time></trkpt><trkpt lat="49.7122567" lon="3.29754"><ele>90.0</ele><time>2026-04-24T12:25:39.498Z</time></trkpt><trkpt lat="49.71221" lon="3.2974683"><ele>90.0</ele><time>2026-04-24T12:25:42.497Z</time></trkpt><trkpt lat="49.712155" lon="3.2973767"><ele>90.0</ele><time>2026-04-24T12:25:46.498Z</time></trkpt><trkpt lat="49.712105" lon="3.297315"><ele>90.0</ele><time>2026-04-24T12:25:49.497Z</time></trkpt><trkpt lat="49.7120417" lon="3.2972483"><ele>90.0</ele><time>2026-04-24T12:25:52.496Z</time></trkpt><trkpt lat="49.7119683" lon="3.297185"><ele>90.0</ele><time>2026-04-24T12:25:55.496Z</time></trkpt><trkpt lat="49.7118867" lon="3.2971317"><ele>90.0</ele><time>2026-04-24T12:25:58.497Z</time></trkpt><trkpt lat="49.7118083" lon="3.29708"><ele>90.0</ele><time>2026-04-24T12:26:01.496Z</time></trkpt><trkpt lat="49.7117267" lon="3.2970333"><ele>90.0</ele><time>2026-04-24T12:26:04.497Z</time></trkpt><trkpt lat="49.7116467" lon="3.2969833"><ele>90.0</ele><time>2026-04-24T12:26:07.497Z</time></trkpt><trkpt lat="49.7115667" lon="3.2969333"><ele>90.0</ele><time>2026-04-24T12:26:10.496Z</time></trkpt><trkpt lat="49.71149" lon="3.296875"><ele>90.0</ele><time>2026-04-24T12:26:13.497Z</time></trkpt><trkpt lat="49.71141" lon="3.29682"><ele>90.0</ele><time>2026-04-24T12:26:16.497Z</time></trkpt><trkpt lat="49.711325" lon="3.2967783"><ele>90.0</ele><time>2026-04-24T12:26:19.497Z</time></trkpt><trkpt lat="49.71124" lon="3.2967317"><ele>90.0</ele><time>2026-04-24T12:26:22.498Z</time></trkpt><trkpt lat="49.711155" lon="3.2966817"><ele>90.0</ele><time>2026-04-24T12:26:25.497Z</time></trkpt><trkpt lat="49.7110817" lon="3.2966333"><ele>90.0</ele><time>2026-04-24T12:26:28.496Z</time></trkpt><trkpt lat="49.7110067" lon="3.2965883"><ele>90.0</ele><time>2026-04-24T12:26:31.496Z</time></trkpt><trkpt lat="49.7109333" lon="3.2965383"><ele>90.0</ele><time>2026-04-24T12:26:34.497Z</time></trkpt><trkpt lat="49.7108617" lon="3.29649"><ele>90.0</ele><time>2026-04-24T12:26:37.497Z</time></trkpt><trkpt lat="49.7107917" lon="3.29644"><ele>90.0</ele><time>2026-04-24T12:26:40.498Z</time></trkpt><trkpt lat="49.7107167" lon="3.296395"><ele>90.0</ele><time>2026-04-24T12:26:43.496Z</time></trkpt><trkpt lat="49.71064" lon="3.2963467"><ele>90.0</ele><time>2026-04-24T12:26:46.497Z</time></trkpt><trkpt lat="49.71057" lon="3.2962933"><ele>90.16666666666667</ele><time>2026-04-24T12:26:49.498Z</time></trkpt><trkpt lat="49.7104983" lon="3.296245"><ele>90.33333333333333</ele><time>2026-04-24T12:26:52.495Z</time></trkpt><trkpt lat="49.7104217" lon="3.2961933"><ele>90.5</ele><time>2026-04-24T12:26:55.495Z</time></trkpt><trkpt lat="49.7103467" lon="3.2961367"><ele>90.66666666666666</ele><time>2026-04-24T12:26:58.497Z</time></trkpt><trkpt lat="49.7102683" lon="3.2960867"><ele>90.83333333333333</ele><time>2026-04-24T12:27:01.495Z</time></trkpt><trkpt lat="49.7102" lon="3.2960433"><ele>91.0</ele><time>2026-04-24T12:27:04.498Z</time></trkpt><trkpt lat="49.7101233" lon="3.2959983"><ele>90.66666666666666</ele><time>2026-04-24T12:27:07.497Z</time></trkpt><trkpt lat="49.7100433" lon="3.2959467"><ele>90.33333333333333</ele><time>2026-04-24T12:27:10.497Z</time></trkpt><trkpt lat="49.7099617" lon="3.2958933"><ele>90.0</ele><time>2026-04-24T12:27:13.497Z</time></trkpt><trkpt lat="49.70988" lon="3.2958483"><ele>89.66666666666667</ele><time>2026-04-24T12:27:16.496Z</time></trkpt><trkpt lat="49.709805" lon="3.295795"><ele>89.33333333333334</ele><time>2026-04-24T12:27:19.497Z</time></trkpt><trkpt lat="49.70973" lon="3.2957433"><ele>89.0</ele><time>2026-04-24T12:27:22.497Z</time></trkpt><trkpt lat="49.70966" lon="3.2956883"><ele>89.0</ele><time>2026-04-24T12:27:25.498Z</time></trkpt><trkpt lat="49.7095917" lon="3.295645"><ele>89.0</ele><time>2026-04-24T12:27:28.496Z</time></trkpt><trkpt lat="49.7095233" lon="3.2955967"><ele>89.0</ele><time>2026-04-24T12:27:31.497Z</time></trkpt><trkpt lat="49.70946" lon="3.2955467"><ele>89.0</ele><time>2026-04-24T12:27:34.498Z</time></trkpt><trkpt lat="49.709395" lon="3.2955033"><ele>89.0</ele><time>2026-04-24T12:27:37.496Z</time></trkpt><trkpt lat="49.7093217" lon="3.2954633"><ele>89.0</ele><time>2026-04-24T12:27:40.497Z</time></trkpt><trkpt lat="49.70924" lon="3.29541"><ele>88.66666666666667</ele><time>2026-04-24T12:27:43.497Z</time></trkpt><trkpt lat="49.70916" lon="3.2953517"><ele>88.33333333333334</ele><time>2026-04-24T12:27:46.496Z</time></trkpt><trkpt lat="49.7090867" lon="3.2953067"><ele>88.0</ele><time>2026-04-24T12:27:49.495Z</time></trkpt><trkpt lat="49.7090233" lon="3.2952483"><ele>87.66666666666667</ele><time>2026-04-24T12:27:52.497Z</time></trkpt><trkpt lat="49.7089417" lon="3.2951883"><ele>87.33333333333333</ele><time>2026-04-24T12:27:55.496Z</time></trkpt><trkpt lat="49.7088833" lon="3.2951517"><ele>87.0</ele><time>2026-04-24T12:27:57.497Z</time></trkpt><trkpt lat="49.7088217" lon="3.295115"><ele>87.0</ele><time>2026-04-24T12:27:59.496Z</time></trkpt><trkpt lat="49.70876" lon="3.2950683"><ele>87.0</ele><time>2026-04-24T12:28:01.496Z</time></trkpt><trkpt lat="49.708695" lon="3.29503"><ele>87.0</ele><time>2026-04-24T12:28:03.497Z</time></trkpt><trkpt lat="49.7086233" lon="3.295"><ele>87.0</ele><time>2026-04-24T12:28:05.497Z</time></trkpt><trkpt lat="49.7085583" lon="3.2949633"><ele>87.0</ele><time>2026-04-24T12:28:07.497Z</time></trkpt><trkpt lat="49.7084733" lon="3.2949117"><ele>87.0</ele><time>2026-04-24T12:28:10.497Z</time></trkpt><trkpt lat="49.7084" lon="3.29486"><ele>87.0</ele><time>2026-04-24T12:28:13.499Z</time></trkpt><trkpt lat="49.7083317" lon="3.2948217"><ele>87.0</ele><time>2026-04-24T12:28:16.495Z</time></trkpt><trkpt lat="49.7082717" lon="3.2947817"><ele>87.0</ele><time>2026-04-24T12:28:19.497Z</time></trkpt><trkpt lat="49.7082083" lon="3.2947517"><ele>87.0</ele><time>2026-04-24T12:28:22.498Z</time></trkpt><trkpt lat="49.7081317" lon="3.2947117"><ele>87.0</ele><time>2026-04-24T12:28:26.497Z</time></trkpt><trkpt lat="49.7080533" lon="3.294675"><ele>87.0</ele><time>2026-04-24T12:28:30.496Z</time></trkpt><trkpt lat="49.70799" lon="3.2946333"><ele>87.0</ele><time>2026-04-24T12:28:33.495Z</time></trkpt><trkpt lat="49.707925" lon="3.2945783"><ele>87.0</ele><time>2026-04-24T12:28:36.495Z</time></trkpt><trkpt lat="49.7078533" lon="3.29453"><ele>87.0</ele><time>2026-04-24T12:28:39.496Z</time></trkpt><trkpt lat="49.7077867" lon="3.294485"><ele>87.0</ele><time>2026-04-24T12:28:42.496Z</time></trkpt><trkpt lat="49.7077233" lon="3.294425"><ele>87.0</ele><time>2026-04-24T12:28:45.496Z</time></trkpt><trkpt lat="49.7076633" lon="3.294365"><ele>87.0</ele><time>2026-04-24T12:28:48.496Z</time></trkpt><trkpt lat="49.7076233" lon="3.2942783"><ele>87.0</ele><time>2026-04-24T12:28:51.498Z</time></trkpt><trkpt lat="49.7075767" lon="3.2941767"><ele>87.0</ele><time>2026-04-24T12:28:54.498Z</time></trkpt><trkpt lat="49.7075267" lon="3.2940583"><ele>87.0</ele><time>2026-04-24T12:28:57.497Z</time></trkpt><trkpt lat="49.7074917" lon="3.2939283"><ele>87.0</ele><time>2026-04-24T12:29:00.496Z</time></trkpt><trkpt lat="49.707465" lon="3.29384"><ele>87.0</ele><time>2026-04-24T12:29:02.498Z</time></trkpt><trkpt lat="49.7074433" lon="3.2937433"><ele>87.0</ele><time>2026-04-24T12:29:04.498Z</time></trkpt><trkpt lat="49.7074133" lon="3.2936117"><ele>87.0</ele><time>2026-04-24T12:29:07.496Z</time></trkpt><trkpt lat="49.7073767" lon="3.29348"><ele>87.0</ele><time>2026-04-24T12:29:10.496Z</time></trkpt><trkpt lat="49.7073483" lon="3.29339"><ele>87.0</ele><time>2026-04-24T12:29:12.496Z</time></trkpt><trkpt lat="49.7073117" lon="3.2933"><ele>87.0</ele><time>2026-04-24T12:29:14.497Z</time></trkpt><trkpt lat="49.7072583" lon="3.2932183"><ele>87.0</ele><time>2026-04-24T12:29:17.497Z</time></trkpt><trkpt lat="49.7072133" lon="3.29313"><ele>87.0</ele><time>2026-04-24T12:29:21.496Z</time></trkpt><trkpt lat="49.7071733" lon="3.2930517"><ele>87.0</ele><time>2026-04-24T12:29:24.497Z</time></trkpt><trkpt lat="49.7071467" lon="3.292955"><ele>87.0</ele><time>2026-04-24T12:29:27.495Z</time></trkpt><trkpt lat="49.7071167" lon="3.29284"><ele>87.0</ele><time>2026-04-24T12:29:31.496Z</time></trkpt><trkpt lat="49.7070933" lon="3.29274"><ele>87.0</ele><time>2026-04-24T12:29:35.496Z</time></trkpt><trkpt lat="49.7070617" lon="3.2926333"><ele>87.0</ele><time>2026-04-24T12:29:39.498Z</time></trkpt><trkpt lat="49.7070333" lon="3.292515"><ele>87.0</ele><time>2026-04-24T12:29:43.497Z</time></trkpt><trkpt lat="49.7069867" lon="3.2924033"><ele>87.0</ele><time>2026-04-24T12:29:47.501Z</time></trkpt><trkpt lat="49.7069617" lon="3.292305"><ele>87.0</ele><time>2026-04-24T12:29:50.499Z</time></trkpt><trkpt lat="49.706945" lon="3.2922033"><ele>87.0</ele><time>2026-04-24T12:29:53.498Z</time></trkpt><trkpt lat="49.706925" lon="3.29211"><ele>87.0</ele><time>2026-04-24T12:29:56.496Z</time></trkpt><trkpt lat="49.7068983" lon="3.29202"><ele>87.5</ele><time>2026-04-24T12:29:59.497Z</time></trkpt><trkpt lat="49.7068733" lon="3.2919233"><ele>88.0</ele><time>2026-04-24T12:30:02.496Z</time></trkpt><trkpt lat="49.70683" lon="3.2918433"><ele>88.5</ele><time>2026-04-24T12:30:06.496Z</time></trkpt><trkpt lat="49.7067917" lon="3.2917333"><ele>89.0</ele><time>2026-04-24T12:30:10.496Z</time></trkpt><trkpt lat="49.70676" lon="3.2916217"><ele>89.5</ele><time>2026-04-24T12:30:14.496Z</time></trkpt><trkpt lat="49.7067083" lon="3.2915283"><ele>90.0</ele><time>2026-04-24T12:30:18.496Z</time></trkpt><trkpt lat="49.70667" lon="3.2914267"><ele>90.0</ele><time>2026-04-24T12:30:22.496Z</time></trkpt><trkpt lat="49.706655" lon="3.29133"><ele>90.0</ele><time>2026-04-24T12:30:25.496Z</time></trkpt><trkpt lat="49.7066383" lon="3.2912183"><ele>90.0</ele><time>2026-04-24T12:30:29.497Z</time></trkpt><trkpt lat="49.7065983" lon="3.2911033"><ele>90.0</ele><time>2026-04-24T12:30:33.497Z</time></trkpt><trkpt lat="49.70656" lon="3.2910233"><ele>90.0</ele><time>2026-04-24T12:30:36.496Z</time></trkpt><trkpt lat="49.706615" lon="3.2910967"><ele>90.0</ele><time>2026-04-24T12:31:44.497Z</time></trkpt><trkpt lat="49.70664" lon="3.2911967"><ele>90.0</ele><time>2026-04-24T12:31:47.497Z</time></trkpt><trkpt lat="49.7066633" lon="3.2913167"><ele>90.0</ele><time>2026-04-24T12:31:51.497Z</time></trkpt><trkpt lat="49.7066933" lon="3.2914183"><ele>90.0</ele><time>2026-04-24T12:31:55.497Z</time></trkpt><trkpt lat="49.706725" lon="3.291515"><ele>90.0</ele><time>2026-04-24T12:31:59.496Z</time></trkpt><trkpt lat="49.7067333" lon="3.2916133"><ele>90.0</ele><time>2026-04-24T12:32:03.496Z</time></trkpt><trkpt lat="49.7067517" lon="3.2917333"><ele>90.0</ele><time>2026-04-24T12:32:07.495Z</time></trkpt><trkpt lat="49.7067767" lon="3.291835"><ele>90.0</ele><time>2026-04-24T12:32:10.495Z</time></trkpt><trkpt lat="49.7068183" lon="3.2919417"><ele>90.0</ele><time>2026-04-24T12:32:14.498Z</time></trkpt><trkpt lat="49.7068417" lon="3.292045"><ele>90.0</ele><time>2026-04-24T12:32:17.496Z</time></trkpt><trkpt lat="49.7068767" lon="3.2921567"><ele>90.0</ele><time>2026-04-24T12:32:21.495Z</time></trkpt><trkpt lat="49.7069017" lon="3.2922633"><ele>90.0</ele><time>2026-04-24T12:32:24.496Z</time></trkpt><trkpt lat="49.70693" lon="3.2923533"><ele>90.0</ele><time>2026-04-24T12:32:27.497Z</time></trkpt><trkpt lat="49.70696" lon="3.29244"><ele>90.0</ele><time>2026-04-24T12:32:30.496Z</time></trkpt><trkpt lat="49.7069817" lon="3.2925333"><ele>90.0</ele><time>2026-04-24T12:32:34.497Z</time></trkpt><trkpt lat="49.7070267" lon="3.2926383"><ele>90.0</ele><time>2026-04-24T12:32:39.496Z</time></trkpt><trkpt lat="49.7070667" lon="3.2927467"><ele>89.5</ele><time>2026-04-24T12:32:43.496Z</time></trkpt><trkpt lat="49.7071067" lon="3.292845"><ele>89.0</ele><time>2026-04-24T12:32:46.496Z</time></trkpt><trkpt lat="49.707155" lon="3.2929333"><ele>88.5</ele><time>2026-04-24T12:32:49.497Z</time></trkpt><trkpt lat="49.7071883" lon="3.29305"><ele>88.0</ele><time>2026-04-24T12:32:52.496Z</time></trkpt><trkpt lat="49.7072267" lon="3.29315"><ele>87.5</ele><time>2026-04-24T12:32:55.495Z</time></trkpt><trkpt lat="49.7072633" lon="3.293265"><ele>87.0</ele><time>2026-04-24T12:32:59.497Z</time></trkpt><trkpt lat="49.7072917" lon="3.2933567"><ele>87.0</ele><time>2026-04-24T12:33:02.497Z</time></trkpt><trkpt lat="49.7073317" lon="3.2934567"><ele>87.0</ele><time>2026-04-24T12:33:05.497Z</time></trkpt><trkpt lat="49.70737" lon="3.29355"><ele>87.0</ele><time>2026-04-24T12:33:08.498Z</time></trkpt><trkpt lat="49.7074167" lon="3.2936517"><ele>87.0</ele><time>2026-04-24T12:33:11.497Z</time></trkpt><trkpt lat="49.70746" lon="3.2937583"><ele>87.0</ele><time>2026-04-24T12:33:14.497Z</time></trkpt><trkpt lat="49.7074972" lon="3.2938527"><ele>87.0</ele><time>2026-04-24T12:33:17.51Z</time></trkpt><trkpt lat="49.7075383" lon="3.2939707"><ele>87.0</ele><time>2026-04-24T12:33:20.514Z</time></trkpt><trkpt lat="49.70758" lon="3.2940967"><ele>87.0</ele><time>2026-04-24T12:33:23.496Z</time></trkpt><trkpt lat="49.7076183" lon="3.2942117"><ele>87.0</ele><time>2026-04-24T12:33:26.497Z</time></trkpt><trkpt lat="49.70767" lon="3.2943217"><ele>87.0</ele><time>2026-04-24T12:33:29.497Z</time></trkpt><trkpt lat="49.70774" lon="3.294395"><ele>87.0</ele><time>2026-04-24T12:33:32.497Z</time></trkpt><trkpt lat="49.7078067" lon="3.29445"><ele>87.0</ele><time>2026-04-24T12:33:35.497Z</time></trkpt><trkpt lat="49.70788" lon="3.2945067"><ele>87.0</ele><time>2026-04-24T12:33:38.499Z</time></trkpt><trkpt lat="49.70796" lon="3.2945533"><ele>87.0</ele><time>2026-04-24T12:33:41.496Z</time></trkpt><trkpt lat="49.7080317" lon="3.29459"><ele>87.0</ele><time>2026-04-24T12:33:44.498Z</time></trkpt><trkpt lat="49.7081033" lon="3.2946467"><ele>87.0</ele><time>2026-04-24T12:33:47.496Z</time></trkpt><trkpt lat="49.7081783" lon="3.2947083"><ele>87.0</ele><time>2026-04-24T12:33:50.497Z</time></trkpt><trkpt lat="49.7082367" lon="3.294745"><ele>87.0</ele><time>2026-04-24T12:33:52.497Z</time></trkpt><trkpt lat="49.7083233" lon="3.2947983"><ele>87.0</ele><time>2026-04-24T12:33:55.496Z</time></trkpt><trkpt lat="49.708405" lon="3.2948533"><ele>87.0</ele><time>2026-04-24T12:33:58.498Z</time></trkpt><trkpt lat="49.708475" lon="3.2948983"><ele>87.0</ele><time>2026-04-24T12:34:01.497Z</time></trkpt><trkpt lat="49.708545" lon="3.29495"><ele>87.0</ele><time>2026-04-24T12:34:04.497Z</time></trkpt><trkpt lat="49.7086283" lon="3.2949933"><ele>87.0</ele><time>2026-04-24T12:34:07.497Z</time></trkpt><trkpt lat="49.7086967" lon="3.2950283"><ele>87.0</ele><time>2026-04-24T12:34:10.497Z</time></trkpt><trkpt lat="49.708765" lon="3.2950683"><ele>87.0</ele><time>2026-04-24T12:34:13.497Z</time></trkpt><trkpt lat="49.7088317" lon="3.29512"><ele>87.0</ele><time>2026-04-24T12:34:16.496Z</time></trkpt><trkpt lat="49.70891" lon="3.2951683"><ele>87.0</ele><time>2026-04-24T12:34:19.498Z</time></trkpt><trkpt lat="49.708985" lon="3.2952167"><ele>87.0</ele><time>2026-04-24T12:34:22.497Z</time></trkpt><trkpt lat="49.70906" lon="3.2952667"><ele>87.0</ele><time>2026-04-24T12:34:25.496Z</time></trkpt><trkpt lat="49.7091267" lon="3.29532"><ele>87.0</ele><time>2026-04-24T12:34:28.496Z</time></trkpt><trkpt lat="49.709195" lon="3.2953717"><ele>87.0</ele><time>2026-04-24T12:34:31.497Z</time></trkpt><trkpt lat="49.70926" lon="3.2954167"><ele>87.0</ele><time>2026-04-24T12:34:34.496Z</time></trkpt><trkpt lat="49.7093317" lon="3.295465"><ele>87.0</ele><time>2026-04-24T12:34:37.498Z</time></trkpt><trkpt lat="49.7094117" lon="3.2955083"><ele>87.0</ele><time>2026-04-24T12:34:40.497Z</time></trkpt><trkpt lat="49.7094917" lon="3.2955583"><ele>87.0</ele><time>2026-04-24T12:34:43.495Z</time></trkpt><trkpt lat="49.7095667" lon="3.2956133"><ele>87.0</ele><time>2026-04-24T12:34:46.497Z</time></trkpt><trkpt lat="49.7096483" lon="3.2956667"><ele>87.33333333333333</ele><time>2026-04-24T12:34:49.496Z</time></trkpt><trkpt lat="49.7097217" lon="3.295725"><ele>87.66666666666667</ele><time>2026-04-24T12:34:52.498Z</time></trkpt><trkpt lat="49.7097983" lon="3.2957783"><ele>88.0</ele><time>2026-04-24T12:34:55.495Z</time></trkpt><trkpt lat="49.7098833" lon="3.2958283"><ele>88.33333333333334</ele><time>2026-04-24T12:34:58.497Z</time></trkpt><trkpt lat="49.7099583" lon="3.295875"><ele>88.66666666666667</ele><time>2026-04-24T12:35:01.498Z</time></trkpt><trkpt lat="49.7100217" lon="3.2959217"><ele>89.0</ele><time>2026-04-24T12:35:04.499Z</time></trkpt><trkpt lat="49.7100867" lon="3.2959617"><ele>89.0</ele><time>2026-04-24T12:35:07.498Z</time></trkpt><trkpt lat="49.7101533" lon="3.29598"><ele>89.0</ele><time>2026-04-24T12:35:10.496Z</time></trkpt><trkpt lat="49.7102233" lon="3.2960267"><ele>89.0</ele><time>2026-04-24T12:35:13.496Z</time></trkpt><trkpt lat="49.7102917" lon="3.2960767"><ele>89.0</ele><time>2026-04-24T12:35:16.494Z</time></trkpt><trkpt lat="49.7103633" lon="3.2961233"><ele>89.0</ele><time>2026-04-24T12:35:19.497Z</time></trkpt><trkpt lat="49.710435" lon="3.296175"><ele>89.0</ele><time>2026-04-24T12:35:22.499Z</time></trkpt><trkpt lat="49.7105133" lon="3.2962233"><ele>89.16666666666667</ele><time>2026-04-24T12:35:25.497Z</time></trkpt><trkpt lat="49.7105917" lon="3.2962683"><ele>89.33333333333334</ele><time>2026-04-24T12:35:28.497Z</time></trkpt><trkpt lat="49.7106683" lon="3.2963217"><ele>89.5</ele><time>2026-04-24T12:35:31.499Z</time></trkpt><trkpt lat="49.7107467" lon="3.296375"><ele>89.66666666666667</ele><time>2026-04-24T12:35:34.496Z</time></trkpt><trkpt lat="49.7108277" lon="3.2964223"><ele>89.83333333333333</ele><time>2026-04-24T12:35:37.506Z</time></trkpt><trkpt lat="49.7108976" lon="3.2964748"><ele>90.0</ele><time>2026-04-24T12:35:40.592Z</time></trkpt><trkpt lat="49.7109783" lon="3.2965267"><ele>90.0</ele><time>2026-04-24T12:35:44.497Z</time></trkpt><trkpt lat="49.7110567" lon="3.2965717"><ele>90.0</ele><time>2026-04-24T12:35:47.496Z</time></trkpt><trkpt lat="49.7111383" lon="3.2966233"><ele>90.0</ele><time>2026-04-24T12:35:50.497Z</time></trkpt><trkpt lat="49.711215" lon="3.2966933"><ele>90.0</ele><time>2026-04-24T12:35:53.496Z</time></trkpt><trkpt lat="49.7112983" lon="3.29675"><ele>90.0</ele><time>2026-04-24T12:35:56.498Z</time></trkpt><trkpt lat="49.71138" lon="3.2967983"><ele>90.0</ele><time>2026-04-24T12:35:59.498Z</time></trkpt><trkpt lat="49.7114567" lon="3.2968467"><ele>90.0</ele><time>2026-04-24T12:36:02.497Z</time></trkpt><trkpt lat="49.7115283" lon="3.2968917"><ele>90.0</ele><time>2026-04-24T12:36:05.497Z</time></trkpt><trkpt lat="49.7116" lon="3.2969433"><ele>90.0</ele><time>2026-04-24T12:36:08.497Z</time></trkpt><trkpt lat="49.7116767" lon="3.2969933"><ele>90.0</ele><time>2026-04-24T12:36:11.499Z</time></trkpt><trkpt lat="49.7117567" lon="3.2970433"><ele>90.0</ele><time>2026-04-24T12:36:14.498Z</time></trkpt><trkpt lat="49.7118367" lon="3.297095"><ele>90.0</ele><time>2026-04-24T12:36:17.496Z</time></trkpt><trkpt lat="49.71192" lon="3.2971433"><ele>90.0</ele><time>2026-04-24T12:36:20.497Z</time></trkpt><trkpt lat="49.7119983" lon="3.2971983"><ele>90.0</ele><time>2026-04-24T12:36:23.497Z</time></trkpt><trkpt lat="49.7120717" lon="3.2972583"><ele>90.0</ele><time>2026-04-24T12:36:26.497Z</time></trkpt><trkpt lat="49.71214" lon="3.2973283"><ele>90.0</ele><time>2026-04-24T12:36:29.498Z</time></trkpt><trkpt lat="49.7121967" lon="3.297405"><ele>90.0</ele><time>2026-04-24T12:36:32.497Z</time></trkpt><trkpt lat="49.7122517" lon="3.297495"><ele>90.0</ele><time>2026-04-24T12:36:35.496Z</time></trkpt><trkpt lat="49.7123" lon="3.2975883"><ele>90.0</ele><time>2026-04-24T12:36:38.498Z</time></trkpt><trkpt lat="49.7123117" lon="3.2976883"><ele>90.0</ele><time>2026-04-24T12:36:41.501Z</time></trkpt><trkpt lat="49.7122583" lon="3.2977717"><ele>90.0</ele><time>2026-04-24T12:36:44.496Z</time></trkpt><trkpt lat="49.7121883" lon="3.297845"><ele>90.0</ele><time>2026-04-24T12:36:47.497Z</time></trkpt><trkpt lat="49.7121133" lon="3.2979133"><ele>90.0</ele><time>2026-04-24T12:36:50.497Z</time></trkpt><trkpt lat="49.7120417" lon="3.297975"><ele>90.0</ele><time>2026-04-24T12:36:53.497Z</time></trkpt><trkpt lat="49.7119733" lon="3.2980433"><ele>89.83333333333333</ele><time>2026-04-24T12:36:56.501Z</time></trkpt><trkpt lat="49.7118967" lon="3.2981117"><ele>89.66666666666667</ele><time>2026-04-24T12:36:59.495Z</time></trkpt><trkpt lat="49.7118233" lon="3.2981817"><ele>89.5</ele><time>2026-04-24T12:37:02.497Z</time></trkpt><trkpt lat="49.7117567" lon="3.2982567"><ele>89.33333333333334</ele><time>2026-04-24T12:37:05.497Z</time></trkpt><trkpt lat="49.7116817" lon="3.2983017"><ele>89.16666666666667</ele><time>2026-04-24T12:37:08.497Z</time></trkpt><trkpt lat="49.7116167" lon="3.2983617"><ele>89.0</ele><time>2026-04-24T12:37:11.497Z</time></trkpt><trkpt lat="49.7115533" lon="3.2984317"><ele>89.0</ele><time>2026-04-24T12:37:14.498Z</time></trkpt><trkpt lat="49.7114883" lon="3.2985183"><ele>89.0</ele><time>2026-04-24T12:37:17.498Z</time></trkpt><trkpt lat="49.711445" lon="3.2985967"><ele>89.0</ele><time>2026-04-24T12:37:19.496Z</time></trkpt><trkpt lat="49.7114067" lon="3.298685"><ele>89.0</ele><time>2026-04-24T12:37:21.496Z</time></trkpt><trkpt lat="49.71137" lon="3.2987867"><ele>89.0</ele><time>2026-04-24T12:37:23.497Z</time></trkpt><trkpt lat="49.7113417" lon="3.2988983"><ele>89.0</ele><time>2026-04-24T12:37:25.497Z</time></trkpt><trkpt lat="49.7113233" lon="3.29902"><ele>88.80000000000001</ele><time>2026-04-24T12:37:27.496Z</time></trkpt><trkpt lat="49.7113133" lon="3.2991567"><ele>88.60000000000001</ele><time>2026-04-24T12:37:29.498Z</time></trkpt><trkpt lat="49.7113067" lon="3.2993"><ele>88.4</ele><time>2026-04-24T12:37:31.498Z</time></trkpt><trkpt lat="49.7113017" lon="3.2994467"><ele>88.2</ele><time>2026-04-24T12:37:33.498Z</time></trkpt><trkpt lat="49.7112967" lon="3.2996"><ele>88.0</ele><time>2026-04-24T12:37:35.498Z</time></trkpt><trkpt lat="49.71129" lon="3.2997567"><ele>87.60000000000001</ele><time>2026-04-24T12:37:37.497Z</time></trkpt><trkpt lat="49.7112833" lon="3.2999167"><ele>87.2</ele><time>2026-04-24T12:37:39.495Z</time></trkpt><trkpt lat="49.7112717" lon="3.3000733"><ele>86.8</ele><time>2026-04-24T12:37:41.496Z</time></trkpt><trkpt lat="49.71126" lon="3.3002333"><ele>86.4</ele><time>2026-04-24T12:37:43.497Z</time></trkpt><trkpt lat="49.7112433" lon="3.30039"><ele>86.0</ele><time>2026-04-24T12:37:45.497Z</time></trkpt><trkpt lat="49.7112217" lon="3.3005417"><ele>85.8</ele><time>2026-04-24T12:37:47.498Z</time></trkpt><trkpt lat="49.7111933" lon="3.3006867"><ele>85.6</ele><time>2026-04-24T12:37:49.497Z</time></trkpt><trkpt lat="49.71116" lon="3.3008283"><ele>85.4</ele><time>2026-04-24T12:37:51.497Z</time></trkpt><trkpt lat="49.71112" lon="3.300965"><ele>85.2</ele><time>2026-04-24T12:37:53.496Z</time></trkpt><trkpt lat="49.7110767" lon="3.301095"><ele>85.0</ele><time>2026-04-24T12:37:55.497Z</time></trkpt><trkpt lat="49.7110317" lon="3.3012233"><ele>85.0</ele><time>2026-04-24T12:37:57.495Z</time></trkpt><trkpt lat="49.7109883" lon="3.301345"><ele>85.0</ele><time>2026-04-24T12:37:59.499Z</time></trkpt><trkpt lat="49.7109483" lon="3.30146"><ele>85.0</ele><time>2026-04-24T12:38:01.498Z</time></trkpt><trkpt lat="49.71091" lon="3.3015767"><ele>85.0</ele><time>2026-04-24T12:38:03.497Z</time></trkpt><trkpt lat="49.7108767" lon="3.3016933"><ele>85.0</ele><time>2026-04-24T12:38:05.497Z</time></trkpt><trkpt lat="49.7108483" lon="3.3018033"><ele>85.0</ele><time>2026-04-24T12:38:07.499Z</time></trkpt><trkpt lat="49.7108267" lon="3.3019133"><ele>84.83333333333333</ele><time>2026-04-24T12:38:09.495Z</time></trkpt><trkpt lat="49.71081" lon="3.302025"><ele>84.66666666666666</ele><time>2026-04-24T12:38:11.497Z</time></trkpt><trkpt lat="49.7108033" lon="3.3021333"><ele>84.5</ele><time>2026-04-24T12:38:13.497Z</time></trkpt><trkpt lat="49.710795" lon="3.30223"><ele>84.33333333333333</ele><time>2026-04-24T12:38:15.498Z</time></trkpt><trkpt lat="49.7107867" lon="3.3023633"><ele>84.16666666666667</ele><time>2026-04-24T12:38:18.497Z</time></trkpt><trkpt lat="49.710775" lon="3.302495"><ele>84.0</ele><time>2026-04-24T12:38:21.497Z</time></trkpt><trkpt lat="49.7107683" lon="3.3026167"><ele>83.66666666666667</ele><time>2026-04-24T12:38:24.498Z</time></trkpt><trkpt lat="49.7107517" lon="3.3027467"><ele>83.33333333333333</ele><time>2026-04-24T12:38:27.497Z</time></trkpt><trkpt lat="49.7107267" lon="3.3028367"><ele>83.0</ele><time>2026-04-24T12:38:29.495Z</time></trkpt><trkpt lat="49.710675" lon="3.3029433"><ele>82.66666666666666</ele><time>2026-04-24T12:38:32.498Z</time></trkpt><trkpt lat="49.7106067" lon="3.3030217"><ele>82.33333333333333</ele><time>2026-04-24T12:38:35.497Z</time></trkpt><trkpt lat="49.7105267" lon="3.3031033"><ele>82.0</ele><time>2026-04-24T12:38:38.497Z</time></trkpt><trkpt lat="49.71047" lon="3.30315"><ele>82.0</ele><time>2026-04-24T12:38:40.498Z</time></trkpt><trkpt lat="49.71041" lon="3.303195"><ele>82.0</ele><time>2026-04-24T12:38:42.497Z</time></trkpt><trkpt lat="49.7103533" lon="3.3032433"><ele>82.0</ele><time>2026-04-24T12:38:44.499Z</time></trkpt><trkpt lat="49.710275" lon="3.3033083"><ele>82.0</ele><time>2026-04-24T12:38:47.497Z</time></trkpt><trkpt lat="49.7101983" lon="3.303385"><ele>82.0</ele><time>2026-04-24T12:38:50.496Z</time></trkpt><trkpt lat="49.7101267" lon="3.30346"><ele>82.0</ele><time>2026-04-24T12:38:53.497Z</time></trkpt><trkpt lat="49.7100567" lon="3.3035217"><ele>82.0</ele><time>2026-04-24T12:38:56.498Z</time></trkpt><trkpt lat="49.710005" lon="3.303605"><ele>82.0</ele><time>2026-04-24T12:38:59.496Z</time></trkpt><trkpt lat="49.70994" lon="3.30368"><ele>82.0</ele><time>2026-04-24T12:39:02.499Z</time></trkpt><trkpt lat="49.7098667" lon="3.3037567"><ele>82.0</ele><time>2026-04-24T12:39:05.499Z</time></trkpt><trkpt lat="49.7097967" lon="3.3038267"><ele>82.0</ele><time>2026-04-24T12:39:08.497Z</time></trkpt><trkpt lat="49.709735" lon="3.3038967"><ele>82.0</ele><time>2026-04-24T12:39:11.498Z</time></trkpt><trkpt lat="49.7096717" lon="3.303955"><ele>81.83333333333333</ele><time>2026-04-24T12:39:14.498Z</time></trkpt><trkpt lat="49.7096117" lon="3.30402"><ele>81.66666666666666</ele><time>2026-04-24T12:39:17.496Z</time></trkpt><trkpt lat="49.7095383" lon="3.3041017"><ele>81.5</ele><time>2026-04-24T12:39:20.497Z</time></trkpt><trkpt lat="49.7094683" lon="3.3041883"><ele>81.33333333333333</ele><time>2026-04-24T12:39:23.498Z</time></trkpt><trkpt lat="49.7094" lon="3.3042717"><ele>81.16666666666667</ele><time>2026-04-24T12:39:26.499Z</time></trkpt><trkpt lat="49.709335" lon="3.3043533"><ele>81.0</ele><time>2026-04-24T12:39:29.497Z</time></trkpt><trkpt lat="49.7092717" lon="3.304435"><ele>81.0</ele><time>2026-04-24T12:39:32.497Z</time></trkpt><trkpt lat="49.709215" lon="3.3045133"><ele>81.0</ele><time>2026-04-24T12:39:35.496Z</time></trkpt><trkpt lat="49.7091633" lon="3.3045933"><ele>81.0</ele><time>2026-04-24T12:39:38.499Z</time></trkpt><trkpt lat="49.7091017" lon="3.3046833"><ele>81.0</ele><time>2026-04-24T12:39:41.496Z</time></trkpt><trkpt lat="49.7090533" lon="3.3047483"><ele>81.0</ele><time>2026-04-24T12:39:43.495Z</time></trkpt><trkpt lat="49.7089883" lon="3.30484"><ele>81.0</ele><time>2026-04-24T12:39:46.496Z</time></trkpt><trkpt lat="49.7089383" lon="3.3049217"><ele>80.83333333333333</ele><time>2026-04-24T12:39:49.497Z</time></trkpt><trkpt lat="49.7088833" lon="3.3050017"><ele>80.66666666666667</ele><time>2026-04-24T12:39:52.497Z</time></trkpt><trkpt lat="49.7088333" lon="3.3050917"><ele>80.5</ele><time>2026-04-24T12:39:55.497Z</time></trkpt><trkpt lat="49.708775" lon="3.3051867"><ele>80.33333333333334</ele><time>2026-04-24T12:39:58.498Z</time></trkpt><trkpt lat="49.7087217" lon="3.3052733"><ele>80.16666666666667</ele><time>2026-04-24T12:40:01.496Z</time></trkpt><trkpt lat="49.70867" lon="3.30535"><ele>80.0</ele><time>2026-04-24T12:40:04.499Z</time></trkpt><trkpt lat="49.7086233" lon="3.3054317"><ele>80.14285714285714</ele><time>2026-04-24T12:40:07.495Z</time></trkpt><trkpt lat="49.7085733" lon="3.3055183"><ele>80.28571428571429</ele><time>2026-04-24T12:40:10.497Z</time></trkpt><trkpt lat="49.70852" lon="3.3056067"><ele>80.42857142857143</ele><time>2026-04-24T12:40:13.497Z</time></trkpt><trkpt lat="49.7084683" lon="3.3056917"><ele>80.57142857142857</ele><time>2026-04-24T12:40:16.496Z</time></trkpt><trkpt lat="49.7084133" lon="3.3057717"><ele>80.71428571428571</ele><time>2026-04-24T12:40:19.496Z</time></trkpt><trkpt lat="49.708355" lon="3.30582"><ele>80.85714285714286</ele><time>2026-04-24T12:40:22.497Z</time></trkpt><trkpt lat="49.7082783" lon="3.3058417"><ele>81.0</ele><time>2026-04-24T12:40:26.5Z</time></trkpt><trkpt lat="49.7082133" lon="3.3057917"><ele>81.0</ele><time>2026-04-24T12:40:29.501Z</time></trkpt><trkpt lat="49.7081417" lon="3.3057433"><ele>81.0</ele><time>2026-04-24T12:40:32.498Z</time></trkpt><trkpt lat="49.70806" lon="3.30573"><ele>81.0</ele><time>2026-04-24T12:40:35.496Z</time></trkpt><trkpt lat="49.7079733" lon="3.3057333"><ele>81.0</ele><time>2026-04-24T12:40:38.498Z</time></trkpt><trkpt lat="49.7078867" lon="3.3057533"><ele>81.0</ele><time>2026-04-24T12:40:41.496Z</time></trkpt><trkpt lat="49.7078017" lon="3.3057767"><ele>81.0</ele><time>2026-04-24T12:40:44.497Z</time></trkpt><trkpt lat="49.707715" lon="3.3057967"><ele>81.0</ele><time>2026-04-24T12:40:47.497Z</time></trkpt><trkpt lat="49.7076267" lon="3.30582"><ele>81.0</ele><time>2026-04-24T12:40:50.498Z</time></trkpt><trkpt lat="49.707545" lon="3.3058517"><ele>81.0</ele><time>2026-04-24T12:40:53.497Z</time></trkpt><trkpt lat="49.707465" lon="3.3058933"><ele>81.0</ele><time>2026-04-24T12:40:56.497Z</time></trkpt><trkpt lat="49.70739" lon="3.305945"><ele>81.0</ele><time>2026-04-24T12:40:59.499Z</time></trkpt><trkpt lat="49.707315" lon="3.3059983"><ele>81.0</ele><time>2026-04-24T12:41:02.497Z</time></trkpt><trkpt lat="49.7072367" lon="3.3060583"><ele>81.0</ele><time>2026-04-24T12:41:05.497Z</time></trkpt><trkpt lat="49.7071617" lon="3.306125"><ele>81.0</ele><time>2026-04-24T12:41:08.498Z</time></trkpt><trkpt lat="49.7070867" lon="3.3061933"><ele>81.0</ele><time>2026-04-24T12:41:11.498Z</time></trkpt><trkpt lat="49.7070117" lon="3.3062617"><ele>81.0</ele><time>2026-04-24T12:41:14.496Z</time></trkpt><trkpt lat="49.7069417" lon="3.30633"><ele>81.0</ele><time>2026-04-24T12:41:17.496Z</time></trkpt><trkpt lat="49.70687" lon="3.3064"><ele>81.0</ele><time>2026-04-24T12:41:20.498Z</time></trkpt><trkpt lat="49.7068033" lon="3.3064567"><ele>81.16666666666667</ele><time>2026-04-24T12:41:23.499Z</time></trkpt><trkpt lat="49.7067383" lon="3.3065167"><ele>81.33333333333333</ele><time>2026-04-24T12:41:26.497Z</time></trkpt><trkpt lat="49.7066633" lon="3.306555"><ele>81.5</ele><time>2026-04-24T12:41:29.498Z</time></trkpt><trkpt lat="49.706585" lon="3.3065433"><ele>81.66666666666666</ele><time>2026-04-24T12:41:32.498Z</time></trkpt><trkpt lat="49.7065317" lon="3.3064833"><ele>81.83333333333333</ele><time>2026-04-24T12:41:35.496Z</time></trkpt><trkpt lat="49.7064883" lon="3.306395"><ele>82.0</ele><time>2026-04-24T12:41:38.497Z</time></trkpt><trkpt lat="49.7064467" lon="3.3062867"><ele>82.16666666666666</ele><time>2026-04-24T12:41:41.497Z</time></trkpt><trkpt lat="49.706405" lon="3.306185"><ele>82.33333333333333</ele><time>2026-04-24T12:41:44.498Z</time></trkpt><trkpt lat="49.7063667" lon="3.3060983"><ele>82.5</ele><time>2026-04-24T12:41:47.498Z</time></trkpt><trkpt lat="49.7063233" lon="3.305995"><ele>82.66666666666667</ele><time>2026-04-24T12:41:50.498Z</time></trkpt><trkpt lat="49.7062783" lon="3.3058867"><ele>82.83333333333334</ele><time>2026-04-24T12:41:53.499Z</time></trkpt><trkpt lat="49.7062333" lon="3.30578"><ele>83.0</ele><time>2026-04-24T12:41:56.497Z</time></trkpt><trkpt lat="49.7061917" lon="3.3056767"><ele>83.0</ele><time>2026-04-24T12:41:59.498Z</time></trkpt><trkpt lat="49.706155" lon="3.3055867"><ele>83.0</ele><time>2026-04-24T12:42:02.499Z</time></trkpt><trkpt lat="49.7061133" lon="3.30549"><ele>83.0</ele><time>2026-04-24T12:42:05.497Z</time></trkpt><trkpt lat="49.706065" lon="3.3053767"><ele>83.0</ele><time>2026-04-24T12:42:08.497Z</time></trkpt><trkpt lat="49.7060117" lon="3.3052567"><ele>83.0</ele><time>2026-04-24T12:42:11.498Z</time></trkpt><trkpt lat="49.7059733" lon="3.3051667"><ele>83.0</ele><time>2026-04-24T12:42:13.497Z</time></trkpt><trkpt lat="49.7059333" lon="3.3050717"><ele>82.83333333333334</ele><time>2026-04-24T12:42:15.496Z</time></trkpt><trkpt lat="49.7058917" lon="3.3049733"><ele>82.66666666666667</ele><time>2026-04-24T12:42:17.495Z</time></trkpt><trkpt lat="49.70585" lon="3.3048717"><ele>82.5</ele><time>2026-04-24T12:42:19.495Z</time></trkpt><trkpt lat="49.7058067" lon="3.304765"><ele>82.33333333333333</ele><time>2026-04-24T12:42:21.495Z</time></trkpt><trkpt lat="49.7057617" lon="3.3046633"><ele>82.16666666666666</ele><time>2026-04-24T12:42:23.496Z</time></trkpt><trkpt lat="49.7057167" lon="3.3045567"><ele>82.0</ele><time>2026-04-24T12:42:25.496Z</time></trkpt><trkpt lat="49.70567" lon="3.3044467"><ele>81.8</ele><time>2026-04-24T12:42:27.495Z</time></trkpt><trkpt lat="49.70562" lon="3.3043317"><ele>81.6</ele><time>2026-04-24T12:42:29.496Z</time></trkpt><trkpt lat="49.7055667" lon="3.3042117"><ele>81.39999999999999</ele><time>2026-04-24T12:42:31.496Z</time></trkpt><trkpt lat="49.7055117" lon="3.3040833"><ele>81.19999999999999</ele><time>2026-04-24T12:42:33.496Z</time></trkpt><trkpt lat="49.705455" lon="3.3039533"><ele>81.0</ele><time>2026-04-24T12:42:35.495Z</time></trkpt><trkpt lat="49.7054033" lon="3.3038367"><ele>80.83333333333333</ele><time>2026-04-24T12:42:37.496Z</time></trkpt><trkpt lat="49.705355" lon="3.30373"><ele>80.66666666666667</ele><time>2026-04-24T12:42:39.496Z</time></trkpt><trkpt lat="49.70531" lon="3.30363"><ele>80.5</ele><time>2026-04-24T12:42:41.495Z</time></trkpt><trkpt lat="49.705275" lon="3.3035433"><ele>80.33333333333334</ele><time>2026-04-24T12:42:43.496Z</time></trkpt><trkpt lat="49.7052317" lon="3.303425"><ele>80.16666666666667</ele><time>2026-04-24T12:42:46.497Z</time></trkpt><trkpt lat="49.7051983" lon="3.30331"><ele>80.0</ele><time>2026-04-24T12:42:49.495Z</time></trkpt><trkpt lat="49.7051583" lon="3.3032083"><ele>79.66666666666667</ele><time>2026-04-24T12:42:52.497Z</time></trkpt><trkpt lat="49.7051167" lon="3.3031"><ele>79.33333333333334</ele><time>2026-04-24T12:42:55.498Z</time></trkpt><trkpt lat="49.7050667" lon="3.3029817"><ele>79.0</ele><time>2026-04-24T12:42:58.496Z</time></trkpt><trkpt lat="49.7050133" lon="3.302865"><ele>78.66666666666667</ele><time>2026-04-24T12:43:01.497Z</time></trkpt><trkpt lat="49.704965" lon="3.30275"><ele>78.33333333333333</ele><time>2026-04-24T12:43:04.495Z</time></trkpt><trkpt lat="49.70492" lon="3.3026433"><ele>78.0</ele><time>2026-04-24T12:43:07.495Z</time></trkpt><trkpt lat="49.7048767" lon="3.3025433"><ele>77.85714285714286</ele><time>2026-04-24T12:43:10.498Z</time></trkpt><trkpt lat="49.7048383" lon="3.302455"><ele>77.71428571428571</ele><time>2026-04-24T12:43:13.495Z</time></trkpt><trkpt lat="49.7048" lon="3.3023667"><ele>77.57142857142857</ele><time>2026-04-24T12:43:16.496Z</time></trkpt><trkpt lat="49.7047583" lon="3.3022667"><ele>77.42857142857143</ele><time>2026-04-24T12:43:19.496Z</time></trkpt><trkpt lat="49.7047217" lon="3.302175"><ele>77.28571428571428</ele><time>2026-04-24T12:43:22.496Z</time></trkpt><trkpt lat="49.704685" lon="3.3020767"><ele>77.14285714285714</ele><time>2026-04-24T12:43:25.495Z</time></trkpt><trkpt lat="49.70464" lon="3.3019617"><ele>77.0</ele><time>2026-04-24T12:43:28.497Z</time></trkpt><trkpt lat="49.7045917" lon="3.3018383"><ele>77.0</ele><time>2026-04-24T12:43:31.496Z</time></trkpt><trkpt lat="49.7045567" lon="3.301755"><ele>77.0</ele><time>2026-04-24T12:43:33.495Z</time></trkpt><trkpt lat="49.70452" lon="3.3016667"><ele>77.0</ele><time>2026-04-24T12:43:35.497Z</time></trkpt><trkpt lat="49.7044833" lon="3.3015767"><ele>77.0</ele><time>2026-04-24T12:43:37.496Z</time></trkpt><trkpt lat="49.7044433" lon="3.3014767"><ele>77.0</ele><time>2026-04-24T12:43:39.497Z</time></trkpt><trkpt lat="49.7044" lon="3.30137"><ele>77.0</ele><time>2026-04-24T12:43:41.497Z</time></trkpt><trkpt lat="49.70435" lon="3.3012517"><ele>76.6</ele><time>2026-04-24T12:43:43.497Z</time></trkpt><trkpt lat="49.7042983" lon="3.301125"><ele>76.2</ele><time>2026-04-24T12:43:45.495Z</time></trkpt><trkpt lat="49.7042417" lon="3.3009883"><ele>75.8</ele><time>2026-04-24T12:43:47.5Z</time></trkpt><trkpt lat="49.70418" lon="3.3008467"><ele>75.4</ele><time>2026-04-24T12:43:49.496Z</time></trkpt><trkpt lat="49.7041233" lon="3.30072"><ele>75.0</ele><time>2026-04-24T12:43:51.497Z</time></trkpt><trkpt lat="49.7040767" lon="3.3006067"><ele>75.0</ele><time>2026-04-24T12:43:53.495Z</time></trkpt><trkpt lat="49.70403" lon="3.3004917"><ele>75.0</ele><time>2026-04-24T12:43:55.498Z</time></trkpt><trkpt lat="49.7039817" lon="3.300375"><ele>75.0</ele><time>2026-04-24T12:43:57.497Z</time></trkpt><trkpt lat="49.70393" lon="3.3002617"><ele>75.0</ele><time>2026-04-24T12:43:59.496Z</time></trkpt><trkpt lat="49.703885" lon="3.3001533"><ele>75.0</ele><time>2026-04-24T12:44:01.497Z</time></trkpt><trkpt lat="49.7038433" lon="3.300055"><ele>75.0</ele><time>2026-04-24T12:44:03.497Z</time></trkpt><trkpt lat="49.7038083" lon="3.2999717"><ele>75.0</ele><time>2026-04-24T12:44:05.496Z</time></trkpt><trkpt lat="49.7037683" lon="3.2998683"><ele>75.0</ele><time>2026-04-24T12:44:08.496Z</time></trkpt><trkpt lat="49.7037317" lon="3.29977"><ele>75.0</ele><time>2026-04-24T12:44:11.497Z</time></trkpt><trkpt lat="49.7036883" lon="3.2996617"><ele>75.0</ele><time>2026-04-24T12:44:14.498Z</time></trkpt><trkpt lat="49.70364" lon="3.29955"><ele>75.0</ele><time>2026-04-24T12:44:17.498Z</time></trkpt><trkpt lat="49.7035917" lon="3.2994367"><ele>75.0</ele><time>2026-04-24T12:44:20.498Z</time></trkpt><trkpt lat="49.70355" lon="3.2993317"><ele>74.99999999999999</ele><time>2026-04-24T12:44:24.496Z</time></trkpt><trkpt lat="49.7034983" lon="3.299245"><ele>75.0</ele><time>2026-04-24T12:44:30.496Z</time></trkpt><trkpt lat="49.7034267" lon="3.2992417"><ele>75.0</ele><time>2026-04-24T12:44:34.496Z</time></trkpt><trkpt lat="49.7033617" lon="3.299325"><ele>75.0</ele><time>2026-04-24T12:44:37.496Z</time></trkpt><trkpt lat="49.7033233" lon="3.2994083"><ele>75.0</ele><time>2026-04-24T12:44:39.495Z</time></trkpt><trkpt lat="49.7032867" lon="3.2994967"><ele>74.99999999999999</ele><time>2026-04-24T12:44:41.496Z</time></trkpt><trkpt lat="49.703255" lon="3.2995867"><ele>75.0</ele><time>2026-04-24T12:44:43.497Z</time></trkpt><trkpt lat="49.703225" lon="3.2996767"><ele>74.71428571428571</ele><time>2026-04-24T12:44:45.496Z</time></trkpt><trkpt lat="49.7031867" lon="3.2997583"><ele>74.42857142857143</ele><time>2026-04-24T12:44:47.495Z</time></trkpt><trkpt lat="49.7031483" lon="3.2998467"><ele>74.14285714285714</ele><time>2026-04-24T12:44:49.496Z</time></trkpt><trkpt lat="49.7031117" lon="3.2999383"><ele>73.85714285714286</ele><time>2026-04-24T12:44:51.496Z</time></trkpt><trkpt lat="49.7030733" lon="3.30003"><ele>73.57142857142857</ele><time>2026-04-24T12:44:53.495Z</time></trkpt><trkpt lat="49.7030333" lon="3.3001133"><ele>73.28571428571428</ele><time>2026-04-24T12:44:55.496Z</time></trkpt><trkpt lat="49.7029967" lon="3.3002017"><ele>73.0</ele><time>2026-04-24T12:44:57.497Z</time></trkpt><trkpt lat="49.7029567" lon="3.3002883"><ele>73.0</ele><time>2026-04-24T12:44:59.496Z</time></trkpt><trkpt lat="49.702915" lon="3.3003683"><ele>73.0</ele><time>2026-04-24T12:45:01.495Z</time></trkpt><trkpt lat="49.702875" lon="3.300455"><ele>73.0</ele><time>2026-04-24T12:45:03.496Z</time></trkpt><trkpt lat="49.7028383" lon="3.3005383"><ele>73.0</ele><time>2026-04-24T12:45:05.495Z</time></trkpt><trkpt lat="49.7028017" lon="3.3006183"><ele>73.0</ele><time>2026-04-24T12:45:07.497Z</time></trkpt><trkpt lat="49.7027517" lon="3.3007233"><ele>73.0</ele><time>2026-04-24T12:45:10.496Z</time></trkpt><trkpt lat="49.7026967" lon="3.3008383"><ele>73.0</ele><time>2026-04-24T12:45:13.497Z</time></trkpt><trkpt lat="49.7026517" lon="3.300925"><ele>72.83333333333333</ele><time>2026-04-24T12:45:15.497Z</time></trkpt><trkpt lat="49.7026083" lon="3.301015"><ele>72.66666666666666</ele><time>2026-04-24T12:45:17.496Z</time></trkpt><trkpt lat="49.7025667" lon="3.30111"><ele>72.5</ele><time>2026-04-24T12:45:19.496Z</time></trkpt><trkpt lat="49.702525" lon="3.3012067"><ele>72.33333333333333</ele><time>2026-04-24T12:45:21.499Z</time></trkpt><trkpt lat="49.70248" lon="3.3013033"><ele>72.16666666666667</ele><time>2026-04-24T12:45:23.496Z</time></trkpt><trkpt lat="49.702435" lon="3.3013983"><ele>72.0</ele><time>2026-04-24T12:45:25.495Z</time></trkpt><trkpt lat="49.7023883" lon="3.301495"><ele>71.83333333333333</ele><time>2026-04-24T12:45:27.495Z</time></trkpt><trkpt lat="49.7023433" lon="3.3015983"><ele>71.66666666666667</ele><time>2026-04-24T12:45:29.496Z</time></trkpt><trkpt lat="49.7022983" lon="3.3017"><ele>71.5</ele><time>2026-04-24T12:45:31.496Z</time></trkpt><trkpt lat="49.7022583" lon="3.301795"><ele>71.33333333333334</ele><time>2026-04-24T12:45:33.496Z</time></trkpt><trkpt lat="49.7022167" lon="3.3018867"><ele>71.16666666666667</ele><time>2026-04-24T12:45:35.496Z</time></trkpt><trkpt lat="49.7021733" lon="3.3019817"><ele>71.0</ele><time>2026-04-24T12:45:37.497Z</time></trkpt><trkpt lat="49.7021333" lon="3.3020733"><ele>71.0</ele><time>2026-04-24T12:45:39.497Z</time></trkpt><trkpt lat="49.702095" lon="3.3021583"><ele>71.0</ele><time>2026-04-24T12:45:41.497Z</time></trkpt><trkpt lat="49.7020567" lon="3.3022433"><ele>71.0</ele><time>2026-04-24T12:45:43.496Z</time></trkpt><trkpt lat="49.702015" lon="3.3023333"><ele>71.0</ele><time>2026-04-24T12:45:45.5Z</time></trkpt><trkpt lat="49.7019733" lon="3.3024233"><ele>71.0</ele><time>2026-04-24T12:45:47.496Z</time></trkpt><trkpt lat="49.7019267" lon="3.302505"><ele>71.0</ele><time>2026-04-24T12:45:49.498Z</time></trkpt><trkpt lat="49.7018767" lon="3.3025783"><ele>71.0</ele><time>2026-04-24T12:45:51.497Z</time></trkpt><trkpt lat="49.7018217" lon="3.3026917"><ele>70.83333333333334</ele><time>2026-04-24T12:45:54.497Z</time></trkpt><trkpt lat="49.70177" lon="3.3028"><ele>70.66666666666667</ele><time>2026-04-24T12:45:57.496Z</time></trkpt><trkpt lat="49.7017183" lon="3.3029167"><ele>70.5</ele><time>2026-04-24T12:46:00.496Z</time></trkpt><trkpt lat="49.70167" lon="3.3030367"><ele>70.33333333333333</ele><time>2026-04-24T12:46:03.496Z</time></trkpt><trkpt lat="49.7016167" lon="3.3031467"><ele>70.16666666666666</ele><time>2026-04-24T12:46:06.495Z</time></trkpt><trkpt lat="49.7015667" lon="3.3032583"><ele>70.0</ele><time>2026-04-24T12:46:09.497Z</time></trkpt><trkpt lat="49.7015233" lon="3.3033717"><ele>70.0</ele><time>2026-04-24T12:46:12.497Z</time></trkpt><trkpt lat="49.7014817" lon="3.3034883"><ele>70.0</ele><time>2026-04-24T12:46:15.497Z</time></trkpt><trkpt lat="49.70143" lon="3.3035983"><ele>70.0</ele><time>2026-04-24T12:46:18.498Z</time></trkpt><trkpt lat="49.7013783" lon="3.30371"><ele>70.0</ele><time>2026-04-24T12:46:21.498Z</time></trkpt><trkpt lat="49.7013267" lon="3.3038217"><ele>70.0</ele><time>2026-04-24T12:46:24.498Z</time></trkpt><trkpt lat="49.701275" lon="3.30393"><ele>70.0</ele><time>2026-04-24T12:46:27.496Z</time></trkpt><trkpt lat="49.70122" lon="3.304035"><ele>70.14285714285714</ele><time>2026-04-24T12:46:30.497Z</time></trkpt><trkpt lat="49.7011683" lon="3.30415"><ele>70.28571428571428</ele><time>2026-04-24T12:46:33.497Z</time></trkpt><trkpt lat="49.70113" lon="3.3042283"><ele>70.42857142857143</ele><time>2026-04-24T12:46:35.497Z</time></trkpt><trkpt lat="49.7010917" lon="3.30431"><ele>70.57142857142857</ele><time>2026-04-24T12:46:37.497Z</time></trkpt><trkpt lat="49.7010533" lon="3.3043933"><ele>70.71428571428571</ele><time>2026-04-24T12:46:39.496Z</time></trkpt><trkpt lat="49.701015" lon="3.3044733"><ele>70.85714285714286</ele><time>2026-04-24T12:46:41.497Z</time></trkpt><trkpt lat="49.7009767" lon="3.3045517"><ele>71.0</ele><time>2026-04-24T12:46:43.496Z</time></trkpt><trkpt lat="49.7009417" lon="3.304635"><ele>71.14285714285714</ele><time>2026-04-24T12:46:45.499Z</time></trkpt><trkpt lat="49.7009033" lon="3.30472"><ele>71.28571428571428</ele><time>2026-04-24T12:46:47.498Z</time></trkpt><trkpt lat="49.7008667" lon="3.304805"><ele>71.42857142857143</ele><time>2026-04-24T12:46:49.499Z</time></trkpt><trkpt lat="49.7008283" lon="3.3048883"><ele>71.57142857142857</ele><time>2026-04-24T12:46:51.498Z</time></trkpt><trkpt lat="49.70079" lon="3.3049717"><ele>71.71428571428572</ele><time>2026-04-24T12:46:53.499Z</time></trkpt><trkpt lat="49.700735" lon="3.3050883"><ele>71.85714285714286</ele><time>2026-04-24T12:46:56.497Z</time></trkpt><trkpt lat="49.7006983" lon="3.30517"><ele>72.0</ele><time>2026-04-24T12:46:58.496Z</time></trkpt><trkpt lat="49.7006583" lon="3.3052533"><ele>72.00000000000001</ele><time>2026-04-24T12:47:00.496Z</time></trkpt><trkpt lat="49.7006217" lon="3.305335"><ele>72.0</ele><time>2026-04-24T12:47:02.497Z</time></trkpt><trkpt lat="49.700585" lon="3.305415"><ele>72.0</ele><time>2026-04-24T12:47:04.496Z</time></trkpt><trkpt lat="49.7005467" lon="3.305495"><ele>72.0</ele><time>2026-04-24T12:47:06.495Z</time></trkpt><trkpt lat="49.7005083" lon="3.3055783"><ele>72.0</ele><time>2026-04-24T12:47:08.495Z</time></trkpt><trkpt lat="49.7004683" lon="3.3056667"><ele>72.00000000000001</ele><time>2026-04-24T12:47:10.496Z</time></trkpt><trkpt lat="49.700425" lon="3.305755"><ele>72.0</ele><time>2026-04-24T12:47:12.495Z</time></trkpt><trkpt lat="49.7003817" lon="3.3058333"><ele>72.0</ele><time>2026-04-24T12:47:14.497Z</time></trkpt><trkpt lat="49.7003217" lon="3.30595"><ele>72.0</ele><time>2026-04-24T12:47:17.496Z</time></trkpt><trkpt lat="49.7002833" lon="3.3060367"><ele>72.0</ele><time>2026-04-24T12:47:19.497Z</time></trkpt><trkpt lat="49.7002433" lon="3.3061167"><ele>72.0</ele><time>2026-04-24T12:47:21.497Z</time></trkpt><trkpt lat="49.7001917" lon="3.3062267"><ele>72.0</ele><time>2026-04-24T12:47:24.498Z</time></trkpt><trkpt lat="49.70014" lon="3.3063433"><ele>72.0</ele><time>2026-04-24T12:47:27.496Z</time></trkpt><trkpt lat="49.7001017" lon="3.30643"><ele>72.16666666666667</ele><time>2026-04-24T12:47:29.496Z</time></trkpt><trkpt lat="49.700055" lon="3.3065267"><ele>72.33333333333333</ele><time>2026-04-24T12:47:31.497Z</time></trkpt><trkpt lat="49.70001" lon="3.306625"><ele>72.5</ele><time>2026-04-24T12:47:33.495Z</time></trkpt><trkpt lat="49.6999633" lon="3.30672"><ele>72.66666666666666</ele><time>2026-04-24T12:47:35.497Z</time></trkpt><trkpt lat="49.6999183" lon="3.3068167"><ele>72.83333333333333</ele><time>2026-04-24T12:47:37.499Z</time></trkpt><trkpt lat="49.6998767" lon="3.3069217"><ele>73.0</ele><time>2026-04-24T12:47:39.497Z</time></trkpt><trkpt lat="49.699835" lon="3.30702"><ele>73.0</ele><time>2026-04-24T12:47:41.495Z</time></trkpt><trkpt lat="49.6997867" lon="3.3071117"><ele>73.0</ele><time>2026-04-24T12:47:43.496Z</time></trkpt><trkpt lat="49.6997417" lon="3.307205"><ele>73.0</ele><time>2026-04-24T12:47:45.496Z</time></trkpt><trkpt lat="49.6996967" lon="3.3073033"><ele>73.0</ele><time>2026-04-24T12:47:47.495Z</time></trkpt><trkpt lat="49.69965" lon="3.3074017"><ele>73.0</ele><time>2026-04-24T12:47:49.496Z</time></trkpt><trkpt lat="49.6996" lon="3.3075"><ele>73.0</ele><time>2026-04-24T12:47:51.497Z</time></trkpt><trkpt lat="49.699555" lon="3.3076"><ele>72.66666666666666</ele><time>2026-04-24T12:47:53.496Z</time></trkpt><trkpt lat="49.6995067" lon="3.3076967"><ele>72.33333333333333</ele><time>2026-04-24T12:47:55.497Z</time></trkpt><trkpt lat="49.6994633" lon="3.3077917"><ele>72.0</ele><time>2026-04-24T12:47:57.497Z</time></trkpt><trkpt lat="49.6994183" lon="3.3078833"><ele>71.66666666666667</ele><time>2026-04-24T12:47:59.497Z</time></trkpt><trkpt lat="49.6993767" lon="3.3079683"><ele>71.33333333333334</ele><time>2026-04-24T12:48:01.496Z</time></trkpt><trkpt lat="49.6993217" lon="3.3080833"><ele>71.0</ele><time>2026-04-24T12:48:04.497Z</time></trkpt><trkpt lat="49.699265" lon="3.3081983"><ele>70.85714285714286</ele><time>2026-04-24T12:48:07.497Z</time></trkpt><trkpt lat="49.699225" lon="3.3082867"><ele>70.71428571428571</ele><time>2026-04-24T12:48:09.496Z</time></trkpt><trkpt lat="49.6991817" lon="3.308385"><ele>70.57142857142857</ele><time>2026-04-24T12:48:11.495Z</time></trkpt><trkpt lat="49.6991367" lon="3.3084817"><ele>70.42857142857143</ele><time>2026-04-24T12:48:13.497Z</time></trkpt><trkpt lat="49.6990933" lon="3.3085733"><ele>70.28571428571428</ele><time>2026-04-24T12:48:15.496Z</time></trkpt><trkpt lat="49.6990533" lon="3.3086633"><ele>70.14285714285714</ele><time>2026-04-24T12:48:17.495Z</time></trkpt><trkpt lat="49.6990167" lon="3.30875"><ele>70.0</ele><time>2026-04-24T12:48:19.496Z</time></trkpt><trkpt lat="49.6989833" lon="3.3088383"><ele>70.0</ele><time>2026-04-24T12:48:21.496Z</time></trkpt><trkpt lat="49.6989417" lon="3.3089317"><ele>70.0</ele><time>2026-04-24T12:48:23.496Z</time></trkpt><trkpt lat="49.6988983" lon="3.30903"><ele>70.0</ele><time>2026-04-24T12:48:25.496Z</time></trkpt><trkpt lat="49.6988617" lon="3.3091267"><ele>70.0</ele><time>2026-04-24T12:48:27.495Z</time></trkpt><trkpt lat="49.6988283" lon="3.30921"><ele>70.0</ele><time>2026-04-24T12:48:29.495Z</time></trkpt><trkpt lat="49.69877" lon="3.309315"><ele>70.0</ele><time>2026-04-24T12:48:32.497Z</time></trkpt><trkpt lat="49.698715" lon="3.3094283"><ele>70.0</ele><time>2026-04-24T12:48:35.496Z</time></trkpt><trkpt lat="49.698675" lon="3.309515"><ele>70.0</ele><time>2026-04-24T12:48:37.499Z</time></trkpt><trkpt lat="49.698635" lon="3.30961"><ele>70.0</ele><time>2026-04-24T12:48:39.496Z</time></trkpt><trkpt lat="49.6985933" lon="3.3097"><ele>70.0</ele><time>2026-04-24T12:48:41.496Z</time></trkpt><trkpt lat="49.6985517" lon="3.3097867"><ele>70.0</ele><time>2026-04-24T12:48:43.496Z</time></trkpt><trkpt lat="49.6984967" lon="3.3099033"><ele>70.0</ele><time>2026-04-24T12:48:46.497Z</time></trkpt><trkpt lat="49.6984583" lon="3.309985"><ele>70.0</ele><time>2026-04-24T12:48:48.496Z</time></trkpt><trkpt lat="49.6984167" lon="3.3100717"><ele>70.0</ele><time>2026-04-24T12:48:50.496Z</time></trkpt><trkpt lat="49.6983767" lon="3.31016"><ele>70.0</ele><time>2026-04-24T12:48:52.496Z</time></trkpt><trkpt lat="49.698335" lon="3.3102533"><ele>70.0</ele><time>2026-04-24T12:48:54.496Z</time></trkpt><trkpt lat="49.69829" lon="3.31035"><ele>70.0</ele><time>2026-04-24T12:48:56.496Z</time></trkpt><trkpt lat="49.6982467" lon="3.3104483"><ele>70.0</ele><time>2026-04-24T12:48:58.498Z</time></trkpt><trkpt lat="49.6982067" lon="3.3105433"><ele>70.0</ele><time>2026-04-24T12:49:00.497Z</time></trkpt><trkpt lat="49.6981633" lon="3.31063"><ele>70.0</ele><time>2026-04-24T12:49:02.496Z</time></trkpt><trkpt lat="49.6981267" lon="3.3107133"><ele>70.0</ele><time>2026-04-24T12:49:04.498Z</time></trkpt><trkpt lat="49.698075" lon="3.3108283"><ele>70.0</ele><time>2026-04-24T12:49:07.497Z</time></trkpt><trkpt lat="49.6980333" lon="3.3109017"><ele>70.0</ele><time>2026-04-24T12:49:09.497Z</time></trkpt><trkpt lat="49.6979867" lon="3.3109717"><ele>70.0</ele><time>2026-04-24T12:49:11.497Z</time></trkpt><trkpt lat="49.6979267" lon="3.3110783"><ele>70.0</ele><time>2026-04-24T12:49:14.497Z</time></trkpt><trkpt lat="49.6978767" lon="3.31119"><ele>70.0</ele><time>2026-04-24T12:49:17.497Z</time></trkpt><trkpt lat="49.6978233" lon="3.3112967"><ele>70.0</ele><time>2026-04-24T12:49:20.498Z</time></trkpt><trkpt lat="49.6977717" lon="3.311385"><ele>70.0</ele><time>2026-04-24T12:49:23.497Z</time></trkpt><trkpt lat="49.6977083" lon="3.3114517"><ele>70.0</ele><time>2026-04-24T12:49:27.496Z</time></trkpt><trkpt lat="49.6976683" lon="3.3115333"><ele>70.0</ele><time>2026-04-24T12:49:32.497Z</time></trkpt><trkpt lat="49.6976283" lon="3.3116183"><ele>70.0</ele><time>2026-04-24T12:49:36.494Z</time></trkpt><trkpt lat="49.6975633" lon="3.3115783"><ele>70.0</ele><time>2026-04-24T12:49:56.496Z</time></trkpt><trkpt lat="49.6975217" lon="3.311485"><ele>70.0</ele><time>2026-04-24T12:49:59.497Z</time></trkpt><trkpt lat="49.697485" lon="3.311405"><ele>70.14285714285714</ele><time>2026-04-24T12:50:01.495Z</time></trkpt><trkpt lat="49.697445" lon="3.31132"><ele>70.28571428571428</ele><time>2026-04-24T12:50:03.496Z</time></trkpt><trkpt lat="49.697405" lon="3.3112367"><ele>70.42857142857143</ele><time>2026-04-24T12:50:05.495Z</time></trkpt><trkpt lat="49.6973633" lon="3.31115"><ele>70.57142857142857</ele><time>2026-04-24T12:50:07.495Z</time></trkpt><trkpt lat="49.6973233" lon="3.3110667"><ele>70.71428571428571</ele><time>2026-04-24T12:50:09.496Z</time></trkpt><trkpt lat="49.6972783" lon="3.310975"><ele>70.85714285714286</ele><time>2026-04-24T12:50:11.495Z</time></trkpt><trkpt lat="49.697235" lon="3.31088"><ele>71.0</ele><time>2026-04-24T12:50:13.495Z</time></trkpt><trkpt lat="49.6971917" lon="3.31079"><ele>71.0</ele><time>2026-04-24T12:50:15.496Z</time></trkpt><trkpt lat="49.697145" lon="3.3106967"><ele>71.0</ele><time>2026-04-24T12:50:17.496Z</time></trkpt><trkpt lat="49.6971033" lon="3.3106083"><ele>71.0</ele><time>2026-04-24T12:50:19.495Z</time></trkpt><trkpt lat="49.6970617" lon="3.3105217"><ele>71.0</ele><time>2026-04-24T12:50:21.497Z</time></trkpt><trkpt lat="49.6970233" lon="3.3104333"><ele>71.0</ele><time>2026-04-24T12:50:23.497Z</time></trkpt><trkpt lat="49.6969867" lon="3.31035"><ele>71.0</ele><time>2026-04-24T12:50:25.496Z</time></trkpt><trkpt lat="49.69695" lon="3.3102683"><ele>71.0</ele><time>2026-04-24T12:50:27.496Z</time></trkpt><trkpt lat="49.696915" lon="3.3101833"><ele>71.14285714285714</ele><time>2026-04-24T12:50:29.496Z</time></trkpt><trkpt lat="49.6968783" lon="3.3101017"><ele>71.28571428571428</ele><time>2026-04-24T12:50:31.495Z</time></trkpt><trkpt lat="49.6968417" lon="3.3100217"><ele>71.42857142857143</ele><time>2026-04-24T12:50:33.496Z</time></trkpt><trkpt lat="49.6968017" lon="3.3099367"><ele>71.57142857142857</ele><time>2026-04-24T12:50:35.496Z</time></trkpt><trkpt lat="49.6967633" lon="3.3098517"><ele>71.71428571428572</ele><time>2026-04-24T12:50:37.496Z</time></trkpt><trkpt lat="49.6967217" lon="3.30976"><ele>71.85714285714286</ele><time>2026-04-24T12:50:39.496Z</time></trkpt><trkpt lat="49.69667" lon="3.309665"><ele>72.0</ele><time>2026-04-24T12:50:41.497Z</time></trkpt><trkpt lat="49.6966233" lon="3.3095617"><ele>72.14285714285715</ele><time>2026-04-24T12:50:43.496Z</time></trkpt><trkpt lat="49.69658" lon="3.3094633"><ele>72.28571428571429</ele><time>2026-04-24T12:50:45.495Z</time></trkpt><trkpt lat="49.6965367" lon="3.3093733"><ele>72.42857142857143</ele><time>2026-04-24T12:50:47.496Z</time></trkpt><trkpt lat="49.696495" lon="3.3092883"><ele>72.57142857142858</ele><time>2026-04-24T12:50:49.496Z</time></trkpt><trkpt lat="49.6964533" lon="3.3092017"><ele>72.71428571428572</ele><time>2026-04-24T12:50:51.497Z</time></trkpt><trkpt lat="49.6964133" lon="3.3091117"><ele>72.85714285714286</ele><time>2026-04-24T12:50:53.497Z</time></trkpt><trkpt lat="49.69637" lon="3.309015"><ele>73.0</ele><time>2026-04-24T12:50:55.497Z</time></trkpt><trkpt lat="49.696325" lon="3.3089133"><ele>73.14285714285714</ele><time>2026-04-24T12:50:57.496Z</time></trkpt><trkpt lat="49.6962817" lon="3.30881"><ele>73.28571428571429</ele><time>2026-04-24T12:50:59.497Z</time></trkpt><trkpt lat="49.6962417" lon="3.308715"><ele>73.42857142857143</ele><time>2026-04-24T12:51:01.496Z</time></trkpt><trkpt lat="49.6962117" lon="3.3086133"><ele>73.57142857142857</ele><time>2026-04-24T12:51:03.497Z</time></trkpt><trkpt lat="49.6961817" lon="3.3085167"><ele>73.71428571428571</ele><time>2026-04-24T12:51:05.497Z</time></trkpt><trkpt lat="49.69615" lon="3.3084183"><ele>73.85714285714286</ele><time>2026-04-24T12:51:07.496Z</time></trkpt><trkpt lat="49.696115" lon="3.3083217"><ele>74.0</ele><time>2026-04-24T12:51:09.496Z</time></trkpt><trkpt lat="49.6960867" lon="3.3082183"><ele>74.66666666666667</ele><time>2026-04-24T12:51:11.495Z</time></trkpt><trkpt lat="49.69605" lon="3.3081183"><ele>75.33333333333334</ele><time>2026-04-24T12:51:13.496Z</time></trkpt><trkpt lat="49.69601" lon="3.308005"><ele>76.0</ele><time>2026-04-24T12:51:15.496Z</time></trkpt><trkpt lat="49.6959717" lon="3.30789"><ele>76.66666666666667</ele><time>2026-04-24T12:51:17.496Z</time></trkpt><trkpt lat="49.6959333" lon="3.3077717"><ele>77.33333333333333</ele><time>2026-04-24T12:51:19.497Z</time></trkpt><trkpt lat="49.69589" lon="3.3076417"><ele>78.0</ele><time>2026-04-24T12:51:21.497Z</time></trkpt><trkpt lat="49.6958433" lon="3.307505"><ele>78.2</ele><time>2026-04-24T12:51:23.498Z</time></trkpt><trkpt lat="49.6957933" lon="3.307365"><ele>78.4</ele><time>2026-04-24T12:51:25.496Z</time></trkpt><trkpt lat="49.6957433" lon="3.3072283"><ele>78.60000000000001</ele><time>2026-04-24T12:51:27.496Z</time></trkpt><trkpt lat="49.695695" lon="3.307095"><ele>78.8</ele><time>2026-04-24T12:51:29.499Z</time></trkpt><trkpt lat="49.6956483" lon="3.30696"><ele>79.0</ele><time>2026-04-24T12:51:31.497Z</time></trkpt><trkpt lat="49.6956017" lon="3.3068617"><ele>79.00000000000001</ele><time>2026-04-24T12:51:33.496Z</time></trkpt><trkpt lat="49.6955783" lon="3.3067517"><ele>79.0</ele><time>2026-04-24T12:51:37.497Z</time></trkpt><trkpt lat="49.6955317" lon="3.30667"><ele>79.0</ele><time>2026-04-24T12:51:44.497Z</time></trkpt><trkpt lat="49.6954967" lon="3.3065817"><ele>79.0</ele><time>2026-04-24T12:51:47.496Z</time></trkpt><trkpt lat="49.6954583" lon="3.3064983"><ele>79.0</ele><time>2026-04-24T12:51:49.498Z</time></trkpt><trkpt lat="49.695425" lon="3.3063983"><ele>79.00000000000001</ele><time>2026-04-24T12:51:51.495Z</time></trkpt><trkpt lat="49.6953883" lon="3.3062733"><ele>79.0</ele><time>2026-04-24T12:51:53.498Z</time></trkpt><trkpt lat="49.6953417" lon="3.3061317"><ele>78.60000000000001</ele><time>2026-04-24T12:51:55.497Z</time></trkpt><trkpt lat="49.6952933" lon="3.3059767"><ele>78.2</ele><time>2026-04-24T12:51:57.499Z</time></trkpt><trkpt lat="49.6952433" lon="3.305815"><ele>77.80000000000001</ele><time>2026-04-24T12:51:59.496Z</time></trkpt><trkpt lat="49.6951917" lon="3.3056617"><ele>77.4</ele><time>2026-04-24T12:52:01.5Z</time></trkpt><trkpt lat="49.6951433" lon="3.3055133"><ele>77.0</ele><time>2026-04-24T12:52:03.496Z</time></trkpt><trkpt lat="49.6950933" lon="3.3053683"><ele>76.2</ele><time>2026-04-24T12:52:05.496Z</time></trkpt><trkpt lat="49.6950433" lon="3.305225"><ele>75.4</ele><time>2026-04-24T12:52:07.495Z</time></trkpt><trkpt lat="49.694995" lon="3.30509"><ele>74.6</ele><time>2026-04-24T12:52:09.495Z</time></trkpt><trkpt lat="49.6949467" lon="3.3049583"><ele>73.8</ele><time>2026-04-24T12:52:11.496Z</time></trkpt><trkpt lat="49.69489" lon="3.30483"><ele>73.0</ele><time>2026-04-24T12:52:13.496Z</time></trkpt><trkpt lat="49.6948283" lon="3.3046967"><ele>73.0</ele><time>2026-04-24T12:52:15.496Z</time></trkpt><trkpt lat="49.6947633" lon="3.3045633"><ele>73.0</ele><time>2026-04-24T12:52:17.495Z</time></trkpt><trkpt lat="49.694695" lon="3.304435"><ele>73.0</ele><time>2026-04-24T12:52:19.496Z</time></trkpt><trkpt lat="49.6946267" lon="3.3043067"><ele>73.0</ele><time>2026-04-24T12:52:21.496Z</time></trkpt><trkpt lat="49.6945617" lon="3.3041817"><ele>73.0</ele><time>2026-04-24T12:52:23.496Z</time></trkpt><trkpt lat="49.6944933" lon="3.3040633"><ele>73.0</ele><time>2026-04-24T12:52:25.498Z</time></trkpt><trkpt lat="49.6944267" lon="3.3039483"><ele>73.0</ele><time>2026-04-24T12:52:27.498Z</time></trkpt><trkpt lat="49.6943617" lon="3.303835"><ele>73.0</ele><time>2026-04-24T12:52:29.496Z</time></trkpt><trkpt lat="49.6942967" lon="3.3037217"><ele>73.0</ele><time>2026-04-24T12:52:31.495Z</time></trkpt><trkpt lat="49.6942283" lon="3.3036083"><ele>73.0</ele><time>2026-04-24T12:52:33.496Z</time></trkpt><trkpt lat="49.6941633" lon="3.3034883"><ele>72.5</ele><time>2026-04-24T12:52:35.496Z</time></trkpt><trkpt lat="49.6940967" lon="3.3033583"><ele>72.0</ele><time>2026-04-24T12:52:37.496Z</time></trkpt><trkpt lat="49.69403" lon="3.30322"><ele>71.5</ele><time>2026-04-24T12:52:39.495Z</time></trkpt><trkpt lat="49.6939667" lon="3.30307"><ele>71.0</ele><time>2026-04-24T12:52:41.497Z</time></trkpt><trkpt lat="49.6939" lon="3.302915"><ele>71.0</ele><time>2026-04-24T12:52:43.496Z</time></trkpt><trkpt lat="49.693835" lon="3.30275"><ele>71.0</ele><time>2026-04-24T12:52:45.497Z</time></trkpt><trkpt lat="49.6938017" lon="3.3026617"><ele>71.0</ele><time>2026-04-24T12:52:46.495Z</time></trkpt><trkpt lat="49.6937667" lon="3.3025717"><ele>71.0</ele><time>2026-04-24T12:52:47.496Z</time></trkpt><trkpt lat="49.69373" lon="3.3024783"><ele>71.0</ele><time>2026-04-24T12:52:48.497Z</time></trkpt><trkpt lat="49.6936933" lon="3.302385"><ele>71.0</ele><time>2026-04-24T12:52:49.497Z</time></trkpt><trkpt lat="49.6936567" lon="3.30229"><ele>71.0</ele><time>2026-04-24T12:52:50.497Z</time></trkpt><trkpt lat="49.69362" lon="3.302195"><ele>71.0</ele><time>2026-04-24T12:52:51.496Z</time></trkpt><trkpt lat="49.6935833" lon="3.3021"><ele>71.0</ele><time>2026-04-24T12:52:52.498Z</time></trkpt><trkpt lat="49.693545" lon="3.302005"><ele>71.0</ele><time>2026-04-24T12:52:53.497Z</time></trkpt><trkpt lat="49.6935067" lon="3.3019083"><ele>71.0</ele><time>2026-04-24T12:52:54.498Z</time></trkpt><trkpt lat="49.6934683" lon="3.3018133"><ele>71.0</ele><time>2026-04-24T12:52:55.497Z</time></trkpt><trkpt lat="49.6934283" lon="3.30172"><ele>71.0</ele><time>2026-04-24T12:52:56.496Z</time></trkpt><trkpt lat="49.6933883" lon="3.3016267"><ele>70.57142857142857</ele><time>2026-04-24T12:52:57.497Z</time></trkpt><trkpt lat="49.6933483" lon="3.3015333"><ele>70.14285714285714</ele><time>2026-04-24T12:52:58.497Z</time></trkpt><trkpt lat="49.6933117" lon="3.3014417"><ele>69.71428571428571</ele><time>2026-04-24T12:52:59.496Z</time></trkpt><trkpt lat="49.6932717" lon="3.3013483"><ele>69.28571428571428</ele><time>2026-04-24T12:53:00.497Z</time></trkpt><trkpt lat="49.6932317" lon="3.301255"><ele>68.85714285714286</ele><time>2026-04-24T12:53:01.496Z</time></trkpt><trkpt lat="49.6931917" lon="3.30116"><ele>68.42857142857142</ele><time>2026-04-24T12:53:02.497Z</time></trkpt><trkpt lat="49.6931517" lon="3.3010633"><ele>68.0</ele><time>2026-04-24T12:53:03.497Z</time></trkpt><trkpt lat="49.6931117" lon="3.300965"><ele>67.83333333333334</ele><time>2026-04-24T12:53:04.496Z</time></trkpt><trkpt lat="49.6930717" lon="3.3008683"><ele>67.66666666666667</ele><time>2026-04-24T12:53:05.497Z</time></trkpt><trkpt lat="49.6930333" lon="3.3007717"><ele>67.5</ele><time>2026-04-24T12:53:06.497Z</time></trkpt><trkpt lat="49.6929933" lon="3.30068"><ele>67.33333333333333</ele><time>2026-04-24T12:53:07.497Z</time></trkpt><trkpt lat="49.69295" lon="3.3005833"><ele>67.16666666666666</ele><time>2026-04-24T12:53:08.498Z</time></trkpt><trkpt lat="49.6929067" lon="3.3004867"><ele>67.0</ele><time>2026-04-24T12:53:09.496Z</time></trkpt><trkpt lat="49.6928617" lon="3.3003867"><ele>66.83333333333333</ele><time>2026-04-24T12:53:10.497Z</time></trkpt><trkpt lat="49.6928167" lon="3.3002867"><ele>66.66666666666666</ele><time>2026-04-24T12:53:11.498Z</time></trkpt><trkpt lat="49.6927733" lon="3.30019"><ele>66.5</ele><time>2026-04-24T12:53:12.496Z</time></trkpt><trkpt lat="49.6927317" lon="3.3000983"><ele>66.33333333333333</ele><time>2026-04-24T12:53:13.496Z</time></trkpt><trkpt lat="49.6926883" lon="3.3000033"><ele>66.16666666666667</ele><time>2026-04-24T12:53:14.496Z</time></trkpt><trkpt lat="49.6926467" lon="3.2999067"><ele>66.0</ele><time>2026-04-24T12:53:15.497Z</time></trkpt><trkpt lat="49.692605" lon="3.2998117"><ele>65.71428571428571</ele><time>2026-04-24T12:53:16.496Z</time></trkpt><trkpt lat="49.6925617" lon="3.2997133"><ele>65.42857142857143</ele><time>2026-04-24T12:53:17.496Z</time></trkpt><trkpt lat="49.69252" lon="3.2996183"><ele>65.14285714285714</ele><time>2026-04-24T12:53:18.497Z</time></trkpt><trkpt lat="49.6924767" lon="3.29952"><ele>64.85714285714286</ele><time>2026-04-24T12:53:19.496Z</time></trkpt><trkpt lat="49.6924317" lon="3.2994267"><ele>64.57142857142857</ele><time>2026-04-24T12:53:20.496Z</time></trkpt><trkpt lat="49.6923917" lon="3.2993367"><ele>64.28571428571428</ele><time>2026-04-24T12:53:21.496Z</time></trkpt><trkpt lat="49.6923467" lon="3.2992467"><ele>64.0</ele><time>2026-04-24T12:53:22.497Z</time></trkpt><trkpt lat="49.692305" lon="3.299155"><ele>64.0</ele><time>2026-04-24T12:53:23.498Z</time></trkpt><trkpt lat="49.6922617" lon="3.2990617"><ele>63.99999999999999</ele><time>2026-04-24T12:53:24.496Z</time></trkpt><trkpt lat="49.69222" lon="3.29897"><ele>64.0</ele><time>2026-04-24T12:53:25.497Z</time></trkpt><trkpt lat="49.6921783" lon="3.2988767"><ele>64.0</ele><time>2026-04-24T12:53:26.497Z</time></trkpt><trkpt lat="49.6921333" lon="3.2987833"><ele>63.99999999999999</ele><time>2026-04-24T12:53:27.496Z</time></trkpt><trkpt lat="49.69209" lon="3.2986867"><ele>64.0</ele><time>2026-04-24T12:53:28.496Z</time></trkpt><trkpt lat="49.692045" lon="3.2985917"><ele>64.0</ele><time>2026-04-24T12:53:29.497Z</time></trkpt><trkpt lat="49.6919967" lon="3.2984967"><ele>63.83333333333333</ele><time>2026-04-24T12:53:30.496Z</time></trkpt><trkpt lat="49.6919467" lon="3.2984017"><ele>63.666666666666664</ele><time>2026-04-24T12:53:31.497Z</time></trkpt><trkpt lat="49.6918983" lon="3.29831"><ele>63.5</ele><time>2026-04-24T12:53:32.496Z</time></trkpt><trkpt lat="49.6918517" lon="3.29822"><ele>63.33333333333333</ele><time>2026-04-24T12:53:33.496Z</time></trkpt><trkpt lat="49.6918017" lon="3.2981333"><ele>63.166666666666664</ele><time>2026-04-24T12:53:34.497Z</time></trkpt><trkpt lat="49.6917517" lon="3.2980467"><ele>63.0</ele><time>2026-04-24T12:53:35.496Z</time></trkpt><trkpt lat="49.6917067" lon="3.297955"><ele>62.714285714285715</ele><time>2026-04-24T12:53:36.495Z</time></trkpt><trkpt lat="49.69166" lon="3.2978633"><ele>62.42857142857143</ele><time>2026-04-24T12:53:37.496Z</time></trkpt><trkpt lat="49.6916117" lon="3.2977733"><ele>62.14285714285714</ele><time>2026-04-24T12:53:38.498Z</time></trkpt><trkpt lat="49.691565" lon="3.297685"><ele>61.857142857142854</ele><time>2026-04-24T12:53:39.496Z</time></trkpt><trkpt lat="49.6915217" lon="3.2975983"><ele>61.57142857142857</ele><time>2026-04-24T12:53:40.497Z</time></trkpt><trkpt lat="49.6914767" lon="3.2975117"><ele>61.28571428571428</ele><time>2026-04-24T12:53:41.496Z</time></trkpt><trkpt lat="49.69143" lon="3.29743"><ele>60.99999999999999</ele><time>2026-04-24T12:53:42.497Z</time></trkpt><trkpt lat="49.6913833" lon="3.2973483"><ele>60.99999999999999</ele><time>2026-04-24T12:53:43.496Z</time></trkpt><trkpt lat="49.6913383" lon="3.2972683"><ele>61.0</ele><time>2026-04-24T12:53:44.496Z</time></trkpt><trkpt lat="49.6912917" lon="3.2971883"><ele>60.99999999999999</ele><time>2026-04-24T12:53:45.497Z</time></trkpt><trkpt lat="49.6912433" lon="3.2971067"><ele>60.99999999999999</ele><time>2026-04-24T12:53:46.496Z</time></trkpt><trkpt lat="49.6911983" lon="3.297025"><ele>61.0</ele><time>2026-04-24T12:53:47.498Z</time></trkpt><trkpt lat="49.691155" lon="3.2969433"><ele>60.99999999999999</ele><time>2026-04-24T12:53:48.497Z</time></trkpt><trkpt lat="49.6911117" lon="3.2968633"><ele>60.99999999999999</ele><time>2026-04-24T12:53:49.496Z</time></trkpt><trkpt lat="49.69107" lon="3.296785"><ele>60.99999999999999</ele><time>2026-04-24T12:53:50.497Z</time></trkpt><trkpt lat="49.6910283" lon="3.2967067"><ele>61.0</ele><time>2026-04-24T12:53:51.497Z</time></trkpt><trkpt lat="49.6909883" lon="3.2966283"><ele>61.0</ele><time>2026-04-24T12:53:52.496Z</time></trkpt><trkpt lat="49.6909483" lon="3.29655"><ele>61.0</ele><time>2026-04-24T12:53:53.498Z</time></trkpt><trkpt lat="49.6909067" lon="3.2964767"><ele>60.99999999999999</ele><time>2026-04-24T12:53:54.497Z</time></trkpt><trkpt lat="49.690825" lon="3.2963267"><ele>61.0</ele><time>2026-04-24T12:53:56.496Z</time></trkpt><trkpt lat="49.6907467" lon="3.2961733"><ele>61.0</ele><time>2026-04-24T12:53:58.496Z</time></trkpt><trkpt lat="49.6906717" lon="3.29603"><ele>61.0</ele><time>2026-04-24T12:54:00.496Z</time></trkpt><trkpt lat="49.6906" lon="3.2958867"><ele>61.0</ele><time>2026-04-24T12:54:02.497Z</time></trkpt><trkpt lat="49.6905333" lon="3.2957483"><ele>61.0</ele><time>2026-04-24T12:54:04.497Z</time></trkpt><trkpt lat="49.6904533" lon="3.2956167"><ele>60.599999999999994</ele><time>2026-04-24T12:54:06.497Z</time></trkpt><trkpt lat="49.690385" lon="3.29548"><ele>60.199999999999996</ele><time>2026-04-24T12:54:08.496Z</time></trkpt><trkpt lat="49.6903133" lon="3.2953433"><ele>59.800000000000004</ele><time>2026-04-24T12:54:10.496Z</time></trkpt><trkpt lat="49.6902317" lon="3.2952233"><ele>59.400000000000006</ele><time>2026-04-24T12:54:12.497Z</time></trkpt><trkpt lat="49.6901467" lon="3.295115"><ele>59.0</ele><time>2026-04-24T12:54:14.497Z</time></trkpt><trkpt lat="49.6900817" lon="3.2949833"><ele>58.833333333333336</ele><time>2026-04-24T12:54:16.495Z</time></trkpt><trkpt lat="49.6900167" lon="3.294845"><ele>58.66666666666667</ele><time>2026-04-24T12:54:18.497Z</time></trkpt><trkpt lat="49.6899567" lon="3.2947317"><ele>58.5</ele><time>2026-04-24T12:54:20.497Z</time></trkpt><trkpt lat="49.68991" lon="3.2946517"><ele>58.33333333333333</ele><time>2026-04-24T12:54:22.496Z</time></trkpt><trkpt lat="49.68984" lon="3.2946483"><ele>58.166666666666664</ele><time>2026-04-24T12:54:40.496Z</time></trkpt><trkpt lat="49.6897883" lon="3.2947817"><ele>58.0</ele><time>2026-04-24T12:54:43.496Z</time></trkpt><trkpt lat="49.6897483" lon="3.2948933"><ele>58.0</ele><time>2026-04-24T12:54:45.496Z</time></trkpt><trkpt lat="49.689705" lon="3.2950217"><ele>58.0</ele><time>2026-04-24T12:54:47.495Z</time></trkpt><trkpt lat="49.6896617" lon="3.2951517"><ele>58.0</ele><time>2026-04-24T12:54:49.496Z</time></trkpt><trkpt lat="49.68962" lon="3.295275"><ele>58.0</ele><time>2026-04-24T12:54:51.496Z</time></trkpt><trkpt lat="49.6895733" lon="3.2954"><ele>58.0</ele><time>2026-04-24T12:54:53.496Z</time></trkpt><trkpt lat="49.6895217" lon="3.295515"><ele>58.4</ele><time>2026-04-24T12:54:55.495Z</time></trkpt><trkpt lat="49.68946" lon="3.2956367"><ele>58.8</ele><time>2026-04-24T12:54:57.495Z</time></trkpt><trkpt lat="49.68939" lon="3.295765"><ele>59.2</ele><time>2026-04-24T12:54:59.496Z</time></trkpt><trkpt lat="49.6893183" lon="3.2958767"><ele>59.6</ele><time>2026-04-24T12:55:01.495Z</time></trkpt><trkpt lat="49.689245" lon="3.2959717"><ele>60.0</ele><time>2026-04-24T12:55:03.496Z</time></trkpt><trkpt lat="49.689175" lon="3.2960783"><ele>60.0</ele><time>2026-04-24T12:55:05.496Z</time></trkpt><trkpt lat="49.689105" lon="3.2961833"><ele>60.0</ele><time>2026-04-24T12:55:07.497Z</time></trkpt><trkpt lat="49.6890367" lon="3.2962867"><ele>60.0</ele><time>2026-04-24T12:55:09.496Z</time></trkpt><trkpt lat="49.6889633" lon="3.2963867"><ele>60.0</ele><time>2026-04-24T12:55:11.496Z</time></trkpt><trkpt lat="49.6888833" lon="3.2964967"><ele>60.0</ele><time>2026-04-24T12:55:13.496Z</time></trkpt><trkpt lat="49.6887983" lon="3.2966167"><ele>60.2</ele><time>2026-04-24T12:55:15.498Z</time></trkpt><trkpt lat="49.6887183" lon="3.2967417"><ele>60.4</ele><time>2026-04-24T12:55:17.494Z</time></trkpt><trkpt lat="49.688635" lon="3.2968583"><ele>60.599999999999994</ele><time>2026-04-24T12:55:19.496Z</time></trkpt><trkpt lat="49.6885533" lon="3.2969567"><ele>60.8</ele><time>2026-04-24T12:55:21.497Z</time></trkpt><trkpt lat="49.6884667" lon="3.2970517"><ele>61.0</ele><time>2026-04-24T12:55:23.497Z</time></trkpt><trkpt lat="49.6883767" lon="3.2971417"><ele>60.599999999999994</ele><time>2026-04-24T12:55:25.495Z</time></trkpt><trkpt lat="49.6882833" lon="3.2972367"><ele>60.199999999999996</ele><time>2026-04-24T12:55:27.496Z</time></trkpt><trkpt lat="49.68819" lon="3.29732"><ele>59.800000000000004</ele><time>2026-04-24T12:55:29.495Z</time></trkpt><trkpt lat="49.6881033" lon="3.2974033"><ele>59.400000000000006</ele><time>2026-04-24T12:55:31.495Z</time></trkpt><trkpt lat="49.6880083" lon="3.297485"><ele>59.0</ele><time>2026-04-24T12:55:33.496Z</time></trkpt><trkpt lat="49.6879133" lon="3.29757"><ele>58.75</ele><time>2026-04-24T12:55:35.497Z</time></trkpt><trkpt lat="49.687815" lon="3.2976633"><ele>58.5</ele><time>2026-04-24T12:55:37.495Z</time></trkpt><trkpt lat="49.687715" lon="3.2977617"><ele>58.25</ele><time>2026-04-24T12:55:39.495Z</time></trkpt><trkpt lat="49.6876133" lon="3.297855"><ele>58.0</ele><time>2026-04-24T12:55:41.498Z</time></trkpt><trkpt lat="49.6875183" lon="3.2979417"><ele>58.4</ele><time>2026-04-24T12:55:43.496Z</time></trkpt><trkpt lat="49.6874317" lon="3.2980233"><ele>58.8</ele><time>2026-04-24T12:55:45.497Z</time></trkpt><trkpt lat="49.6873483" lon="3.2981067"><ele>59.2</ele><time>2026-04-24T12:55:47.495Z</time></trkpt><trkpt lat="49.68726" lon="3.2981833"><ele>59.6</ele><time>2026-04-24T12:55:49.497Z</time></trkpt><trkpt lat="49.6871683" lon="3.2982683"><ele>60.0</ele><time>2026-04-24T12:55:51.495Z</time></trkpt><trkpt lat="49.6870733" lon="3.2983533"><ele>60.0</ele><time>2026-04-24T12:55:53.495Z</time></trkpt><trkpt lat="49.6869783" lon="3.298435"><ele>60.0</ele><time>2026-04-24T12:55:55.497Z</time></trkpt><trkpt lat="49.6868867" lon="3.2985183"><ele>60.0</ele><time>2026-04-24T12:55:57.495Z</time></trkpt><trkpt lat="49.68679" lon="3.2986"><ele>60.0</ele><time>2026-04-24T12:55:59.497Z</time></trkpt><trkpt lat="49.686695" lon="3.2986783"><ele>60.0</ele><time>2026-04-24T12:56:01.5Z</time></trkpt><trkpt lat="49.6866033" lon="3.298755"><ele>60.4</ele><time>2026-04-24T12:56:03.497Z</time></trkpt><trkpt lat="49.6865167" lon="3.29884"><ele>60.8</ele><time>2026-04-24T12:56:05.498Z</time></trkpt><trkpt lat="49.6864367" lon="3.298925"><ele>61.2</ele><time>2026-04-24T12:56:07.496Z</time></trkpt><trkpt lat="49.6863583" lon="3.2990033"><ele>61.6</ele><time>2026-04-24T12:56:09.496Z</time></trkpt><trkpt lat="49.6862917" lon="3.2990717"><ele>62.0</ele><time>2026-04-24T12:56:11.497Z</time></trkpt><trkpt lat="49.6862317" lon="3.2991483"><ele>62.00000000000001</ele><time>2026-04-24T12:56:13.499Z</time></trkpt><trkpt lat="49.6861733" lon="3.29923"><ele>62.0</ele><time>2026-04-24T12:56:15.496Z</time></trkpt><trkpt lat="49.6861133" lon="3.299305"><ele>62.0</ele><time>2026-04-24T12:56:17.496Z</time></trkpt><trkpt lat="49.6860567" lon="3.2993883"><ele>62.0</ele><time>2026-04-24T12:56:19.497Z</time></trkpt><trkpt lat="49.6860067" lon="3.2994767"><ele>62.00000000000001</ele><time>2026-04-24T12:56:21.498Z</time></trkpt><trkpt lat="49.685955" lon="3.2995633"><ele>62.0</ele><time>2026-04-24T12:56:23.497Z</time></trkpt><trkpt lat="49.6859083" lon="3.2996583"><ele>62.833333333333336</ele><time>2026-04-24T12:56:25.496Z</time></trkpt><trkpt lat="49.6858633" lon="3.2997633"><ele>63.66666666666667</ele><time>2026-04-24T12:56:27.495Z</time></trkpt><trkpt lat="49.68581" lon="3.299865"><ele>64.5</ele><time>2026-04-24T12:56:29.497Z</time></trkpt><trkpt lat="49.685755" lon="3.2999717"><ele>65.33333333333333</ele><time>2026-04-24T12:56:31.496Z</time></trkpt><trkpt lat="49.6856983" lon="3.30009"><ele>66.16666666666666</ele><time>2026-04-24T12:56:33.498Z</time></trkpt><trkpt lat="49.6856417" lon="3.300195"><ele>67.0</ele><time>2026-04-24T12:56:35.497Z</time></trkpt><trkpt lat="49.6855817" lon="3.3003"><ele>67.0</ele><time>2026-04-24T12:56:37.495Z</time></trkpt><trkpt lat="49.6855217" lon="3.3004067"><ele>67.0</ele><time>2026-04-24T12:56:39.496Z</time></trkpt><trkpt lat="49.685465" lon="3.3005133"><ele>67.0</ele><time>2026-04-24T12:56:41.498Z</time></trkpt><trkpt lat="49.6854067" lon="3.3006183"><ele>67.0</ele><time>2026-04-24T12:56:43.497Z</time></trkpt><trkpt lat="49.6853483" lon="3.3007033"><ele>67.0</ele><time>2026-04-24T12:56:45.497Z</time></trkpt><trkpt lat="49.6852917" lon="3.3008067"><ele>67.0</ele><time>2026-04-24T12:56:47.497Z</time></trkpt><trkpt lat="49.6852367" lon="3.3009033"><ele>68.33333333333333</ele><time>2026-04-24T12:56:49.497Z</time></trkpt><trkpt lat="49.6851833" lon="3.3010133"><ele>69.66666666666666</ele><time>2026-04-24T12:56:51.496Z</time></trkpt><trkpt lat="49.6851317" lon="3.30112"><ele>71.0</ele><time>2026-04-24T12:56:53.496Z</time></trkpt><trkpt lat="49.6850817" lon="3.30124"><ele>72.33333333333333</ele><time>2026-04-24T12:56:55.496Z</time></trkpt><trkpt lat="49.68503" lon="3.3013383"><ele>73.66666666666667</ele><time>2026-04-24T12:56:57.496Z</time></trkpt><trkpt lat="49.6849733" lon="3.30144"><ele>75.0</ele><time>2026-04-24T12:56:59.497Z</time></trkpt><trkpt lat="49.6849183" lon="3.3015333"><ele>75.0</ele><time>2026-04-24T12:57:01.497Z</time></trkpt><trkpt lat="49.6848617" lon="3.3016233"><ele>75.0</ele><time>2026-04-24T12:57:03.497Z</time></trkpt><trkpt lat="49.6848017" lon="3.301715"><ele>75.0</ele><time>2026-04-24T12:57:05.497Z</time></trkpt><trkpt lat="49.68474" lon="3.3018183"><ele>75.0</ele><time>2026-04-24T12:57:07.497Z</time></trkpt><trkpt lat="49.6846783" lon="3.3019217"><ele>75.0</ele><time>2026-04-24T12:57:09.497Z</time></trkpt><trkpt lat="49.684615" lon="3.30204"><ele>75.0</ele><time>2026-04-24T12:57:11.497Z</time></trkpt><trkpt lat="49.6845483" lon="3.3021617"><ele>74.8</ele><time>2026-04-24T12:57:13.496Z</time></trkpt><trkpt lat="49.6844783" lon="3.302285"><ele>74.6</ele><time>2026-04-24T12:57:15.496Z</time></trkpt><trkpt lat="49.6844083" lon="3.3024267"><ele>74.4</ele><time>2026-04-24T12:57:17.495Z</time></trkpt><trkpt lat="49.6843383" lon="3.3025583"><ele>74.2</ele><time>2026-04-24T12:57:19.496Z</time></trkpt><trkpt lat="49.6842667" lon="3.3026867"><ele>74.0</ele><time>2026-04-24T12:57:21.496Z</time></trkpt><trkpt lat="49.68419" lon="3.302815"><ele>74.60000000000001</ele><time>2026-04-24T12:57:23.497Z</time></trkpt><trkpt lat="49.6841167" lon="3.302935"><ele>75.2</ele><time>2026-04-24T12:57:25.496Z</time></trkpt><trkpt lat="49.6840367" lon="3.3030633"><ele>75.80000000000001</ele><time>2026-04-24T12:57:27.495Z</time></trkpt><trkpt lat="49.68396" lon="3.303195"><ele>76.4</ele><time>2026-04-24T12:57:29.495Z</time></trkpt><trkpt lat="49.683885" lon="3.30331"><ele>77.0</ele><time>2026-04-24T12:57:31.495Z</time></trkpt><trkpt lat="49.6838083" lon="3.3034183"><ele>77.0</ele><time>2026-04-24T12:57:33.495Z</time></trkpt><trkpt lat="49.683725" lon="3.3035167"><ele>77.0</ele><time>2026-04-24T12:57:35.495Z</time></trkpt><trkpt lat="49.68363" lon="3.3036133"><ele>77.0</ele><time>2026-04-24T12:57:37.496Z</time></trkpt><trkpt lat="49.6835333" lon="3.3037167"><ele>77.0</ele><time>2026-04-24T12:57:39.495Z</time></trkpt><trkpt lat="49.683425" lon="3.303805"><ele>76.83333333333334</ele><time>2026-04-24T12:57:41.495Z</time></trkpt><trkpt lat="49.6833683" lon="3.3038483"><ele>76.66666666666667</ele><time>2026-04-24T12:57:42.495Z</time></trkpt><trkpt lat="49.6832517" lon="3.30392"><ele>76.5</ele><time>2026-04-24T12:57:44.496Z</time></trkpt><trkpt lat="49.6831317" lon="3.3039733"><ele>76.33333333333333</ele><time>2026-04-24T12:57:46.496Z</time></trkpt><trkpt lat="49.6830683" lon="3.3039967"><ele>76.16666666666666</ele><time>2026-04-24T12:57:47.496Z</time></trkpt><trkpt lat="49.6830067" lon="3.3040183"><ele>76.0</ele><time>2026-04-24T12:57:48.495Z</time></trkpt><trkpt lat="49.6829433" lon="3.30404"><ele>76.0</ele><time>2026-04-24T12:57:49.496Z</time></trkpt><trkpt lat="49.6828817" lon="3.304065"><ele>76.0</ele><time>2026-04-24T12:57:50.497Z</time></trkpt><trkpt lat="49.6828183" lon="3.3040867"><ele>76.0</ele><time>2026-04-24T12:57:51.495Z</time></trkpt><trkpt lat="49.682755" lon="3.3041133"><ele>76.0</ele><time>2026-04-24T12:57:52.496Z</time></trkpt><trkpt lat="49.68269" lon="3.3041383"><ele>76.0</ele><time>2026-04-24T12:57:53.496Z</time></trkpt><trkpt lat="49.6826233" lon="3.3041617"><ele>76.0</ele><time>2026-04-24T12:57:54.495Z</time></trkpt><trkpt lat="49.68256" lon="3.304185"><ele>76.0</ele><time>2026-04-24T12:57:55.495Z</time></trkpt><trkpt lat="49.682495" lon="3.3042133"><ele>75.42857142857143</ele><time>2026-04-24T12:57:56.496Z</time></trkpt><trkpt lat="49.6824267" lon="3.30424"><ele>74.85714285714286</ele><time>2026-04-24T12:57:57.495Z</time></trkpt><trkpt lat="49.68236" lon="3.3042633"><ele>74.28571428571429</ele><time>2026-04-24T12:57:58.495Z</time></trkpt><trkpt lat="49.6822917" lon="3.304285"><ele>73.71428571428572</ele><time>2026-04-24T12:57:59.495Z</time></trkpt><trkpt lat="49.682225" lon="3.3043067"><ele>73.14285714285714</ele><time>2026-04-24T12:58:00.497Z</time></trkpt><trkpt lat="49.6821567" lon="3.30433"><ele>72.57142857142858</ele><time>2026-04-24T12:58:01.496Z</time></trkpt><trkpt lat="49.68209" lon="3.3043533"><ele>72.0</ele><time>2026-04-24T12:58:02.496Z</time></trkpt><trkpt lat="49.6820233" lon="3.3043783"><ele>72.00000000000001</ele><time>2026-04-24T12:58:03.497Z</time></trkpt><trkpt lat="49.681955" lon="3.304405"><ele>72.0</ele><time>2026-04-24T12:58:04.496Z</time></trkpt><trkpt lat="49.68189" lon="3.30443"><ele>72.0</ele><time>2026-04-24T12:58:05.496Z</time></trkpt><trkpt lat="49.6818267" lon="3.3044517"><ele>72.0</ele><time>2026-04-24T12:58:06.496Z</time></trkpt><trkpt lat="49.681765" lon="3.304475"><ele>72.0</ele><time>2026-04-24T12:58:07.496Z</time></trkpt><trkpt lat="49.6817033" lon="3.3044983"><ele>72.00000000000001</ele><time>2026-04-24T12:58:08.497Z</time></trkpt><trkpt lat="49.68159" lon="3.3045433"><ele>72.0</ele><time>2026-04-24T12:58:10.496Z</time></trkpt><trkpt lat="49.6814833" lon="3.304585"><ele>71.8</ele><time>2026-04-24T12:58:12.496Z</time></trkpt><trkpt lat="49.6813783" lon="3.30462"><ele>71.6</ele><time>2026-04-24T12:58:14.496Z</time></trkpt><trkpt lat="49.6812733" lon="3.3046567"><ele>71.39999999999999</ele><time>2026-04-24T12:58:16.495Z</time></trkpt><trkpt lat="49.68117" lon="3.3046967"><ele>71.2</ele><time>2026-04-24T12:58:18.496Z</time></trkpt><trkpt lat="49.6810683" lon="3.30475"><ele>71.0</ele><time>2026-04-24T12:58:20.501Z</time></trkpt><trkpt lat="49.680965" lon="3.3048067"><ele>71.5</ele><time>2026-04-24T12:58:22.496Z</time></trkpt><trkpt lat="49.6808567" lon="3.3048667"><ele>72.0</ele><time>2026-04-24T12:58:24.496Z</time></trkpt><trkpt lat="49.6807517" lon="3.304945"><ele>72.5</ele><time>2026-04-24T12:58:26.496Z</time></trkpt><trkpt lat="49.6806533" lon="3.305035"><ele>73.0</ele><time>2026-04-24T12:58:28.495Z</time></trkpt><trkpt lat="49.6805567" lon="3.30513"><ele>73.0</ele><time>2026-04-24T12:58:30.496Z</time></trkpt><trkpt lat="49.68047" lon="3.30523"><ele>73.0</ele><time>2026-04-24T12:58:32.497Z</time></trkpt><trkpt lat="49.6803917" lon="3.3053283"><ele>73.0</ele><time>2026-04-24T12:58:34.496Z</time></trkpt><trkpt lat="49.6803083" lon="3.3054233"><ele>73.0</ele><time>2026-04-24T12:58:36.495Z</time></trkpt><trkpt lat="49.6802283" lon="3.30554"><ele>73.0</ele><time>2026-04-24T12:58:38.496Z</time></trkpt><trkpt lat="49.6801433" lon="3.3056617"><ele>73.0</ele><time>2026-04-24T12:58:40.496Z</time></trkpt><trkpt lat="49.6800583" lon="3.3057817"><ele>73.0</ele><time>2026-04-24T12:58:42.496Z</time></trkpt><trkpt lat="49.6799717" lon="3.3059017"><ele>73.0</ele><time>2026-04-24T12:58:44.496Z</time></trkpt><trkpt lat="49.6798867" lon="3.3060233"><ele>73.0</ele><time>2026-04-24T12:58:46.497Z</time></trkpt><trkpt lat="49.6797983" lon="3.306145"><ele>73.0</ele><time>2026-04-24T12:58:48.497Z</time></trkpt><trkpt lat="49.679715" lon="3.306265"><ele>73.0</ele><time>2026-04-24T12:58:50.498Z</time></trkpt><trkpt lat="49.679635" lon="3.306375"><ele>73.0</ele><time>2026-04-24T12:58:52.496Z</time></trkpt><trkpt lat="49.6795633" lon="3.3064717"><ele>73.0</ele><time>2026-04-24T12:58:54.496Z</time></trkpt><trkpt lat="49.679495" lon="3.3065567"><ele>73.0</ele><time>2026-04-24T12:58:56.496Z</time></trkpt><trkpt lat="49.6794217" lon="3.306655"><ele>73.2</ele><time>2026-04-24T12:58:58.496Z</time></trkpt><trkpt lat="49.67935" lon="3.30676"><ele>73.4</ele><time>2026-04-24T12:59:00.496Z</time></trkpt><trkpt lat="49.6792783" lon="3.3068433"><ele>73.60000000000001</ele><time>2026-04-24T12:59:02.497Z</time></trkpt><trkpt lat="49.6792067" lon="3.3069317"><ele>73.8</ele><time>2026-04-24T12:59:04.496Z</time></trkpt><trkpt lat="49.6791433" lon="3.3070383"><ele>74.0</ele><time>2026-04-24T12:59:06.495Z</time></trkpt><trkpt lat="49.6790667" lon="3.3071317"><ele>74.0</ele><time>2026-04-24T12:59:08.497Z</time></trkpt><trkpt lat="49.6789733" lon="3.30722"><ele>74.0</ele><time>2026-04-24T12:59:10.496Z</time></trkpt><trkpt lat="49.6788767" lon="3.30729"><ele>74.0</ele><time>2026-04-24T12:59:12.496Z</time></trkpt><trkpt lat="49.6788233" lon="3.3074083"><ele>74.0</ele><time>2026-04-24T12:59:14.497Z</time></trkpt><trkpt lat="49.6788383" lon="3.3075533"><ele>74.0</ele><time>2026-04-24T12:59:16.495Z</time></trkpt><trkpt lat="49.6788833" lon="3.307695"><ele>74.0</ele><time>2026-04-24T12:59:18.496Z</time></trkpt><trkpt lat="49.6789533" lon="3.3078233"><ele>74.0</ele><time>2026-04-24T12:59:20.497Z</time></trkpt><trkpt lat="49.6790283" lon="3.3079417"><ele>74.0</ele><time>2026-04-24T12:59:22.499Z</time></trkpt><trkpt lat="49.6791033" lon="3.3080583"><ele>74.0</ele><time>2026-04-24T12:59:24.498Z</time></trkpt><trkpt lat="49.67918" lon="3.3081683"><ele>74.0</ele><time>2026-04-24T12:59:26.497Z</time></trkpt><trkpt lat="49.67925" lon="3.30828"><ele>74.0</ele><time>2026-04-24T12:59:28.497Z</time></trkpt><trkpt lat="49.6793217" lon="3.3083917"><ele>74.0</ele><time>2026-04-24T12:59:30.496Z</time></trkpt><trkpt lat="49.6793917" lon="3.308495"><ele>74.0</ele><time>2026-04-24T12:59:32.498Z</time></trkpt><trkpt lat="49.6794633" lon="3.30859"><ele>74.0</ele><time>2026-04-24T12:59:34.496Z</time></trkpt><trkpt lat="49.67954" lon="3.3086783"><ele>74.0</ele><time>2026-04-24T12:59:36.495Z</time></trkpt><trkpt lat="49.6796183" lon="3.308765"><ele>74.0</ele><time>2026-04-24T12:59:38.497Z</time></trkpt><trkpt lat="49.6797033" lon="3.3088467"><ele>74.0</ele><time>2026-04-24T12:59:40.496Z</time></trkpt><trkpt lat="49.6797967" lon="3.3089217"><ele>74.0</ele><time>2026-04-24T12:59:42.497Z</time></trkpt><trkpt lat="49.679895" lon="3.30899"><ele>74.0</ele><time>2026-04-24T12:59:44.495Z</time></trkpt><trkpt lat="49.68" lon="3.3090583"><ele>74.0</ele><time>2026-04-24T12:59:46.496Z</time></trkpt><trkpt lat="49.6801067" lon="3.309135"><ele>74.0</ele><time>2026-04-24T12:59:48.495Z</time></trkpt><trkpt lat="49.6801783" lon="3.30926"><ele>74.0</ele><time>2026-04-24T12:59:50.495Z</time></trkpt><trkpt lat="49.680185" lon="3.30942"><ele>74.0</ele><time>2026-04-24T12:59:52.499Z</time></trkpt><trkpt lat="49.6801433" lon="3.3095767"><ele>74.0</ele><time>2026-04-24T12:59:54.495Z</time></trkpt><trkpt lat="49.6800867" lon="3.3097383"><ele>74.0</ele><time>2026-04-24T12:59:56.495Z</time></trkpt><trkpt lat="49.680025" lon="3.30991"><ele>73.83333333333334</ele><time>2026-04-24T12:59:58.497Z</time></trkpt><trkpt lat="49.6799933" lon="3.3099983"><ele>73.66666666666667</ele><time>2026-04-24T12:59:59.495Z</time></trkpt><trkpt lat="49.67996" lon="3.3100833"><ele>73.5</ele><time>2026-04-24T13:00:00.497Z</time></trkpt><trkpt lat="49.6799283" lon="3.3101683"><ele>73.33333333333333</ele><time>2026-04-24T13:00:01.498Z</time></trkpt><trkpt lat="49.679895" lon="3.3102533"><ele>73.16666666666666</ele><time>2026-04-24T13:00:02.496Z</time></trkpt><trkpt lat="49.6798317" lon="3.3104233"><ele>73.0</ele><time>2026-04-24T13:00:04.496Z</time></trkpt><trkpt lat="49.67977" lon="3.3105883"><ele>73.0</ele><time>2026-04-24T13:00:06.497Z</time></trkpt><trkpt lat="49.6797067" lon="3.3107533"><ele>73.0</ele><time>2026-04-24T13:00:08.496Z</time></trkpt><trkpt lat="49.6796417" lon="3.3109183"><ele>73.0</ele><time>2026-04-24T13:00:10.497Z</time></trkpt><trkpt lat="49.6795817" lon="3.3110833"><ele>73.0</ele><time>2026-04-24T13:00:12.497Z</time></trkpt><trkpt lat="49.6795183" lon="3.3112433"><ele>73.0</ele><time>2026-04-24T13:00:14.497Z</time></trkpt><trkpt lat="49.6794567" lon="3.3114083"><ele>73.0</ele><time>2026-04-24T13:00:16.495Z</time></trkpt><trkpt lat="49.679395" lon="3.31157"><ele>73.0</ele><time>2026-04-24T13:00:18.497Z</time></trkpt><trkpt lat="49.6793367" lon="3.3117317"><ele>73.0</ele><time>2026-04-24T13:00:20.495Z</time></trkpt><trkpt lat="49.6792833" lon="3.3118833"><ele>72.8</ele><time>2026-04-24T13:00:22.496Z</time></trkpt><trkpt lat="49.67923" lon="3.3120317"><ele>72.6</ele><time>2026-04-24T13:00:24.497Z</time></trkpt><trkpt lat="49.67918" lon="3.3121717"><ele>72.4</ele><time>2026-04-24T13:00:26.497Z</time></trkpt><trkpt lat="49.6791283" lon="3.3123083"><ele>72.2</ele><time>2026-04-24T13:00:28.497Z</time></trkpt><trkpt lat="49.6790783" lon="3.3124483"><ele>72.0</ele><time>2026-04-24T13:00:30.496Z</time></trkpt><trkpt lat="49.67903" lon="3.3125833"><ele>72.0</ele><time>2026-04-24T13:00:32.501Z</time></trkpt><trkpt lat="49.67898" lon="3.3127233"><ele>72.0</ele><time>2026-04-24T13:00:34.498Z</time></trkpt><trkpt lat="49.678925" lon="3.3128717"><ele>72.0</ele><time>2026-04-24T13:00:36.501Z</time></trkpt><trkpt lat="49.6788683" lon="3.31303"><ele>72.0</ele><time>2026-04-24T13:00:38.498Z</time></trkpt><trkpt lat="49.6788083" lon="3.313185"><ele>72.0</ele><time>2026-04-24T13:00:40.496Z</time></trkpt><trkpt lat="49.67875" lon="3.3133433"><ele>71.75</ele><time>2026-04-24T13:00:42.497Z</time></trkpt><trkpt lat="49.67869" lon="3.3135083"><ele>71.5</ele><time>2026-04-24T13:00:44.496Z</time></trkpt><trkpt lat="49.67863" lon="3.3136783"><ele>71.25</ele><time>2026-04-24T13:00:46.495Z</time></trkpt><trkpt lat="49.6785667" lon="3.313845"><ele>71.0</ele><time>2026-04-24T13:00:48.495Z</time></trkpt><trkpt lat="49.678505" lon="3.3140117"><ele>70.5</ele><time>2026-04-24T13:00:50.497Z</time></trkpt><trkpt lat="49.6784417" lon="3.314175"><ele>70.0</ele><time>2026-04-24T13:00:52.496Z</time></trkpt><trkpt lat="49.6783817" lon="3.3143367"><ele>69.5</ele><time>2026-04-24T13:00:54.496Z</time></trkpt><trkpt lat="49.6783217" lon="3.3145"><ele>69.0</ele><time>2026-04-24T13:00:56.495Z</time></trkpt><trkpt lat="49.6782617" lon="3.3146667"><ele>69.5</ele><time>2026-04-24T13:00:58.497Z</time></trkpt><trkpt lat="49.6782017" lon="3.31483"><ele>70.0</ele><time>2026-04-24T13:01:00.498Z</time></trkpt><trkpt lat="49.6781417" lon="3.31499"><ele>70.5</ele><time>2026-04-24T13:01:02.497Z</time></trkpt><trkpt lat="49.6780817" lon="3.31515"><ele>71.0</ele><time>2026-04-24T13:01:04.496Z</time></trkpt><trkpt lat="49.6780233" lon="3.3153033"><ele>71.0</ele><time>2026-04-24T13:01:06.498Z</time></trkpt><trkpt lat="49.677965" lon="3.3154533"><ele>71.0</ele><time>2026-04-24T13:01:08.497Z</time></trkpt><trkpt lat="49.6779067" lon="3.3156067"><ele>71.0</ele><time>2026-04-24T13:01:10.497Z</time></trkpt><trkpt lat="49.6778483" lon="3.3157617"><ele>71.0</ele><time>2026-04-24T13:01:12.496Z</time></trkpt><trkpt lat="49.6777917" lon="3.3159183"><ele>71.0</ele><time>2026-04-24T13:01:14.499Z</time></trkpt><trkpt lat="49.677735" lon="3.3160617"><ele>71.0</ele><time>2026-04-24T13:01:16.495Z</time></trkpt><trkpt lat="49.67768" lon="3.316205"><ele>71.0</ele><time>2026-04-24T13:01:18.497Z</time></trkpt><trkpt lat="49.6776317" lon="3.3163433"><ele>71.0</ele><time>2026-04-24T13:01:20.496Z</time></trkpt><trkpt lat="49.67758" lon="3.3164833"><ele>71.0</ele><time>2026-04-24T13:01:22.497Z</time></trkpt><trkpt lat="49.6775283" lon="3.3166183"><ele>71.0</ele><time>2026-04-24T13:01:24.496Z</time></trkpt><trkpt lat="49.6774783" lon="3.3167583"><ele>71.0</ele><time>2026-04-24T13:01:26.496Z</time></trkpt><trkpt lat="49.677425" lon="3.3169017"><ele>71.0</ele><time>2026-04-24T13:01:28.495Z</time></trkpt><trkpt lat="49.67737" lon="3.3170517"><ele>71.0</ele><time>2026-04-24T13:01:30.495Z</time></trkpt><trkpt lat="49.677315" lon="3.317205"><ele>71.0</ele><time>2026-04-24T13:01:32.498Z</time></trkpt><trkpt lat="49.6772583" lon="3.3173533"><ele>71.25</ele><time>2026-04-24T13:01:34.497Z</time></trkpt><trkpt lat="49.6772017" lon="3.3175083"><ele>71.5</ele><time>2026-04-24T13:01:36.496Z</time></trkpt><trkpt lat="49.677145" lon="3.3176667"><ele>71.75</ele><time>2026-04-24T13:01:38.497Z</time></trkpt><trkpt lat="49.677085" lon="3.317825"><ele>72.0</ele><time>2026-04-24T13:01:40.496Z</time></trkpt><trkpt lat="49.6770267" lon="3.3179867"><ele>71.75</ele><time>2026-04-24T13:01:42.497Z</time></trkpt><trkpt lat="49.67697" lon="3.31815"><ele>71.5</ele><time>2026-04-24T13:01:44.497Z</time></trkpt><trkpt lat="49.6769083" lon="3.318305"><ele>71.25</ele><time>2026-04-24T13:01:46.497Z</time></trkpt><trkpt lat="49.6768483" lon="3.3184633"><ele>71.0</ele><time>2026-04-24T13:01:48.497Z</time></trkpt><trkpt lat="49.6767917" lon="3.3186167"><ele>70.6</ele><time>2026-04-24T13:01:50.497Z</time></trkpt><trkpt lat="49.676735" lon="3.31877"><ele>70.19999999999999</ele><time>2026-04-24T13:01:52.496Z</time></trkpt><trkpt lat="49.6766783" lon="3.3189233"><ele>69.80000000000001</ele><time>2026-04-24T13:01:54.496Z</time></trkpt><trkpt lat="49.6766267" lon="3.31907"><ele>69.4</ele><time>2026-04-24T13:01:56.497Z</time></trkpt><trkpt lat="49.676575" lon="3.3192167"><ele>69.0</ele><time>2026-04-24T13:01:58.496Z</time></trkpt><trkpt lat="49.6765283" lon="3.3193533"><ele>69.0</ele><time>2026-04-24T13:02:00.497Z</time></trkpt><trkpt lat="49.6764733" lon="3.3194983"><ele>69.0</ele><time>2026-04-24T13:02:02.496Z</time></trkpt><trkpt lat="49.676415" lon="3.31965"><ele>69.0</ele><time>2026-04-24T13:02:04.496Z</time></trkpt><trkpt lat="49.6763567" lon="3.319805"><ele>69.0</ele><time>2026-04-24T13:02:06.497Z</time></trkpt><trkpt lat="49.676295" lon="3.3199667"><ele>68.83333333333333</ele><time>2026-04-24T13:02:08.497Z</time></trkpt><trkpt lat="49.6762383" lon="3.3201333"><ele>68.66666666666667</ele><time>2026-04-24T13:02:10.496Z</time></trkpt><trkpt lat="49.6761817" lon="3.3202983"><ele>68.5</ele><time>2026-04-24T13:02:12.497Z</time></trkpt><trkpt lat="49.6761483" lon="3.3203817"><ele>68.33333333333334</ele><time>2026-04-24T13:02:13.495Z</time></trkpt><trkpt lat="49.6761167" lon="3.3204683"><ele>68.16666666666667</ele><time>2026-04-24T13:02:14.497Z</time></trkpt><trkpt lat="49.6760867" lon="3.320555"><ele>68.0</ele><time>2026-04-24T13:02:15.496Z</time></trkpt><trkpt lat="49.6760267" lon="3.3207133"><ele>67.6</ele><time>2026-04-24T13:02:17.495Z</time></trkpt><trkpt lat="49.67597" lon="3.32087"><ele>67.19999999999999</ele><time>2026-04-24T13:02:19.496Z</time></trkpt><trkpt lat="49.6759183" lon="3.321"><ele>66.8</ele><time>2026-04-24T13:02:21.496Z</time></trkpt><trkpt lat="49.6758667" lon="3.3211233"><ele>66.39999999999999</ele><time>2026-04-24T13:02:23.496Z</time></trkpt><trkpt lat="49.6758017" lon="3.3212483"><ele>66.0</ele><time>2026-04-24T13:02:25.496Z</time></trkpt><trkpt lat="49.675735" lon="3.3213683"><ele>66.39999999999999</ele><time>2026-04-24T13:02:27.495Z</time></trkpt><trkpt lat="49.6756667" lon="3.32149"><ele>66.8</ele><time>2026-04-24T13:02:29.495Z</time></trkpt><trkpt lat="49.675595" lon="3.3216117"><ele>67.19999999999999</ele><time>2026-04-24T13:02:31.495Z</time></trkpt><trkpt lat="49.67552" lon="3.32174"><ele>67.6</ele><time>2026-04-24T13:02:33.496Z</time></trkpt><trkpt lat="49.675435" lon="3.32187"><ele>68.0</ele><time>2026-04-24T13:02:35.495Z</time></trkpt><trkpt lat="49.675345" lon="3.3220033"><ele>67.75</ele><time>2026-04-24T13:02:37.496Z</time></trkpt><trkpt lat="49.675255" lon="3.3221333"><ele>67.5</ele><time>2026-04-24T13:02:39.495Z</time></trkpt><trkpt lat="49.67517" lon="3.322255"><ele>67.25</ele><time>2026-04-24T13:02:41.497Z</time></trkpt><trkpt lat="49.675085" lon="3.3223783"><ele>67.0</ele><time>2026-04-24T13:02:43.495Z</time></trkpt><trkpt lat="49.6750017" lon="3.3225133"><ele>67.0</ele><time>2026-04-24T13:02:45.496Z</time></trkpt><trkpt lat="49.6749167" lon="3.3226417"><ele>67.0</ele><time>2026-04-24T13:02:47.496Z</time></trkpt><trkpt lat="49.6748317" lon="3.3227683"><ele>67.0</ele><time>2026-04-24T13:02:49.497Z</time></trkpt><trkpt lat="49.67475" lon="3.3228933"><ele>67.0</ele><time>2026-04-24T13:02:51.495Z</time></trkpt><trkpt lat="49.6746633" lon="3.3230167"><ele>67.0</ele><time>2026-04-24T13:02:53.495Z</time></trkpt><trkpt lat="49.6745717" lon="3.32315"><ele>67.0</ele><time>2026-04-24T13:02:55.495Z</time></trkpt><trkpt lat="49.6745283" lon="3.3232217"><ele>67.0</ele><time>2026-04-24T13:02:56.495Z</time></trkpt><trkpt lat="49.6744833" lon="3.32329"><ele>67.0</ele><time>2026-04-24T13:02:57.495Z</time></trkpt><trkpt lat="49.674395" lon="3.3234217"><ele>67.0</ele><time>2026-04-24T13:02:59.496Z</time></trkpt><trkpt lat="49.6743067" lon="3.3235467"><ele>66.66666666666666</ele><time>2026-04-24T13:03:01.496Z</time></trkpt><trkpt lat="49.674215" lon="3.32367"><ele>66.33333333333333</ele><time>2026-04-24T13:03:03.497Z</time></trkpt><trkpt lat="49.6741217" lon="3.323805"><ele>66.0</ele><time>2026-04-24T13:03:05.495Z</time></trkpt><trkpt lat="49.6740767" lon="3.3238733"><ele>65.66666666666667</ele><time>2026-04-24T13:03:06.496Z</time></trkpt><trkpt lat="49.67403" lon="3.3239417"><ele>65.33333333333334</ele><time>2026-04-24T13:03:07.495Z</time></trkpt><trkpt lat="49.6739833" lon="3.32401"><ele>65.0</ele><time>2026-04-24T13:03:08.496Z</time></trkpt><trkpt lat="49.6739383" lon="3.3240783"><ele>65.0</ele><time>2026-04-24T13:03:09.495Z</time></trkpt><trkpt lat="49.6738483" lon="3.3242083"><ele>65.0</ele><time>2026-04-24T13:03:11.496Z</time></trkpt><trkpt lat="49.6737583" lon="3.3243333"><ele>65.0</ele><time>2026-04-24T13:03:13.496Z</time></trkpt><trkpt lat="49.67366" lon="3.3244467"><ele>65.0</ele><time>2026-04-24T13:03:15.496Z</time></trkpt><trkpt lat="49.6735583" lon="3.32456"><ele>64.75</ele><time>2026-04-24T13:03:17.496Z</time></trkpt><trkpt lat="49.6734567" lon="3.3246617"><ele>64.5</ele><time>2026-04-24T13:03:19.497Z</time></trkpt><trkpt lat="49.6733517" lon="3.3247567"><ele>64.25</ele><time>2026-04-24T13:03:21.496Z</time></trkpt><trkpt lat="49.6732467" lon="3.32485"><ele>64.0</ele><time>2026-04-24T13:03:23.497Z</time></trkpt><trkpt lat="49.6731433" lon="3.3249417"><ele>63.75</ele><time>2026-04-24T13:03:25.498Z</time></trkpt><trkpt lat="49.6730383" lon="3.3250333"><ele>63.5</ele><time>2026-04-24T13:03:27.497Z</time></trkpt><trkpt lat="49.6729333" lon="3.3251217"><ele>63.25</ele><time>2026-04-24T13:03:29.496Z</time></trkpt><trkpt lat="49.67283" lon="3.3252217"><ele>63.0</ele><time>2026-04-24T13:03:31.496Z</time></trkpt><trkpt lat="49.6727233" lon="3.3253117"><ele>62.5</ele><time>2026-04-24T13:03:33.495Z</time></trkpt><trkpt lat="49.6726167" lon="3.3253983"><ele>62.0</ele><time>2026-04-24T13:03:35.496Z</time></trkpt><trkpt lat="49.672515" lon="3.325485"><ele>61.5</ele><time>2026-04-24T13:03:37.496Z</time></trkpt><trkpt lat="49.6724167" lon="3.3255733"><ele>61.0</ele><time>2026-04-24T13:03:39.496Z</time></trkpt><trkpt lat="49.672315" lon="3.325655"><ele>61.0</ele><time>2026-04-24T13:03:41.496Z</time></trkpt><trkpt lat="49.6722183" lon="3.3257367"><ele>60.99999999999999</ele><time>2026-04-24T13:03:43.496Z</time></trkpt><trkpt lat="49.6721267" lon="3.32582"><ele>60.99999999999999</ele><time>2026-04-24T13:03:45.495Z</time></trkpt><trkpt lat="49.6720383" lon="3.3259067"><ele>61.0</ele><time>2026-04-24T13:03:47.495Z</time></trkpt><trkpt lat="49.67195" lon="3.3259917"><ele>61.0</ele><time>2026-04-24T13:03:49.496Z</time></trkpt><trkpt lat="49.6718633" lon="3.3260767"><ele>61.0</ele><time>2026-04-24T13:03:51.495Z</time></trkpt><trkpt lat="49.6717783" lon="3.326165"><ele>60.99999999999999</ele><time>2026-04-24T13:03:53.498Z</time></trkpt><trkpt lat="49.67169" lon="3.3262617"><ele>60.99999999999999</ele><time>2026-04-24T13:03:55.497Z</time></trkpt><trkpt lat="49.6716017" lon="3.3263733"><ele>61.0</ele><time>2026-04-24T13:03:57.496Z</time></trkpt><trkpt lat="49.6715133" lon="3.326495"><ele>61.0</ele><time>2026-04-24T13:03:59.496Z</time></trkpt><trkpt lat="49.6714233" lon="3.3266183"><ele>60.75</ele><time>2026-04-24T13:04:01.496Z</time></trkpt><trkpt lat="49.67133" lon="3.32674"><ele>60.5</ele><time>2026-04-24T13:04:03.497Z</time></trkpt><trkpt lat="49.67124" lon="3.3268567"><ele>60.25</ele><time>2026-04-24T13:04:05.496Z</time></trkpt><trkpt lat="49.6711517" lon="3.3269717"><ele>60.0</ele><time>2026-04-24T13:04:07.497Z</time></trkpt><trkpt lat="49.6710617" lon="3.32709"><ele>59.75</ele><time>2026-04-24T13:04:09.495Z</time></trkpt><trkpt lat="49.67098" lon="3.3272117"><ele>59.5</ele><time>2026-04-24T13:04:11.496Z</time></trkpt><trkpt lat="49.6708967" lon="3.3273267"><ele>59.25</ele><time>2026-04-24T13:04:13.496Z</time></trkpt><trkpt lat="49.6708083" lon="3.3274417"><ele>59.0</ele><time>2026-04-24T13:04:15.497Z</time></trkpt><trkpt lat="49.6707217" lon="3.3275583"><ele>58.75</ele><time>2026-04-24T13:04:17.496Z</time></trkpt><trkpt lat="49.67063" lon="3.327685"><ele>58.5</ele><time>2026-04-24T13:04:19.498Z</time></trkpt><trkpt lat="49.6705367" lon="3.32781"><ele>58.25</ele><time>2026-04-24T13:04:21.497Z</time></trkpt><trkpt lat="49.6704467" lon="3.3279283"><ele>58.0</ele><time>2026-04-24T13:04:23.498Z</time></trkpt><trkpt lat="49.6703583" lon="3.3280467"><ele>58.25</ele><time>2026-04-24T13:04:25.497Z</time></trkpt><trkpt lat="49.6702717" lon="3.3281583"><ele>58.5</ele><time>2026-04-24T13:04:27.497Z</time></trkpt><trkpt lat="49.6701883" lon="3.3282733"><ele>58.75</ele><time>2026-04-24T13:04:29.497Z</time></trkpt><trkpt lat="49.6701017" lon="3.3283933"><ele>59.0</ele><time>2026-04-24T13:04:31.496Z</time></trkpt><trkpt lat="49.670015" lon="3.3285183"><ele>59.0</ele><time>2026-04-24T13:04:33.498Z</time></trkpt><trkpt lat="49.6699283" lon="3.3286367"><ele>59.0</ele><time>2026-04-24T13:04:35.496Z</time></trkpt><trkpt lat="49.6698417" lon="3.3287583"><ele>59.0</ele><time>2026-04-24T13:04:37.495Z</time></trkpt><trkpt lat="49.669755" lon="3.32888"><ele>59.0</ele><time>2026-04-24T13:04:39.497Z</time></trkpt><trkpt lat="49.669675" lon="3.3290033"><ele>59.0</ele><time>2026-04-24T13:04:41.497Z</time></trkpt><trkpt lat="49.6695967" lon="3.3291433"><ele>59.0</ele><time>2026-04-24T13:04:43.496Z</time></trkpt><trkpt lat="49.6695267" lon="3.3292883"><ele>59.0</ele><time>2026-04-24T13:04:45.496Z</time></trkpt><trkpt lat="49.6694633" lon="3.3294283"><ele>59.0</ele><time>2026-04-24T13:04:47.495Z</time></trkpt><trkpt lat="49.6694017" lon="3.3295633"><ele>58.800000000000004</ele><time>2026-04-24T13:04:49.495Z</time></trkpt><trkpt lat="49.669345" lon="3.3296917"><ele>58.60000000000001</ele><time>2026-04-24T13:04:51.495Z</time></trkpt><trkpt lat="49.66929" lon="3.329815"><ele>58.4</ele><time>2026-04-24T13:04:53.497Z</time></trkpt><trkpt lat="49.669235" lon="3.329935"><ele>58.2</ele><time>2026-04-24T13:04:55.496Z</time></trkpt><trkpt lat="49.6691733" lon="3.3300667"><ele>58.0</ele><time>2026-04-24T13:04:57.495Z</time></trkpt><trkpt lat="49.6691133" lon="3.33021"><ele>57.75</ele><time>2026-04-24T13:04:59.497Z</time></trkpt><trkpt lat="49.6690467" lon="3.3303433"><ele>57.5</ele><time>2026-04-24T13:05:01.495Z</time></trkpt><trkpt lat="49.6689767" lon="3.3304817"><ele>57.25</ele><time>2026-04-24T13:05:03.499Z</time></trkpt><trkpt lat="49.66891" lon="3.3306283"><ele>57.0</ele><time>2026-04-24T13:05:05.495Z</time></trkpt><trkpt lat="49.6688383" lon="3.3307733"><ele>57.25</ele><time>2026-04-24T13:05:07.496Z</time></trkpt><trkpt lat="49.6687617" lon="3.33091"><ele>57.5</ele><time>2026-04-24T13:05:09.495Z</time></trkpt><trkpt lat="49.6686817" lon="3.33104"><ele>57.75</ele><time>2026-04-24T13:05:11.495Z</time></trkpt><trkpt lat="49.6685933" lon="3.3311583"><ele>58.0</ele><time>2026-04-24T13:05:13.495Z</time></trkpt><trkpt lat="49.6685017" lon="3.3312667"><ele>58.0</ele><time>2026-04-24T13:05:15.495Z</time></trkpt><trkpt lat="49.6684083" lon="3.33137"><ele>58.0</ele><time>2026-04-24T13:05:17.496Z</time></trkpt><trkpt lat="49.6683167" lon="3.3314667"><ele>58.0</ele><time>2026-04-24T13:05:19.496Z</time></trkpt><trkpt lat="49.6682233" lon="3.3315583"><ele>58.0</ele><time>2026-04-24T13:05:21.495Z</time></trkpt><trkpt lat="49.6681283" lon="3.331645"><ele>58.0</ele><time>2026-04-24T13:05:23.497Z</time></trkpt><trkpt lat="49.6680333" lon="3.3317367"><ele>58.0</ele><time>2026-04-24T13:05:25.497Z</time></trkpt><trkpt lat="49.667935" lon="3.3318383"><ele>58.0</ele><time>2026-04-24T13:05:27.497Z</time></trkpt><trkpt lat="49.6678383" lon="3.3319483"><ele>58.0</ele><time>2026-04-24T13:05:29.496Z</time></trkpt><trkpt lat="49.6677433" lon="3.3320633"><ele>58.0</ele><time>2026-04-24T13:05:31.497Z</time></trkpt><trkpt lat="49.6676483" lon="3.3321817"><ele>57.8</ele><time>2026-04-24T13:05:33.495Z</time></trkpt><trkpt lat="49.6676033" lon="3.3322517"><ele>57.599999999999994</ele><time>2026-04-24T13:05:34.496Z</time></trkpt><trkpt lat="49.6675133" lon="3.3323833"><ele>57.400000000000006</ele><time>2026-04-24T13:05:36.495Z</time></trkpt><trkpt lat="49.6674233" lon="3.3325117"><ele>57.2</ele><time>2026-04-24T13:05:38.497Z</time></trkpt><trkpt lat="49.6673367" lon="3.3326383"><ele>57.0</ele><time>2026-04-24T13:05:40.495Z</time></trkpt><trkpt lat="49.6672517" lon="3.3327567"><ele>57.0</ele><time>2026-04-24T13:05:42.496Z</time></trkpt><trkpt lat="49.667165" lon="3.332875"><ele>57.0</ele><time>2026-04-24T13:05:44.497Z</time></trkpt><trkpt lat="49.6670817" lon="3.3329933"><ele>57.0</ele><time>2026-04-24T13:05:46.497Z</time></trkpt><trkpt lat="49.6669983" lon="3.3331117"><ele>57.0</ele><time>2026-04-24T13:05:48.497Z</time></trkpt><trkpt lat="49.6669117" lon="3.3332283"><ele>56.75</ele><time>2026-04-24T13:05:50.498Z</time></trkpt><trkpt lat="49.6668283" lon="3.3333483"><ele>56.5</ele><time>2026-04-24T13:05:52.497Z</time></trkpt><trkpt lat="49.6667417" lon="3.3334633"><ele>56.25</ele><time>2026-04-24T13:05:54.496Z</time></trkpt><trkpt lat="49.666655" lon="3.3335783"><ele>56.0</ele><time>2026-04-24T13:05:56.497Z</time></trkpt><trkpt lat="49.66657" lon="3.3336983"><ele>56.0</ele><time>2026-04-24T13:05:58.495Z</time></trkpt><trkpt lat="49.6664817" lon="3.333825"><ele>56.0</ele><time>2026-04-24T13:06:00.497Z</time></trkpt><trkpt lat="49.6663917" lon="3.333945"><ele>56.0</ele><time>2026-04-24T13:06:02.499Z</time></trkpt><trkpt lat="49.6663017" lon="3.33407"><ele>56.0</ele><time>2026-04-24T13:06:04.496Z</time></trkpt><trkpt lat="49.66621" lon="3.3342"><ele>56.0</ele><time>2026-04-24T13:06:06.496Z</time></trkpt><trkpt lat="49.6661633" lon="3.3342667"><ele>55.99999999999999</ele><time>2026-04-24T13:06:07.496Z</time></trkpt><trkpt lat="49.666075" lon="3.334395"><ele>55.99999999999999</ele><time>2026-04-24T13:06:09.495Z</time></trkpt><trkpt lat="49.665985" lon="3.3345167"><ele>56.0</ele><time>2026-04-24T13:06:11.495Z</time></trkpt><trkpt lat="49.6659" lon="3.3346383"><ele>56.0</ele><time>2026-04-24T13:06:13.496Z</time></trkpt><trkpt lat="49.6658117" lon="3.3347567"><ele>55.75</ele><time>2026-04-24T13:06:15.497Z</time></trkpt><trkpt lat="49.665725" lon="3.3348783"><ele>55.5</ele><time>2026-04-24T13:06:17.496Z</time></trkpt><trkpt lat="49.6656433" lon="3.335005"><ele>55.25</ele><time>2026-04-24T13:06:19.496Z</time></trkpt><trkpt lat="49.6655617" lon="3.335115"><ele>55.0</ele><time>2026-04-24T13:06:21.496Z</time></trkpt><trkpt lat="49.6654783" lon="3.3352317"><ele>55.0</ele><time>2026-04-24T13:06:23.495Z</time></trkpt><trkpt lat="49.665395" lon="3.33535"><ele>55.0</ele><time>2026-04-24T13:06:25.497Z</time></trkpt><trkpt lat="49.6653117" lon="3.3354733"><ele>55.0</ele><time>2026-04-24T13:06:27.497Z</time></trkpt><trkpt lat="49.6652233" lon="3.33561"><ele>55.0</ele><time>2026-04-24T13:06:29.496Z</time></trkpt><trkpt lat="49.66518" lon="3.3356817"><ele>55.0</ele><time>2026-04-24T13:06:30.497Z</time></trkpt><trkpt lat="49.6651383" lon="3.3357567"><ele>55.14285714285714</ele><time>2026-04-24T13:06:31.497Z</time></trkpt><trkpt lat="49.6650983" lon="3.335835"><ele>55.285714285714285</ele><time>2026-04-24T13:06:32.496Z</time></trkpt><trkpt lat="49.6650583" lon="3.3359167"><ele>55.42857142857143</ele><time>2026-04-24T13:06:33.497Z</time></trkpt><trkpt lat="49.6650217" lon="3.3359983"><ele>55.57142857142857</ele><time>2026-04-24T13:06:34.496Z</time></trkpt><trkpt lat="49.664955" lon="3.336155"><ele>55.714285714285715</ele><time>2026-04-24T13:06:36.497Z</time></trkpt><trkpt lat="49.664925" lon="3.3362433"><ele>55.857142857142854</ele><time>2026-04-24T13:06:37.497Z</time></trkpt><trkpt lat="49.6648983" lon="3.3363317"><ele>56.0</ele><time>2026-04-24T13:06:38.496Z</time></trkpt><trkpt lat="49.6648533" lon="3.3365067"><ele>55.0</ele><time>2026-04-24T13:06:40.497Z</time></trkpt><trkpt lat="49.6648083" lon="3.3366817"><ele>54.0</ele><time>2026-04-24T13:06:42.496Z</time></trkpt><trkpt lat="49.66476" lon="3.336855"><ele>53.0</ele><time>2026-04-24T13:06:44.497Z</time></trkpt><trkpt lat="49.6647183" lon="3.3370333"><ele>52.0</ele><time>2026-04-24T13:06:46.497Z</time></trkpt><trkpt lat="49.664675" lon="3.3372033"><ele>52.0</ele><time>2026-04-24T13:06:48.496Z</time></trkpt><trkpt lat="49.6646333" lon="3.3373683"><ele>52.0</ele><time>2026-04-24T13:06:50.496Z</time></trkpt><trkpt lat="49.66459" lon="3.337535"><ele>52.0</ele><time>2026-04-24T13:06:52.496Z</time></trkpt><trkpt lat="49.6645433" lon="3.3377033"><ele>52.0</ele><time>2026-04-24T13:06:54.497Z</time></trkpt><trkpt lat="49.664495" lon="3.337875"><ele>52.0</ele><time>2026-04-24T13:06:56.496Z</time></trkpt><trkpt lat="49.6644517" lon="3.3380483"><ele>52.0</ele><time>2026-04-24T13:06:58.499Z</time></trkpt><trkpt lat="49.6644083" lon="3.3382233"><ele>52.0</ele><time>2026-04-24T13:07:00.497Z</time></trkpt><trkpt lat="49.6643633" lon="3.338395"><ele>52.0</ele><time>2026-04-24T13:07:02.497Z</time></trkpt><trkpt lat="49.6643183" lon="3.338565"><ele>52.0</ele><time>2026-04-24T13:07:04.497Z</time></trkpt><trkpt lat="49.6642717" lon="3.3387283"><ele>52.0</ele><time>2026-04-24T13:07:06.497Z</time></trkpt><trkpt lat="49.6642283" lon="3.3388917"><ele>52.0</ele><time>2026-04-24T13:07:08.498Z</time></trkpt><trkpt lat="49.6641867" lon="3.339055"><ele>52.0</ele><time>2026-04-24T13:07:10.496Z</time></trkpt><trkpt lat="49.6641467" lon="3.3392133"><ele>52.0</ele><time>2026-04-24T13:07:12.498Z</time></trkpt><trkpt lat="49.6641033" lon="3.339365"><ele>52.0</ele><time>2026-04-24T13:07:14.498Z</time></trkpt><trkpt lat="49.6640617" lon="3.3395183"><ele>52.0</ele><time>2026-04-24T13:07:16.496Z</time></trkpt><trkpt lat="49.66402" lon="3.3396767"><ele>52.0</ele><time>2026-04-24T13:07:18.496Z</time></trkpt><trkpt lat="49.6639833" lon="3.3398367"><ele>52.0</ele><time>2026-04-24T13:07:20.498Z</time></trkpt><trkpt lat="49.6639433" lon="3.339995"><ele>52.400000000000006</ele><time>2026-04-24T13:07:22.496Z</time></trkpt><trkpt lat="49.6639033" lon="3.3401583"><ele>52.800000000000004</ele><time>2026-04-24T13:07:24.497Z</time></trkpt><trkpt lat="49.663855" lon="3.3403083"><ele>53.2</ele><time>2026-04-24T13:07:26.496Z</time></trkpt><trkpt lat="49.6638133" lon="3.3404617"><ele>53.6</ele><time>2026-04-24T13:07:28.496Z</time></trkpt><trkpt lat="49.6637617" lon="3.3406117"><ele>54.0</ele><time>2026-04-24T13:07:30.495Z</time></trkpt><trkpt lat="49.663705" lon="3.3407533"><ele>54.400000000000006</ele><time>2026-04-24T13:07:32.496Z</time></trkpt><trkpt lat="49.6636467" lon="3.340895"><ele>54.800000000000004</ele><time>2026-04-24T13:07:34.496Z</time></trkpt><trkpt lat="49.6635833" lon="3.341035"><ele>55.199999999999996</ele><time>2026-04-24T13:07:36.497Z</time></trkpt><trkpt lat="49.6635217" lon="3.3411717"><ele>55.599999999999994</ele><time>2026-04-24T13:07:38.496Z</time></trkpt><trkpt lat="49.66346" lon="3.34131"><ele>56.0</ele><time>2026-04-24T13:07:40.495Z</time></trkpt><trkpt lat="49.6633983" lon="3.3414433"><ele>56.199999999999996</ele><time>2026-04-24T13:07:42.495Z</time></trkpt><trkpt lat="49.6633433" lon="3.341585"><ele>56.39999999999999</ele><time>2026-04-24T13:07:44.498Z</time></trkpt><trkpt lat="49.6632833" lon="3.341725"><ele>56.6</ele><time>2026-04-24T13:07:46.497Z</time></trkpt><trkpt lat="49.6632217" lon="3.341865"><ele>56.8</ele><time>2026-04-24T13:07:48.497Z</time></trkpt><trkpt lat="49.6631617" lon="3.3420133"><ele>57.0</ele><time>2026-04-24T13:07:50.496Z</time></trkpt><trkpt lat="49.6630983" lon="3.3421567"><ele>57.0</ele><time>2026-04-24T13:07:52.496Z</time></trkpt><trkpt lat="49.6630317" lon="3.3423083"><ele>57.0</ele><time>2026-04-24T13:07:54.495Z</time></trkpt><trkpt lat="49.6629683" lon="3.3424583"><ele>57.0</ele><time>2026-04-24T13:07:56.497Z</time></trkpt><trkpt lat="49.662935" lon="3.3425417"><ele>57.0</ele><time>2026-04-24T13:07:57.495Z</time></trkpt><trkpt lat="49.6629017" lon="3.3426283"><ele>57.0</ele><time>2026-04-24T13:07:58.5Z</time></trkpt><trkpt lat="49.6628417" lon="3.3427917"><ele>57.0</ele><time>2026-04-24T13:08:00.495Z</time></trkpt><trkpt lat="49.6627817" lon="3.3429617"><ele>57.0</ele><time>2026-04-24T13:08:02.496Z</time></trkpt><trkpt lat="49.66272" lon="3.3431267"><ele>57.0</ele><time>2026-04-24T13:08:04.497Z</time></trkpt><trkpt lat="49.6626617" lon="3.3432867"><ele>57.0</ele><time>2026-04-24T13:08:06.496Z</time></trkpt><trkpt lat="49.6626033" lon="3.3434467"><ele>56.6</ele><time>2026-04-24T13:08:08.497Z</time></trkpt><trkpt lat="49.6625433" lon="3.3436067"><ele>56.2</ele><time>2026-04-24T13:08:10.497Z</time></trkpt><trkpt lat="49.6625167" lon="3.3436967"><ele>55.8</ele><time>2026-04-24T13:08:11.497Z</time></trkpt><trkpt lat="49.6624883" lon="3.343785"><ele>55.4</ele><time>2026-04-24T13:08:12.496Z</time></trkpt><trkpt lat="49.6624317" lon="3.3439567"><ele>55.0</ele><time>2026-04-24T13:08:14.497Z</time></trkpt><trkpt lat="49.662375" lon="3.3441217"><ele>55.0</ele><time>2026-04-24T13:08:16.497Z</time></trkpt><trkpt lat="49.662315" lon="3.3442867"><ele>55.0</ele><time>2026-04-24T13:08:18.497Z</time></trkpt><trkpt lat="49.6622867" lon="3.344375"><ele>55.0</ele><time>2026-04-24T13:08:19.496Z</time></trkpt><trkpt lat="49.6622283" lon="3.3445433"><ele>55.0</ele><time>2026-04-24T13:08:21.495Z</time></trkpt><trkpt lat="49.662165" lon="3.34471"><ele>55.0</ele><time>2026-04-24T13:08:23.496Z</time></trkpt><trkpt lat="49.66214" lon="3.3448017"><ele>55.0</ele><time>2026-04-24T13:08:24.496Z</time></trkpt><trkpt lat="49.6620933" lon="3.3449817"><ele>55.0</ele><time>2026-04-24T13:08:26.5Z</time></trkpt><trkpt lat="49.6620717" lon="3.345075"><ele>55.0</ele><time>2026-04-24T13:08:27.496Z</time></trkpt><trkpt lat="49.6620417" lon="3.345255"><ele>55.0</ele><time>2026-04-24T13:08:29.496Z</time></trkpt><trkpt lat="49.6620133" lon="3.3454317"><ele>55.0</ele><time>2026-04-24T13:08:31.495Z</time></trkpt><trkpt lat="49.6619883" lon="3.3456067"><ele>55.0</ele><time>2026-04-24T13:08:33.496Z</time></trkpt><trkpt lat="49.6619617" lon="3.3457767"><ele>55.0</ele><time>2026-04-24T13:08:35.495Z</time></trkpt><trkpt lat="49.6619383" lon="3.3459467"><ele>55.0</ele><time>2026-04-24T13:08:37.496Z</time></trkpt><trkpt lat="49.66191" lon="3.346125"><ele>55.0</ele><time>2026-04-24T13:08:39.496Z</time></trkpt><trkpt lat="49.661885" lon="3.3462883"><ele>54.6</ele><time>2026-04-24T13:08:41.495Z</time></trkpt><trkpt lat="49.6618583" lon="3.3464533"><ele>54.2</ele><time>2026-04-24T13:08:43.497Z</time></trkpt><trkpt lat="49.6618333" lon="3.34662"><ele>53.8</ele><time>2026-04-24T13:08:45.497Z</time></trkpt><trkpt lat="49.6618067" lon="3.3467817"><ele>53.4</ele><time>2026-04-24T13:08:47.497Z</time></trkpt><trkpt lat="49.6617817" lon="3.346955"><ele>53.0</ele><time>2026-04-24T13:08:49.496Z</time></trkpt><trkpt lat="49.6617533" lon="3.34713"><ele>53.0</ele><time>2026-04-24T13:08:51.497Z</time></trkpt><trkpt lat="49.6617267" lon="3.3473083"><ele>53.0</ele><time>2026-04-24T13:08:53.496Z</time></trkpt><trkpt lat="49.66171" lon="3.347485"><ele>53.0</ele><time>2026-04-24T13:08:55.497Z</time></trkpt><trkpt lat="49.6617267" lon="3.3476567"><ele>53.0</ele><time>2026-04-24T13:08:57.496Z</time></trkpt><trkpt lat="49.6617633" lon="3.3478267"><ele>53.0</ele><time>2026-04-24T13:08:59.496Z</time></trkpt><trkpt lat="49.6618067" lon="3.3479833"><ele>53.0</ele><time>2026-04-24T13:09:01.496Z</time></trkpt><trkpt lat="49.6618533" lon="3.348135"><ele>53.0</ele><time>2026-04-24T13:09:03.497Z</time></trkpt><trkpt lat="49.6619133" lon="3.3482833"><ele>53.0</ele><time>2026-04-24T13:09:05.497Z</time></trkpt><trkpt lat="49.6619783" lon="3.3484217"><ele>53.0</ele><time>2026-04-24T13:09:07.497Z</time></trkpt><trkpt lat="49.6620517" lon="3.3485367"><ele>52.833333333333336</ele><time>2026-04-24T13:09:09.496Z</time></trkpt><trkpt lat="49.6621217" lon="3.34864"><ele>52.66666666666667</ele><time>2026-04-24T13:09:11.496Z</time></trkpt><trkpt lat="49.662175" lon="3.3487533"><ele>52.5</ele><time>2026-04-24T13:09:13.497Z</time></trkpt><trkpt lat="49.6622233" lon="3.3488583"><ele>52.33333333333333</ele><time>2026-04-24T13:09:15.495Z</time></trkpt><trkpt lat="49.66229" lon="3.3488917"><ele>52.166666666666664</ele><time>2026-04-24T13:09:17.495Z</time></trkpt><trkpt lat="49.66236" lon="3.3488283"><ele>52.0</ele><time>2026-04-24T13:09:19.497Z</time></trkpt><trkpt lat="49.6624267" lon="3.3488067"><ele>51.99999999999999</ele><time>2026-04-24T13:09:21.496Z</time></trkpt><trkpt lat="49.6624933" lon="3.3488783"><ele>52.0</ele><time>2026-04-24T13:09:24.496Z</time></trkpt><trkpt lat="49.6624683" lon="3.348975"><ele>52.0</ele><time>2026-04-24T13:09:27.495Z</time></trkpt><trkpt lat="49.6624133" lon="3.3490367"><ele>52.0</ele><time>2026-04-24T13:09:29.497Z</time></trkpt><trkpt lat="49.6623483" lon="3.349115"><ele>51.99999999999999</ele><time>2026-04-24T13:09:31.497Z</time></trkpt><trkpt lat="49.6622817" lon="3.3492017"><ele>52.0</ele><time>2026-04-24T13:09:33.495Z</time></trkpt><trkpt lat="49.6622117" lon="3.349285"><ele>51.99999999999999</ele><time>2026-04-24T13:09:35.496Z</time></trkpt><trkpt lat="49.6621583" lon="3.3493517"><ele>52.0</ele><time>2026-04-24T13:09:37.496Z</time></trkpt><trkpt lat="49.6621267" lon="3.349455"><ele>52.0</ele><time>2026-04-24T13:09:39.495Z</time></trkpt><trkpt lat="49.662095" lon="3.34957"><ele>52.0</ele><time>2026-04-24T13:09:41.496Z</time></trkpt><trkpt lat="49.6620367" lon="3.3496617"><ele>51.99999999999999</ele><time>2026-04-24T13:09:43.495Z</time></trkpt><trkpt lat="49.6619617" lon="3.3497317"><ele>52.0</ele><time>2026-04-24T13:09:45.497Z</time></trkpt><trkpt lat="49.6618783" lon="3.3497783"><ele>51.49999999999999</ele><time>2026-04-24T13:09:47.498Z</time></trkpt><trkpt lat="49.6618033" lon="3.3498467"><ele>51.0</ele><time>2026-04-24T13:09:49.496Z</time></trkpt><trkpt lat="49.6617633" lon="3.3499567"><ele>50.5</ele><time>2026-04-24T13:09:51.496Z</time></trkpt><trkpt lat="49.66173" lon="3.3500633"><ele>50.0</ele><time>2026-04-24T13:09:53.498Z</time></trkpt><trkpt lat="49.6617083" lon="3.35017"><ele>49.49999999999999</ele><time>2026-04-24T13:09:55.498Z</time></trkpt><trkpt lat="49.6616967" lon="3.3502867"><ele>49.0</ele><time>2026-04-24T13:09:57.495Z</time></trkpt><trkpt lat="49.6617" lon="3.3504067"><ele>48.99999999999999</ele><time>2026-04-24T13:09:59.496Z</time></trkpt><trkpt lat="49.6617117" lon="3.3505233"><ele>49.0</ele><time>2026-04-24T13:10:02.497Z</time></trkpt><trkpt lat="49.661715" lon="3.350635"><ele>49.0</ele><time>2026-04-24T13:10:06.495Z</time></trkpt><trkpt lat="49.6617317" lon="3.3507433"><ele>49.0</ele><time>2026-04-24T13:10:09.496Z</time></trkpt><trkpt lat="49.6617433" lon="3.350865"><ele>48.99999999999999</ele><time>2026-04-24T13:10:12.494Z</time></trkpt><trkpt lat="49.661755" lon="3.350995"><ele>49.0</ele><time>2026-04-24T13:10:15.496Z</time></trkpt><trkpt lat="49.66177" lon="3.35111"><ele>48.99999999999999</ele><time>2026-04-24T13:10:18.496Z</time></trkpt><trkpt lat="49.66184" lon="3.3511667"><ele>49.0</ele><time>2026-04-24T13:10:22.495Z</time></trkpt><trkpt lat="49.6619217" lon="3.3511383"><ele>49.0</ele><time>2026-04-24T13:10:25.497Z</time></trkpt><trkpt lat="49.6619783" lon="3.3510817"><ele>49.0</ele><time>2026-04-24T13:10:27.496Z</time></trkpt><trkpt lat="49.6620467" lon="3.35103"><ele>48.99999999999999</ele><time>2026-04-24T13:10:29.495Z</time></trkpt><trkpt lat="49.662125" lon="3.351005"><ele>49.0</ele><time>2026-04-24T13:10:31.496Z</time></trkpt><trkpt lat="49.6622117" lon="3.3509883"><ele>49.0</ele><time>2026-04-24T13:10:33.496Z</time></trkpt><trkpt lat="49.6623033" lon="3.3509717"><ele>49.0</ele><time>2026-04-24T13:10:35.497Z</time></trkpt><trkpt lat="49.6623933" lon="3.3509617"><ele>49.0</ele><time>2026-04-24T13:10:37.495Z</time></trkpt><trkpt lat="49.662485" lon="3.3509467"><ele>49.0</ele><time>2026-04-24T13:10:39.5Z</time></trkpt><trkpt lat="49.662575" lon="3.35092"><ele>49.0</ele><time>2026-04-24T13:10:41.497Z</time></trkpt><trkpt lat="49.6626667" lon="3.3508917"><ele>49.0</ele><time>2026-04-24T13:10:43.495Z</time></trkpt><trkpt lat="49.66276" lon="3.3508583"><ele>49.0</ele><time>2026-04-24T13:10:45.495Z</time></trkpt><trkpt lat="49.66285" lon="3.3508167"><ele>49.0</ele><time>2026-04-24T13:10:47.497Z</time></trkpt><trkpt lat="49.6629433" lon="3.350775"><ele>49.0</ele><time>2026-04-24T13:10:49.499Z</time></trkpt><trkpt lat="49.6630333" lon="3.3507233"><ele>49.0</ele><time>2026-04-24T13:10:51.497Z</time></trkpt><trkpt lat="49.6631183" lon="3.3506783"><ele>49.2</ele><time>2026-04-24T13:10:53.498Z</time></trkpt><trkpt lat="49.6632083" lon="3.3506383"><ele>49.400000000000006</ele><time>2026-04-24T13:10:55.496Z</time></trkpt><trkpt lat="49.6633033" lon="3.3506133"><ele>49.6</ele><time>2026-04-24T13:10:57.496Z</time></trkpt><trkpt lat="49.6633983" lon="3.350585"><ele>49.8</ele><time>2026-04-24T13:10:59.496Z</time></trkpt><trkpt lat="49.6634883" lon="3.3505867"><ele>50.0</ele><time>2026-04-24T13:11:01.496Z</time></trkpt><trkpt lat="49.6635733" lon="3.3506233"><ele>49.8</ele><time>2026-04-24T13:11:03.497Z</time></trkpt><trkpt lat="49.66366" lon="3.3506783"><ele>49.6</ele><time>2026-04-24T13:11:05.499Z</time></trkpt><trkpt lat="49.663745" lon="3.3507333"><ele>49.400000000000006</ele><time>2026-04-24T13:11:07.498Z</time></trkpt><trkpt lat="49.6638317" lon="3.3508067"><ele>49.2</ele><time>2026-04-24T13:11:09.498Z</time></trkpt><trkpt lat="49.6639267" lon="3.3508783"><ele>49.0</ele><time>2026-04-24T13:11:11.496Z</time></trkpt><trkpt lat="49.6640283" lon="3.3509383"><ele>49.0</ele><time>2026-04-24T13:11:13.496Z</time></trkpt><trkpt lat="49.6641283" lon="3.350995"><ele>49.0</ele><time>2026-04-24T13:11:15.495Z</time></trkpt><trkpt lat="49.6642217" lon="3.3510583"><ele>49.0</ele><time>2026-04-24T13:11:17.496Z</time></trkpt><trkpt lat="49.6643217" lon="3.35112"><ele>49.0</ele><time>2026-04-24T13:11:19.497Z</time></trkpt><trkpt lat="49.66441" lon="3.3511833"><ele>49.0</ele><time>2026-04-24T13:11:21.496Z</time></trkpt><trkpt lat="49.6644983" lon="3.3512483"><ele>49.0</ele><time>2026-04-24T13:11:23.499Z</time></trkpt><trkpt lat="49.6645883" lon="3.3513133"><ele>49.0</ele><time>2026-04-24T13:11:25.496Z</time></trkpt><trkpt lat="49.6646817" lon="3.3513833"><ele>49.0</ele><time>2026-04-24T13:11:27.497Z</time></trkpt><trkpt lat="49.6647767" lon="3.35145"><ele>49.0</ele><time>2026-04-24T13:11:29.498Z</time></trkpt><trkpt lat="49.6648717" lon="3.3515117"><ele>49.0</ele><time>2026-04-24T13:11:31.497Z</time></trkpt><trkpt lat="49.66497" lon="3.351575"><ele>49.0</ele><time>2026-04-24T13:11:33.496Z</time></trkpt><trkpt lat="49.665065" lon="3.3516433"><ele>49.0</ele><time>2026-04-24T13:11:35.496Z</time></trkpt><trkpt lat="49.6651617" lon="3.3517067"><ele>49.0</ele><time>2026-04-24T13:11:37.496Z</time></trkpt><trkpt lat="49.6652583" lon="3.3517667"><ele>49.0</ele><time>2026-04-24T13:11:39.497Z</time></trkpt><trkpt lat="49.665355" lon="3.35184"><ele>49.0</ele><time>2026-04-24T13:11:41.496Z</time></trkpt><trkpt lat="49.6654467" lon="3.3519167"><ele>49.0</ele><time>2026-04-24T13:11:43.497Z</time></trkpt><trkpt lat="49.665545" lon="3.3519867"><ele>49.0</ele><time>2026-04-24T13:11:45.497Z</time></trkpt><trkpt lat="49.6656533" lon="3.3520617"><ele>49.0</ele><time>2026-04-24T13:11:47.497Z</time></trkpt><trkpt lat="49.66576" lon="3.352135"><ele>49.0</ele><time>2026-04-24T13:11:49.496Z</time></trkpt><trkpt lat="49.665865" lon="3.3522083"><ele>49.0</ele><time>2026-04-24T13:11:51.497Z</time></trkpt><trkpt lat="49.66597" lon="3.3522767"><ele>49.0</ele><time>2026-04-24T13:11:53.497Z</time></trkpt><trkpt lat="49.6660767" lon="3.3523517"><ele>49.0</ele><time>2026-04-24T13:11:55.498Z</time></trkpt><trkpt lat="49.6661817" lon="3.35243"><ele>49.0</ele><time>2026-04-24T13:11:57.496Z</time></trkpt><trkpt lat="49.6662867" lon="3.3525017"><ele>49.0</ele><time>2026-04-24T13:11:59.496Z</time></trkpt><trkpt lat="49.6663883" lon="3.3525767"><ele>49.0</ele><time>2026-04-24T13:12:01.496Z</time></trkpt><trkpt lat="49.6664883" lon="3.3526483"><ele>49.0</ele><time>2026-04-24T13:12:03.495Z</time></trkpt><trkpt lat="49.6665867" lon="3.3527233"><ele>49.0</ele><time>2026-04-24T13:12:05.496Z</time></trkpt><trkpt lat="49.66669" lon="3.3527933"><ele>49.0</ele><time>2026-04-24T13:12:07.496Z</time></trkpt><trkpt lat="49.666795" lon="3.3528617"><ele>49.0</ele><time>2026-04-24T13:12:09.496Z</time></trkpt><trkpt lat="49.6669033" lon="3.352925"><ele>49.0</ele><time>2026-04-24T13:12:11.498Z</time></trkpt><trkpt lat="49.6670067" lon="3.352995"><ele>49.0</ele><time>2026-04-24T13:12:13.497Z</time></trkpt><trkpt lat="49.66711" lon="3.353065"><ele>49.0</ele><time>2026-04-24T13:12:15.496Z</time></trkpt><trkpt lat="49.667215" lon="3.3531367"><ele>48.75</ele><time>2026-04-24T13:12:17.495Z</time></trkpt><trkpt lat="49.667325" lon="3.3532083"><ele>48.5</ele><time>2026-04-24T13:12:19.497Z</time></trkpt><trkpt lat="49.66743" lon="3.3532833"><ele>48.25</ele><time>2026-04-24T13:12:21.495Z</time></trkpt><trkpt lat="49.66753" lon="3.3533583"><ele>48.0</ele><time>2026-04-24T13:12:23.495Z</time></trkpt><trkpt lat="49.6676317" lon="3.3534367"><ele>48.0</ele><time>2026-04-24T13:12:25.496Z</time></trkpt><trkpt lat="49.6677317" lon="3.3535083"><ele>48.0</ele><time>2026-04-24T13:12:27.495Z</time></trkpt><trkpt lat="49.667835" lon="3.3535867"><ele>48.0</ele><time>2026-04-24T13:12:29.496Z</time></trkpt><trkpt lat="49.667935" lon="3.3536617"><ele>48.0</ele><time>2026-04-24T13:12:31.495Z</time></trkpt><trkpt lat="49.66804" lon="3.3537317"><ele>48.0</ele><time>2026-04-24T13:12:33.497Z</time></trkpt><trkpt lat="49.668145" lon="3.3538033"><ele>48.0</ele><time>2026-04-24T13:12:35.497Z</time></trkpt><trkpt lat="49.6682467" lon="3.3538767"><ele>48.0</ele><time>2026-04-24T13:12:37.494Z</time></trkpt><trkpt lat="49.6683533" lon="3.3539533"><ele>48.0</ele><time>2026-04-24T13:12:39.496Z</time></trkpt><trkpt lat="49.6684633" lon="3.3540283"><ele>48.0</ele><time>2026-04-24T13:12:41.495Z</time></trkpt><trkpt lat="49.668575" lon="3.3540967"><ele>48.0</ele><time>2026-04-24T13:12:43.496Z</time></trkpt><trkpt lat="49.66868" lon="3.354175"><ele>48.0</ele><time>2026-04-24T13:12:45.495Z</time></trkpt><trkpt lat="49.6687883" lon="3.3542517"><ele>48.0</ele><time>2026-04-24T13:12:47.496Z</time></trkpt><trkpt lat="49.6688967" lon="3.3543233"><ele>48.25</ele><time>2026-04-24T13:12:49.498Z</time></trkpt><trkpt lat="49.6690017" lon="3.3544"><ele>48.5</ele><time>2026-04-24T13:12:51.496Z</time></trkpt><trkpt lat="49.6691067" lon="3.3544733"><ele>48.75</ele><time>2026-04-24T13:12:53.496Z</time></trkpt><trkpt lat="49.66921" lon="3.3545467"><ele>49.0</ele><time>2026-04-24T13:12:55.497Z</time></trkpt><trkpt lat="49.6693167" lon="3.3546217"><ele>49.0</ele><time>2026-04-24T13:12:57.496Z</time></trkpt><trkpt lat="49.6694217" lon="3.3546933"><ele>49.0</ele><time>2026-04-24T13:12:59.497Z</time></trkpt><trkpt lat="49.6695183" lon="3.3547617"><ele>49.0</ele><time>2026-04-24T13:13:01.497Z</time></trkpt><trkpt lat="49.6696117" lon="3.35482"><ele>49.0</ele><time>2026-04-24T13:13:03.496Z</time></trkpt><trkpt lat="49.6697083" lon="3.3548817"><ele>49.0</ele><time>2026-04-24T13:13:05.495Z</time></trkpt><trkpt lat="49.6698133" lon="3.3549483"><ele>48.800000000000004</ele><time>2026-04-24T13:13:07.497Z</time></trkpt><trkpt lat="49.6699117" lon="3.35502"><ele>48.6</ele><time>2026-04-24T13:13:09.496Z</time></trkpt><trkpt lat="49.670005" lon="3.35509"><ele>48.4</ele><time>2026-04-24T13:13:11.496Z</time></trkpt><trkpt lat="49.67011" lon="3.3551633"><ele>48.2</ele><time>2026-04-24T13:13:13.495Z</time></trkpt><trkpt lat="49.6702167" lon="3.35524"><ele>48.0</ele><time>2026-04-24T13:13:15.496Z</time></trkpt><trkpt lat="49.6703183" lon="3.3553183"><ele>48.4</ele><time>2026-04-24T13:13:17.496Z</time></trkpt><trkpt lat="49.67042" lon="3.355385"><ele>48.8</ele><time>2026-04-24T13:13:19.498Z</time></trkpt><trkpt lat="49.6705067" lon="3.3554483"><ele>49.2</ele><time>2026-04-24T13:13:21.497Z</time></trkpt><trkpt lat="49.6705867" lon="3.3555067"><ele>49.6</ele><time>2026-04-24T13:13:23.497Z</time></trkpt><trkpt lat="49.6706683" lon="3.355525"><ele>50.0</ele><time>2026-04-24T13:13:25.496Z</time></trkpt><trkpt lat="49.6707533" lon="3.35553"><ele>50.16666666666667</ele><time>2026-04-24T13:13:27.496Z</time></trkpt><trkpt lat="49.6708517" lon="3.3555783"><ele>50.333333333333336</ele><time>2026-04-24T13:13:29.495Z</time></trkpt><trkpt lat="49.670915" lon="3.3556783"><ele>50.5</ele><time>2026-04-24T13:13:31.496Z</time></trkpt><trkpt lat="49.67097" lon="3.3557617"><ele>50.66666666666667</ele><time>2026-04-24T13:13:33.497Z</time></trkpt><trkpt lat="49.6710417" lon="3.3558167"><ele>50.833333333333336</ele><time>2026-04-24T13:13:35.496Z</time></trkpt><trkpt lat="49.6711317" lon="3.355875"><ele>51.0</ele><time>2026-04-24T13:13:37.495Z</time></trkpt><trkpt lat="49.67123" lon="3.35593"><ele>50.5</ele><time>2026-04-24T13:13:39.496Z</time></trkpt><trkpt lat="49.67133" lon="3.356005"><ele>50.0</ele><time>2026-04-24T13:13:41.496Z</time></trkpt><trkpt lat="49.6714333" lon="3.3560783"><ele>49.5</ele><time>2026-04-24T13:13:43.497Z</time></trkpt><trkpt lat="49.671535" lon="3.3561583"><ele>49.0</ele><time>2026-04-24T13:13:45.495Z</time></trkpt><trkpt lat="49.6716367" lon="3.35624"><ele>49.0</ele><time>2026-04-24T13:13:47.497Z</time></trkpt><trkpt lat="49.67174" lon="3.3563167"><ele>49.0</ele><time>2026-04-24T13:13:49.496Z</time></trkpt><trkpt lat="49.67184" lon="3.3563983"><ele>49.0</ele><time>2026-04-24T13:13:51.498Z</time></trkpt><trkpt lat="49.671945" lon="3.35647"><ele>49.0</ele><time>2026-04-24T13:13:53.497Z</time></trkpt><trkpt lat="49.67205" lon="3.3565483"><ele>48.75</ele><time>2026-04-24T13:13:55.498Z</time></trkpt><trkpt lat="49.6721633" lon="3.356625"><ele>48.5</ele><time>2026-04-24T13:13:57.496Z</time></trkpt><trkpt lat="49.6722683" lon="3.3567"><ele>48.25</ele><time>2026-04-24T13:13:59.497Z</time></trkpt><trkpt lat="49.672365" lon="3.3567767"><ele>48.0</ele><time>2026-04-24T13:14:01.496Z</time></trkpt><trkpt lat="49.6724767" lon="3.3568567"><ele>48.0</ele><time>2026-04-24T13:14:03.496Z</time></trkpt><trkpt lat="49.6725883" lon="3.3569333"><ele>48.0</ele><time>2026-04-24T13:14:05.495Z</time></trkpt><trkpt lat="49.6726467" lon="3.3569717"><ele>48.0</ele><time>2026-04-24T13:14:06.496Z</time></trkpt><trkpt lat="49.6727567" lon="3.35705"><ele>48.0</ele><time>2026-04-24T13:14:08.498Z</time></trkpt><trkpt lat="49.67286" lon="3.35713"><ele>48.0</ele><time>2026-04-24T13:14:10.497Z</time></trkpt><trkpt lat="49.6729617" lon="3.3572117"><ele>48.599999999999994</ele><time>2026-04-24T13:14:12.496Z</time></trkpt><trkpt lat="49.673065" lon="3.3572933"><ele>49.199999999999996</ele><time>2026-04-24T13:14:14.498Z</time></trkpt><trkpt lat="49.6731767" lon="3.3573667"><ele>49.8</ele><time>2026-04-24T13:14:16.497Z</time></trkpt><trkpt lat="49.6732933" lon="3.35744"><ele>50.4</ele><time>2026-04-24T13:14:18.497Z</time></trkpt><trkpt lat="49.6733533" lon="3.3574767"><ele>51.0</ele><time>2026-04-24T13:14:19.498Z</time></trkpt><trkpt lat="49.673465" lon="3.357545"><ele>51.0</ele><time>2026-04-24T13:14:21.497Z</time></trkpt><trkpt lat="49.6735683" lon="3.357625"><ele>51.0</ele><time>2026-04-24T13:14:23.497Z</time></trkpt><trkpt lat="49.6736717" lon="3.3577067"><ele>51.0</ele><time>2026-04-24T13:14:25.497Z</time></trkpt><trkpt lat="49.6737717" lon="3.3577883"><ele>51.0</ele><time>2026-04-24T13:14:27.497Z</time></trkpt><trkpt lat="49.6738783" lon="3.35786"><ele>51.25</ele><time>2026-04-24T13:14:29.496Z</time></trkpt><trkpt lat="49.6739833" lon="3.3579317"><ele>51.5</ele><time>2026-04-24T13:14:31.496Z</time></trkpt><trkpt lat="49.674085" lon="3.3580067"><ele>51.75</ele><time>2026-04-24T13:14:33.497Z</time></trkpt><trkpt lat="49.674185" lon="3.3580783"><ele>52.0</ele><time>2026-04-24T13:14:35.496Z</time></trkpt><trkpt lat="49.6742867" lon="3.3581533"><ele>52.0</ele><time>2026-04-24T13:14:37.495Z</time></trkpt><trkpt lat="49.6743933" lon="3.3582267"><ele>52.0</ele><time>2026-04-24T13:14:39.497Z</time></trkpt><trkpt lat="49.6744983" lon="3.3583033"><ele>52.0</ele><time>2026-04-24T13:14:41.497Z</time></trkpt><trkpt lat="49.674605" lon="3.3583783"><ele>52.0</ele><time>2026-04-24T13:14:43.496Z</time></trkpt><trkpt lat="49.6747117" lon="3.3584517"><ele>52.5</ele><time>2026-04-24T13:14:45.494Z</time></trkpt><trkpt lat="49.67482" lon="3.3585283"><ele>53.0</ele><time>2026-04-24T13:14:47.496Z</time></trkpt><trkpt lat="49.6749267" lon="3.3586017"><ele>53.5</ele><time>2026-04-24T13:14:49.497Z</time></trkpt><trkpt lat="49.6750417" lon="3.3586717"><ele>54.0</ele><time>2026-04-24T13:14:51.496Z</time></trkpt><trkpt lat="49.67515" lon="3.3587533"><ele>54.0</ele><time>2026-04-24T13:14:53.496Z</time></trkpt><trkpt lat="49.67526" lon="3.3588367"><ele>54.0</ele><time>2026-04-24T13:14:55.497Z</time></trkpt><trkpt lat="49.6753567" lon="3.3589267"><ele>54.0</ele><time>2026-04-24T13:14:57.494Z</time></trkpt><trkpt lat="49.675455" lon="3.359005"><ele>54.0</ele><time>2026-04-24T13:14:59.496Z</time></trkpt><trkpt lat="49.6755533" lon="3.359075"><ele>53.75</ele><time>2026-04-24T13:15:01.496Z</time></trkpt><trkpt lat="49.6756517" lon="3.3591433"><ele>53.5</ele><time>2026-04-24T13:15:03.495Z</time></trkpt><trkpt lat="49.6757533" lon="3.3592183"><ele>53.25</ele><time>2026-04-24T13:15:05.496Z</time></trkpt><trkpt lat="49.6758583" lon="3.359295"><ele>53.0</ele><time>2026-04-24T13:15:07.496Z</time></trkpt><trkpt lat="49.675965" lon="3.359375"><ele>53.0</ele><time>2026-04-24T13:15:09.496Z</time></trkpt><trkpt lat="49.6760733" lon="3.3594567"><ele>53.0</ele><time>2026-04-24T13:15:11.497Z</time></trkpt><trkpt lat="49.6761817" lon="3.3595367"><ele>53.0</ele><time>2026-04-24T13:15:13.496Z</time></trkpt><trkpt lat="49.6762883" lon="3.359615"><ele>53.0</ele><time>2026-04-24T13:15:15.497Z</time></trkpt><trkpt lat="49.6763967" lon="3.3596933"><ele>52.599999999999994</ele><time>2026-04-24T13:15:17.496Z</time></trkpt><trkpt lat="49.676455" lon="3.3597367"><ele>52.199999999999996</ele><time>2026-04-24T13:15:18.496Z</time></trkpt><trkpt lat="49.6765633" lon="3.3598067"><ele>51.8</ele><time>2026-04-24T13:15:20.496Z</time></trkpt><trkpt lat="49.676665" lon="3.3598783"><ele>51.4</ele><time>2026-04-24T13:15:22.497Z</time></trkpt><trkpt lat="49.6767717" lon="3.3599517"><ele>51.0</ele><time>2026-04-24T13:15:24.495Z</time></trkpt><trkpt lat="49.6768833" lon="3.3600283"><ele>50.5</ele><time>2026-04-24T13:15:26.496Z</time></trkpt><trkpt lat="49.6769933" lon="3.3601067"><ele>50.0</ele><time>2026-04-24T13:15:28.497Z</time></trkpt><trkpt lat="49.6771033" lon="3.3601867"><ele>49.5</ele><time>2026-04-24T13:15:30.501Z</time></trkpt><trkpt lat="49.6772067" lon="3.360275"><ele>49.0</ele><time>2026-04-24T13:15:32.496Z</time></trkpt><trkpt lat="49.67732" lon="3.3603517"><ele>49.0</ele><time>2026-04-24T13:15:34.495Z</time></trkpt><trkpt lat="49.6774367" lon="3.360425"><ele>49.0</ele><time>2026-04-24T13:15:36.496Z</time></trkpt><trkpt lat="49.6775483" lon="3.3604933"><ele>49.0</ele><time>2026-04-24T13:15:38.5Z</time></trkpt><trkpt lat="49.6776633" lon="3.3605633"><ele>49.0</ele><time>2026-04-24T13:15:40.497Z</time></trkpt><trkpt lat="49.677765" lon="3.3606417"><ele>49.0</ele><time>2026-04-24T13:15:42.497Z</time></trkpt><trkpt lat="49.6778683" lon="3.36071"><ele>49.0</ele><time>2026-04-24T13:15:44.497Z</time></trkpt><trkpt lat="49.677975" lon="3.36078"><ele>49.0</ele><time>2026-04-24T13:15:46.497Z</time></trkpt><trkpt lat="49.6780817" lon="3.3608567"><ele>49.0</ele><time>2026-04-24T13:15:48.496Z</time></trkpt><trkpt lat="49.6781867" lon="3.360935"><ele>49.0</ele><time>2026-04-24T13:15:50.497Z</time></trkpt><trkpt lat="49.678295" lon="3.361015"><ele>49.0</ele><time>2026-04-24T13:15:52.496Z</time></trkpt><trkpt lat="49.6784017" lon="3.36109"><ele>49.0</ele><time>2026-04-24T13:15:54.497Z</time></trkpt><trkpt lat="49.678495" lon="3.361155"><ele>49.0</ele><time>2026-04-24T13:15:56.496Z</time></trkpt><trkpt lat="49.6785867" lon="3.3612067"><ele>49.0</ele><time>2026-04-24T13:15:58.496Z</time></trkpt><trkpt lat="49.6786767" lon="3.361265"><ele>48.99999999999999</ele><time>2026-04-24T13:16:00.496Z</time></trkpt><trkpt lat="49.6787617" lon="3.361325"><ele>49.0</ele><time>2026-04-24T13:16:02.496Z</time></trkpt><trkpt lat="49.6788467" lon="3.36136"><ele>49.0</ele><time>2026-04-24T13:16:04.495Z</time></trkpt><trkpt lat="49.6789117" lon="3.3613067"><ele>49.0</ele><time>2026-04-24T13:16:06.497Z</time></trkpt><trkpt lat="49.6789433" lon="3.3611783"><ele>48.99999999999999</ele><time>2026-04-24T13:16:09.495Z</time></trkpt><trkpt lat="49.67901" lon="3.361155"><ele>49.0</ele><time>2026-04-24T13:16:11.496Z</time></trkpt><trkpt lat="49.6791083" lon="3.3612"><ele>49.0</ele><time>2026-04-24T13:16:13.496Z</time></trkpt><trkpt lat="49.6792017" lon="3.3612667"><ele>49.0</ele><time>2026-04-24T13:16:15.497Z</time></trkpt><trkpt lat="49.679295" lon="3.36133"><ele>49.0</ele><time>2026-04-24T13:16:17.495Z</time></trkpt><trkpt lat="49.679395" lon="3.36139"><ele>49.0</ele><time>2026-04-24T13:16:19.497Z</time></trkpt><trkpt lat="49.6794967" lon="3.3614433"><ele>49.0</ele><time>2026-04-24T13:16:21.497Z</time></trkpt><trkpt lat="49.6795933" lon="3.3615017"><ele>49.25</ele><time>2026-04-24T13:16:23.498Z</time></trkpt><trkpt lat="49.6796967" lon="3.3615617"><ele>49.5</ele><time>2026-04-24T13:16:25.499Z</time></trkpt><trkpt lat="49.679805" lon="3.3616267"><ele>49.75</ele><time>2026-04-24T13:16:27.497Z</time></trkpt><trkpt lat="49.6799133" lon="3.3616917"><ele>50.0</ele><time>2026-04-24T13:16:29.498Z</time></trkpt><trkpt lat="49.68002" lon="3.36176"><ele>50.0</ele><time>2026-04-24T13:16:31.499Z</time></trkpt><trkpt lat="49.6801317" lon="3.36182"><ele>50.0</ele><time>2026-04-24T13:16:33.496Z</time></trkpt><trkpt lat="49.6802433" lon="3.36189"><ele>50.0</ele><time>2026-04-24T13:16:35.497Z</time></trkpt><trkpt lat="49.6803483" lon="3.36196"><ele>50.0</ele><time>2026-04-24T13:16:37.497Z</time></trkpt><trkpt lat="49.680405" lon="3.3620033"><ele>50.0</ele><time>2026-04-24T13:16:38.496Z</time></trkpt><trkpt lat="49.6804667" lon="3.3620417"><ele>50.0</ele><time>2026-04-24T13:16:39.496Z</time></trkpt><trkpt lat="49.6805267" lon="3.3620783"><ele>50.0</ele><time>2026-04-24T13:16:40.497Z</time></trkpt><trkpt lat="49.6805867" lon="3.3621133"><ele>50.0</ele><time>2026-04-24T13:16:41.496Z</time></trkpt><trkpt lat="49.6807033" lon="3.3621783"><ele>50.0</ele><time>2026-04-24T13:16:43.496Z</time></trkpt><trkpt lat="49.68082" lon="3.3622333"><ele>50.0</ele><time>2026-04-24T13:16:45.497Z</time></trkpt><trkpt lat="49.680935" lon="3.3622917"><ele>49.75</ele><time>2026-04-24T13:16:47.496Z</time></trkpt><trkpt lat="49.6810533" lon="3.3623567"><ele>49.5</ele><time>2026-04-24T13:16:49.499Z</time></trkpt><trkpt lat="49.6811667" lon="3.3624217"><ele>49.25</ele><time>2026-04-24T13:16:51.498Z</time></trkpt><trkpt lat="49.681275" lon="3.3624783"><ele>49.0</ele><time>2026-04-24T13:16:53.498Z</time></trkpt><trkpt lat="49.6813867" lon="3.362535"><ele>49.0</ele><time>2026-04-24T13:16:55.499Z</time></trkpt><trkpt lat="49.681495" lon="3.362595"><ele>49.0</ele><time>2026-04-24T13:16:57.498Z</time></trkpt><trkpt lat="49.6816033" lon="3.362665"><ele>49.0</ele><time>2026-04-24T13:16:59.496Z</time></trkpt><trkpt lat="49.68171" lon="3.3627217"><ele>49.0</ele><time>2026-04-24T13:17:01.496Z</time></trkpt><trkpt lat="49.68182" lon="3.362795"><ele>49.0</ele><time>2026-04-24T13:17:03.496Z</time></trkpt><trkpt lat="49.68192" lon="3.362855"><ele>49.0</ele><time>2026-04-24T13:17:05.497Z</time></trkpt><trkpt lat="49.68203" lon="3.3629183"><ele>49.0</ele><time>2026-04-24T13:17:07.496Z</time></trkpt><trkpt lat="49.6821417" lon="3.3629733"><ele>49.0</ele><time>2026-04-24T13:17:09.494Z</time></trkpt><trkpt lat="49.6822533" lon="3.3630367"><ele>49.2</ele><time>2026-04-24T13:17:11.497Z</time></trkpt><trkpt lat="49.6823667" lon="3.363105"><ele>49.400000000000006</ele><time>2026-04-24T13:17:13.497Z</time></trkpt><trkpt lat="49.6824767" lon="3.3631717"><ele>49.6</ele><time>2026-04-24T13:17:15.497Z</time></trkpt><trkpt lat="49.68259" lon="3.3632467"><ele>49.8</ele><time>2026-04-24T13:17:17.496Z</time></trkpt><trkpt lat="49.682655" lon="3.3632883"><ele>50.0</ele><time>2026-04-24T13:17:18.497Z</time></trkpt><trkpt lat="49.682715" lon="3.3633283"><ele>50.25</ele><time>2026-04-24T13:17:19.496Z</time></trkpt><trkpt lat="49.6828267" lon="3.3633833"><ele>50.5</ele><time>2026-04-24T13:17:21.496Z</time></trkpt><trkpt lat="49.6829367" lon="3.36344"><ele>50.75</ele><time>2026-04-24T13:17:23.497Z</time></trkpt><trkpt lat="49.6830483" lon="3.3635017"><ele>51.0</ele><time>2026-04-24T13:17:25.496Z</time></trkpt><trkpt lat="49.6831567" lon="3.36356"><ele>51.0</ele><time>2026-04-24T13:17:27.495Z</time></trkpt><trkpt lat="49.6832683" lon="3.3636217"><ele>51.0</ele><time>2026-04-24T13:17:29.496Z</time></trkpt><trkpt lat="49.6833783" lon="3.3636867"><ele>51.0</ele><time>2026-04-24T13:17:31.496Z</time></trkpt><trkpt lat="49.68349" lon="3.3637517"><ele>51.0</ele><time>2026-04-24T13:17:33.495Z</time></trkpt><trkpt lat="49.6835983" lon="3.36382"><ele>50.75</ele><time>2026-04-24T13:17:35.495Z</time></trkpt><trkpt lat="49.6837033" lon="3.36389"><ele>50.5</ele><time>2026-04-24T13:17:37.495Z</time></trkpt><trkpt lat="49.6838117" lon="3.3639617"><ele>50.25</ele><time>2026-04-24T13:17:39.495Z</time></trkpt><trkpt lat="49.68392" lon="3.3640233"><ele>50.0</ele><time>2026-04-24T13:17:41.496Z</time></trkpt><trkpt lat="49.68402" lon="3.3640767"><ele>50.0</ele><time>2026-04-24T13:17:43.495Z</time></trkpt><trkpt lat="49.6841267" lon="3.364135"><ele>50.0</ele><time>2026-04-24T13:17:45.496Z</time></trkpt><trkpt lat="49.6842383" lon="3.3642033"><ele>50.0</ele><time>2026-04-24T13:17:47.497Z</time></trkpt><trkpt lat="49.68435" lon="3.36427"><ele>50.0</ele><time>2026-04-24T13:17:49.496Z</time></trkpt><trkpt lat="49.6844633" lon="3.36433"><ele>50.0</ele><time>2026-04-24T13:17:51.497Z</time></trkpt><trkpt lat="49.6845733" lon="3.364395"><ele>50.0</ele><time>2026-04-24T13:17:53.497Z</time></trkpt><trkpt lat="49.6846833" lon="3.36446"><ele>50.0</ele><time>2026-04-24T13:17:55.496Z</time></trkpt><trkpt lat="49.68479" lon="3.3645233"><ele>50.0</ele><time>2026-04-24T13:17:57.495Z</time></trkpt><trkpt lat="49.6849067" lon="3.3645833"><ele>50.0</ele><time>2026-04-24T13:17:59.497Z</time></trkpt><trkpt lat="49.6850183" lon="3.3646533"><ele>50.0</ele><time>2026-04-24T13:18:01.496Z</time></trkpt><trkpt lat="49.6851283" lon="3.3647133"><ele>50.0</ele><time>2026-04-24T13:18:03.497Z</time></trkpt><trkpt lat="49.6852367" lon="3.3647717"><ele>50.0</ele><time>2026-04-24T13:18:05.496Z</time></trkpt><trkpt lat="49.6853483" lon="3.3648267"><ele>50.0</ele><time>2026-04-24T13:18:07.497Z</time></trkpt><trkpt lat="49.6854517" lon="3.364895"><ele>50.0</ele><time>2026-04-24T13:18:09.496Z</time></trkpt><trkpt lat="49.6855533" lon="3.3649617"><ele>50.0</ele><time>2026-04-24T13:18:11.497Z</time></trkpt><trkpt lat="49.6856583" lon="3.36503"><ele>50.0</ele><time>2026-04-24T13:18:13.495Z</time></trkpt><trkpt lat="49.6857633" lon="3.3651217"><ele>50.0</ele><time>2026-04-24T13:18:15.496Z</time></trkpt><trkpt lat="49.6858667" lon="3.365215"><ele>50.0</ele><time>2026-04-24T13:18:17.496Z</time></trkpt><trkpt lat="49.6859817" lon="3.36528"><ele>50.0</ele><time>2026-04-24T13:18:19.498Z</time></trkpt><trkpt lat="49.6860967" lon="3.36534"><ele>50.0</ele><time>2026-04-24T13:18:21.497Z</time></trkpt><trkpt lat="49.6862067" lon="3.3654083"><ele>50.6</ele><time>2026-04-24T13:18:23.496Z</time></trkpt><trkpt lat="49.686315" lon="3.365465"><ele>51.2</ele><time>2026-04-24T13:18:25.497Z</time></trkpt><trkpt lat="49.686425" lon="3.365485"><ele>51.8</ele><time>2026-04-24T13:18:27.496Z</time></trkpt><trkpt lat="49.68653" lon="3.3655167"><ele>52.4</ele><time>2026-04-24T13:18:29.495Z</time></trkpt><trkpt lat="49.6866283" lon="3.36557"><ele>53.0</ele><time>2026-04-24T13:18:31.497Z</time></trkpt><trkpt lat="49.68672" lon="3.3656317"><ele>53.0</ele><time>2026-04-24T13:18:33.496Z</time></trkpt><trkpt lat="49.6868167" lon="3.3656917"><ele>53.0</ele><time>2026-04-24T13:18:35.495Z</time></trkpt><trkpt lat="49.6869167" lon="3.365755"><ele>53.0</ele><time>2026-04-24T13:18:37.495Z</time></trkpt><trkpt lat="49.6870217" lon="3.3658167"><ele>53.0</ele><time>2026-04-24T13:18:39.497Z</time></trkpt><trkpt lat="49.6871217" lon="3.3658783"><ele>53.0</ele><time>2026-04-24T13:18:41.497Z</time></trkpt><trkpt lat="49.68723" lon="3.3659367"><ele>52.25</ele><time>2026-04-24T13:18:43.496Z</time></trkpt><trkpt lat="49.6873367" lon="3.365995"><ele>51.5</ele><time>2026-04-24T13:18:45.497Z</time></trkpt><trkpt lat="49.6874433" lon="3.3660667"><ele>50.75</ele><time>2026-04-24T13:18:47.496Z</time></trkpt><trkpt lat="49.6875517" lon="3.3661267"><ele>50.0</ele><time>2026-04-24T13:18:49.498Z</time></trkpt><trkpt lat="49.6876617" lon="3.3661867"><ele>50.25</ele><time>2026-04-24T13:18:51.496Z</time></trkpt><trkpt lat="49.6877733" lon="3.366245"><ele>50.5</ele><time>2026-04-24T13:18:53.497Z</time></trkpt><trkpt lat="49.6878817" lon="3.3663067"><ele>50.75</ele><time>2026-04-24T13:18:55.497Z</time></trkpt><trkpt lat="49.68799" lon="3.3663683"><ele>51.0</ele><time>2026-04-24T13:18:57.497Z</time></trkpt><trkpt lat="49.6881017" lon="3.3664433"><ele>51.0</ele><time>2026-04-24T13:18:59.497Z</time></trkpt><trkpt lat="49.68821" lon="3.3665017"><ele>51.0</ele><time>2026-04-24T13:19:01.497Z</time></trkpt><trkpt lat="49.6883183" lon="3.366565"><ele>51.0</ele><time>2026-04-24T13:19:03.5Z</time></trkpt><trkpt lat="49.6884267" lon="3.3666233"><ele>51.0</ele><time>2026-04-24T13:19:05.497Z</time></trkpt><trkpt lat="49.6885367" lon="3.3666867"><ele>51.0</ele><time>2026-04-24T13:19:07.496Z</time></trkpt><trkpt lat="49.68865" lon="3.3667517"><ele>51.0</ele><time>2026-04-24T13:19:09.498Z</time></trkpt><trkpt lat="49.6887633" lon="3.3668167"><ele>51.0</ele><time>2026-04-24T13:19:11.497Z</time></trkpt><trkpt lat="49.6888733" lon="3.3668767"><ele>51.0</ele><time>2026-04-24T13:19:13.496Z</time></trkpt><trkpt lat="49.6889833" lon="3.36694"><ele>51.0</ele><time>2026-04-24T13:19:15.497Z</time></trkpt><trkpt lat="49.6890933" lon="3.3670017"><ele>51.0</ele><time>2026-04-24T13:19:17.495Z</time></trkpt><trkpt lat="49.6892033" lon="3.36707"><ele>51.0</ele><time>2026-04-24T13:19:19.496Z</time></trkpt><trkpt lat="49.6893167" lon="3.3671333"><ele>51.0</ele><time>2026-04-24T13:19:21.496Z</time></trkpt><trkpt lat="49.6893783" lon="3.3671633"><ele>51.0</ele><time>2026-04-24T13:19:22.496Z</time></trkpt><trkpt lat="49.689485" lon="3.3672333"><ele>51.25</ele><time>2026-04-24T13:19:24.496Z</time></trkpt><trkpt lat="49.6896" lon="3.3673017"><ele>51.5</ele><time>2026-04-24T13:19:26.496Z</time></trkpt><trkpt lat="49.6897083" lon="3.36737"><ele>51.75</ele><time>2026-04-24T13:19:28.496Z</time></trkpt><trkpt lat="49.6898183" lon="3.367435"><ele>52.0</ele><time>2026-04-24T13:19:30.496Z</time></trkpt><trkpt lat="49.68993" lon="3.3674983"><ele>51.99999999999999</ele><time>2026-04-24T13:19:32.496Z</time></trkpt><trkpt lat="49.6900383" lon="3.3675583"><ele>52.0</ele><time>2026-04-24T13:19:34.497Z</time></trkpt><trkpt lat="49.6901417" lon="3.3676133"><ele>52.0</ele><time>2026-04-24T13:19:36.495Z</time></trkpt><trkpt lat="49.6902217" lon="3.3676517"><ele>52.0</ele><time>2026-04-24T13:19:38.498Z</time></trkpt><trkpt lat="49.6902833" lon="3.3676867"><ele>51.99999999999999</ele><time>2026-04-24T13:19:40.498Z</time></trkpt><trkpt lat="49.690345" lon="3.3677183"><ele>52.0</ele><time>2026-04-24T13:19:42.498Z</time></trkpt><trkpt lat="49.69043" lon="3.3677683"><ele>52.0</ele><time>2026-04-24T13:19:44.496Z</time></trkpt><trkpt lat="49.6905333" lon="3.3678283"><ele>52.0</ele><time>2026-04-24T13:19:46.498Z</time></trkpt><trkpt lat="49.6906383" lon="3.3678883"><ele>52.0</ele><time>2026-04-24T13:19:48.495Z</time></trkpt><trkpt lat="49.6907383" lon="3.3679517"><ele>52.0</ele><time>2026-04-24T13:19:50.497Z</time></trkpt><trkpt lat="49.6908417" lon="3.368015"><ele>52.0</ele><time>2026-04-24T13:19:52.495Z</time></trkpt><trkpt lat="49.690945" lon="3.368075"><ele>52.0</ele><time>2026-04-24T13:19:54.496Z</time></trkpt><trkpt lat="49.6910533" lon="3.3681317"><ele>52.0</ele><time>2026-04-24T13:19:56.497Z</time></trkpt><trkpt lat="49.6911567" lon="3.3681867"><ele>52.0</ele><time>2026-04-24T13:19:58.495Z</time></trkpt><trkpt lat="49.69127" lon="3.3682583"><ele>52.0</ele><time>2026-04-24T13:20:00.495Z</time></trkpt><trkpt lat="49.6913767" lon="3.3683267"><ele>51.75</ele><time>2026-04-24T13:20:02.496Z</time></trkpt><trkpt lat="49.6914833" lon="3.3683917"><ele>51.5</ele><time>2026-04-24T13:20:04.495Z</time></trkpt><trkpt lat="49.6915933" lon="3.3684617"><ele>51.25</ele><time>2026-04-24T13:20:06.497Z</time></trkpt><trkpt lat="49.6917117" lon="3.3685183"><ele>51.0</ele><time>2026-04-24T13:20:08.496Z</time></trkpt><trkpt lat="49.69183" lon="3.368585"><ele>51.5</ele><time>2026-04-24T13:20:10.498Z</time></trkpt><trkpt lat="49.69194" lon="3.3686433"><ele>52.0</ele><time>2026-04-24T13:20:12.498Z</time></trkpt><trkpt lat="49.69205" lon="3.368705"><ele>52.5</ele><time>2026-04-24T13:20:14.497Z</time></trkpt><trkpt lat="49.6921567" lon="3.36877"><ele>53.0</ele><time>2026-04-24T13:20:16.497Z</time></trkpt><trkpt lat="49.6922667" lon="3.368835"><ele>52.8</ele><time>2026-04-24T13:20:18.495Z</time></trkpt><trkpt lat="49.6923683" lon="3.3689033"><ele>52.599999999999994</ele><time>2026-04-24T13:20:20.497Z</time></trkpt><trkpt lat="49.6924667" lon="3.3689533"><ele>52.400000000000006</ele><time>2026-04-24T13:20:22.496Z</time></trkpt><trkpt lat="49.69257" lon="3.3690183"><ele>52.2</ele><time>2026-04-24T13:20:24.498Z</time></trkpt><trkpt lat="49.6926717" lon="3.36907"><ele>52.0</ele><time>2026-04-24T13:20:26.497Z</time></trkpt><trkpt lat="49.69278" lon="3.3691283"><ele>52.0</ele><time>2026-04-24T13:20:28.497Z</time></trkpt><trkpt lat="49.69289" lon="3.3691867"><ele>52.0</ele><time>2026-04-24T13:20:30.496Z</time></trkpt><trkpt lat="49.6929933" lon="3.3692417"><ele>52.0</ele><time>2026-04-24T13:20:32.496Z</time></trkpt><trkpt lat="49.6930933" lon="3.36929"><ele>52.0</ele><time>2026-04-24T13:20:34.496Z</time></trkpt><trkpt lat="49.6931983" lon="3.3693617"><ele>52.0</ele><time>2026-04-24T13:20:36.495Z</time></trkpt><trkpt lat="49.6933133" lon="3.36943"><ele>52.0</ele><time>2026-04-24T13:20:38.495Z</time></trkpt><trkpt lat="49.693425" lon="3.3695017"><ele>52.0</ele><time>2026-04-24T13:20:40.496Z</time></trkpt><trkpt lat="49.6935317" lon="3.36956"><ele>52.0</ele><time>2026-04-24T13:20:42.495Z</time></trkpt><trkpt lat="49.6936383" lon="3.3696283"><ele>52.0</ele><time>2026-04-24T13:20:44.497Z</time></trkpt><trkpt lat="49.6937383" lon="3.3696983"><ele>51.25</ele><time>2026-04-24T13:20:46.497Z</time></trkpt><trkpt lat="49.6938417" lon="3.3697667"><ele>50.5</ele><time>2026-04-24T13:20:48.497Z</time></trkpt><trkpt lat="49.6939483" lon="3.3698333"><ele>49.75</ele><time>2026-04-24T13:20:50.496Z</time></trkpt><trkpt lat="49.69406" lon="3.3698983"><ele>49.0</ele><time>2026-04-24T13:20:52.496Z</time></trkpt><trkpt lat="49.6941667" lon="3.3699667"><ele>49.0</ele><time>2026-04-24T13:20:54.495Z</time></trkpt><trkpt lat="49.694275" lon="3.370035"><ele>49.0</ele><time>2026-04-24T13:20:56.496Z</time></trkpt><trkpt lat="49.6943783" lon="3.3701067"><ele>49.0</ele><time>2026-04-24T13:20:58.495Z</time></trkpt><trkpt lat="49.6944367" lon="3.3701433"><ele>49.0</ele><time>2026-04-24T13:20:59.497Z</time></trkpt><trkpt lat="49.694495" lon="3.3701833"><ele>49.0</ele><time>2026-04-24T13:21:00.497Z</time></trkpt><trkpt lat="49.6946067" lon="3.3702383"><ele>49.400000000000006</ele><time>2026-04-24T13:21:02.496Z</time></trkpt><trkpt lat="49.6946667" lon="3.3702683"><ele>49.8</ele><time>2026-04-24T13:21:03.496Z</time></trkpt><trkpt lat="49.69478" lon="3.370335"><ele>50.2</ele><time>2026-04-24T13:21:05.497Z</time></trkpt><trkpt lat="49.6948967" lon="3.3703983"><ele>50.599999999999994</ele><time>2026-04-24T13:21:07.496Z</time></trkpt><trkpt lat="49.6950067" lon="3.3704533"><ele>51.0</ele><time>2026-04-24T13:21:09.497Z</time></trkpt><trkpt lat="49.695125" lon="3.3704983"><ele>51.0</ele><time>2026-04-24T13:21:11.497Z</time></trkpt><trkpt lat="49.6952417" lon="3.37054"><ele>51.0</ele><time>2026-04-24T13:21:13.497Z</time></trkpt><trkpt lat="49.695355" lon="3.3705817"><ele>51.0</ele><time>2026-04-24T13:21:15.498Z</time></trkpt><trkpt lat="49.69547" lon="3.3706183"><ele>51.0</ele><time>2026-04-24T13:21:17.495Z</time></trkpt><trkpt lat="49.6955933" lon="3.3706533"><ele>51.199999999999996</ele><time>2026-04-24T13:21:19.496Z</time></trkpt><trkpt lat="49.6956583" lon="3.3706667"><ele>51.4</ele><time>2026-04-24T13:21:20.496Z</time></trkpt><trkpt lat="49.6957783" lon="3.370685"><ele>51.6</ele><time>2026-04-24T13:21:22.496Z</time></trkpt><trkpt lat="49.6958933" lon="3.3706883"><ele>51.8</ele><time>2026-04-24T13:21:24.496Z</time></trkpt><trkpt lat="49.6960067" lon="3.37069"><ele>52.0</ele><time>2026-04-24T13:21:26.498Z</time></trkpt><trkpt lat="49.6961217" lon="3.370695"><ele>52.0</ele><time>2026-04-24T13:21:28.496Z</time></trkpt><trkpt lat="49.6962333" lon="3.370695"><ele>52.0</ele><time>2026-04-24T13:21:30.497Z</time></trkpt><trkpt lat="49.696345" lon="3.37069"><ele>52.0</ele><time>2026-04-24T13:21:32.497Z</time></trkpt><trkpt lat="49.6964583" lon="3.3706783"><ele>52.0</ele><time>2026-04-24T13:21:34.497Z</time></trkpt><trkpt lat="49.6965717" lon="3.3706617"><ele>52.0</ele><time>2026-04-24T13:21:36.497Z</time></trkpt><trkpt lat="49.6966833" lon="3.3706467"><ele>52.0</ele><time>2026-04-24T13:21:38.496Z</time></trkpt><trkpt lat="49.6967967" lon="3.3706317"><ele>52.0</ele><time>2026-04-24T13:21:40.496Z</time></trkpt><trkpt lat="49.69691" lon="3.3706083"><ele>52.0</ele><time>2026-04-24T13:21:42.496Z</time></trkpt><trkpt lat="49.6970283" lon="3.3705883"><ele>51.75</ele><time>2026-04-24T13:21:44.497Z</time></trkpt><trkpt lat="49.6971333" lon="3.37057"><ele>51.5</ele><time>2026-04-24T13:21:46.501Z</time></trkpt><trkpt lat="49.6972533" lon="3.3705417"><ele>51.25</ele><time>2026-04-24T13:21:48.498Z</time></trkpt><trkpt lat="49.6973717" lon="3.3705133"><ele>51.0</ele><time>2026-04-24T13:21:50.499Z</time></trkpt><trkpt lat="49.6974833" lon="3.370495"><ele>51.0</ele><time>2026-04-24T13:21:52.497Z</time></trkpt><trkpt lat="49.6976017" lon="3.3704717"><ele>51.0</ele><time>2026-04-24T13:21:54.498Z</time></trkpt><trkpt lat="49.6977233" lon="3.3704483"><ele>51.0</ele><time>2026-04-24T13:21:56.498Z</time></trkpt><trkpt lat="49.697845" lon="3.3704233"><ele>51.0</ele><time>2026-04-24T13:21:58.497Z</time></trkpt><trkpt lat="49.6979083" lon="3.3704117"><ele>51.0</ele><time>2026-04-24T13:21:59.497Z</time></trkpt><trkpt lat="49.6979783" lon="3.370395"><ele>51.4</ele><time>2026-04-24T13:22:00.498Z</time></trkpt><trkpt lat="49.698055" lon="3.3703733"><ele>51.8</ele><time>2026-04-24T13:22:01.497Z</time></trkpt><trkpt lat="49.6981783" lon="3.3703467"><ele>52.199999999999996</ele><time>2026-04-24T13:22:03.496Z</time></trkpt><trkpt lat="49.6982917" lon="3.3703333"><ele>52.599999999999994</ele><time>2026-04-24T13:22:05.498Z</time></trkpt><trkpt lat="49.6984067" lon="3.3703117"><ele>53.0</ele><time>2026-04-24T13:22:07.496Z</time></trkpt><trkpt lat="49.69847" lon="3.3702917"><ele>52.75</ele><time>2026-04-24T13:22:08.497Z</time></trkpt><trkpt lat="49.6985983" lon="3.3702667"><ele>52.5</ele><time>2026-04-24T13:22:10.496Z</time></trkpt><trkpt lat="49.6987133" lon="3.3702417"><ele>52.25</ele><time>2026-04-24T13:22:12.496Z</time></trkpt><trkpt lat="49.6988333" lon="3.37023"><ele>52.0</ele><time>2026-04-24T13:22:14.497Z</time></trkpt><trkpt lat="49.6989517" lon="3.370205"><ele>52.0</ele><time>2026-04-24T13:22:16.495Z</time></trkpt><trkpt lat="49.6990667" lon="3.3701767"><ele>52.0</ele><time>2026-04-24T13:22:18.496Z</time></trkpt><trkpt lat="49.69919" lon="3.37015"><ele>52.0</ele><time>2026-04-24T13:22:20.497Z</time></trkpt><trkpt lat="49.6993067" lon="3.370125"><ele>52.0</ele><time>2026-04-24T13:22:22.495Z</time></trkpt><trkpt lat="49.6994233" lon="3.370105"><ele>52.0</ele><time>2026-04-24T13:22:24.496Z</time></trkpt><trkpt lat="49.6994883" lon="3.370095"><ele>52.0</ele><time>2026-04-24T13:22:25.495Z</time></trkpt><trkpt lat="49.6995517" lon="3.3700817"><ele>52.0</ele><time>2026-04-24T13:22:26.496Z</time></trkpt><trkpt lat="49.6996617" lon="3.3700617"><ele>52.0</ele><time>2026-04-24T13:22:28.496Z</time></trkpt><trkpt lat="49.6997817" lon="3.37003"><ele>52.0</ele><time>2026-04-24T13:22:30.495Z</time></trkpt><trkpt lat="49.6999017" lon="3.3700083"><ele>52.0</ele><time>2026-04-24T13:22:32.496Z</time></trkpt><trkpt lat="49.7000117" lon="3.3699867"><ele>52.0</ele><time>2026-04-24T13:22:34.496Z</time></trkpt><trkpt lat="49.7001067" lon="3.3699717"><ele>52.0</ele><time>2026-04-24T13:22:36.497Z</time></trkpt><trkpt lat="49.7002017" lon="3.3699617"><ele>52.0</ele><time>2026-04-24T13:22:38.496Z</time></trkpt><trkpt lat="49.7002983" lon="3.3699583"><ele>52.0</ele><time>2026-04-24T13:22:40.496Z</time></trkpt><trkpt lat="49.700385" lon="3.3699467"><ele>52.2</ele><time>2026-04-24T13:22:42.498Z</time></trkpt><trkpt lat="49.7004783" lon="3.3699267"><ele>52.400000000000006</ele><time>2026-04-24T13:22:44.498Z</time></trkpt><trkpt lat="49.7005733" lon="3.3698983"><ele>52.599999999999994</ele><time>2026-04-24T13:22:46.497Z</time></trkpt><trkpt lat="49.7006733" lon="3.36987"><ele>52.8</ele><time>2026-04-24T13:22:48.496Z</time></trkpt><trkpt lat="49.70078" lon="3.369845"><ele>53.0</ele><time>2026-04-24T13:22:50.497Z</time></trkpt><trkpt lat="49.7008867" lon="3.369825"><ele>53.0</ele><time>2026-04-24T13:22:52.496Z</time></trkpt><trkpt lat="49.7009867" lon="3.3698"><ele>53.0</ele><time>2026-04-24T13:22:54.496Z</time></trkpt><trkpt lat="49.70109" lon="3.369785"><ele>53.0</ele><time>2026-04-24T13:22:56.497Z</time></trkpt><trkpt lat="49.7011883" lon="3.3697683"><ele>53.0</ele><time>2026-04-24T13:22:58.496Z</time></trkpt><trkpt lat="49.701295" lon="3.3697617"><ele>53.0</ele><time>2026-04-24T13:23:00.497Z</time></trkpt><trkpt lat="49.7014067" lon="3.3697467"><ele>53.2</ele><time>2026-04-24T13:23:02.496Z</time></trkpt><trkpt lat="49.7015217" lon="3.3697283"><ele>53.4</ele><time>2026-04-24T13:23:04.496Z</time></trkpt><trkpt lat="49.7016367" lon="3.3697117"><ele>53.60000000000001</ele><time>2026-04-24T13:23:06.496Z</time></trkpt><trkpt lat="49.70174" lon="3.369685"><ele>53.800000000000004</ele><time>2026-04-24T13:23:08.498Z</time></trkpt><trkpt lat="49.7018017" lon="3.369665"><ele>54.0</ele><time>2026-04-24T13:23:09.497Z</time></trkpt><trkpt lat="49.7019333" lon="3.3696317"><ele>54.166666666666664</ele><time>2026-04-24T13:23:11.496Z</time></trkpt><trkpt lat="49.7019967" lon="3.36962"><ele>54.33333333333333</ele><time>2026-04-24T13:23:12.497Z</time></trkpt><trkpt lat="49.7020617" lon="3.3696067"><ele>54.5</ele><time>2026-04-24T13:23:13.496Z</time></trkpt><trkpt lat="49.70213" lon="3.36959"><ele>54.666666666666664</ele><time>2026-04-24T13:23:14.496Z</time></trkpt><trkpt lat="49.7021933" lon="3.3695733"><ele>54.83333333333333</ele><time>2026-04-24T13:23:15.497Z</time></trkpt><trkpt lat="49.70231" lon="3.3695517"><ele>55.0</ele><time>2026-04-24T13:23:17.495Z</time></trkpt><trkpt lat="49.7024367" lon="3.3695317"><ele>54.99999999999999</ele><time>2026-04-24T13:23:19.497Z</time></trkpt><trkpt lat="49.7025067" lon="3.3695167"><ele>55.0</ele><time>2026-04-24T13:23:20.498Z</time></trkpt><trkpt lat="49.7025767" lon="3.3694967"><ele>55.0</ele><time>2026-04-24T13:23:21.496Z</time></trkpt><trkpt lat="49.7026433" lon="3.36948"><ele>55.0</ele><time>2026-04-24T13:23:22.497Z</time></trkpt><trkpt lat="49.7027583" lon="3.3694633"><ele>54.99999999999999</ele><time>2026-04-24T13:23:24.497Z</time></trkpt><trkpt lat="49.702875" lon="3.369445"><ele>55.0</ele><time>2026-04-24T13:23:26.496Z</time></trkpt><trkpt lat="49.7029417" lon="3.3694333"><ele>54.6</ele><time>2026-04-24T13:23:27.496Z</time></trkpt><trkpt lat="49.70306" lon="3.3694183"><ele>54.2</ele><time>2026-04-24T13:23:29.496Z</time></trkpt><trkpt lat="49.7031283" lon="3.3694033"><ele>53.8</ele><time>2026-04-24T13:23:30.496Z</time></trkpt><trkpt lat="49.7032433" lon="3.369395"><ele>53.4</ele><time>2026-04-24T13:23:32.496Z</time></trkpt><trkpt lat="49.703355" lon="3.3694017"><ele>53.0</ele><time>2026-04-24T13:23:34.497Z</time></trkpt><trkpt lat="49.7034767" lon="3.3693967"><ele>53.00000000000001</ele><time>2026-04-24T13:23:36.496Z</time></trkpt><trkpt lat="49.703595" lon="3.36938"><ele>53.0</ele><time>2026-04-24T13:23:38.496Z</time></trkpt><trkpt lat="49.7037183" lon="3.3693533"><ele>53.0</ele><time>2026-04-24T13:23:40.496Z</time></trkpt><trkpt lat="49.7037817" lon="3.3693383"><ele>53.0</ele><time>2026-04-24T13:23:41.496Z</time></trkpt><trkpt lat="49.703845" lon="3.3693133"><ele>53.00000000000001</ele><time>2026-04-24T13:23:42.497Z</time></trkpt><trkpt lat="49.7039067" lon="3.3692817"><ele>53.0</ele><time>2026-04-24T13:23:43.498Z</time></trkpt><trkpt lat="49.7039717" lon="3.3692533"><ele>53.0</ele><time>2026-04-24T13:23:44.496Z</time></trkpt><trkpt lat="49.704035" lon="3.3692283"><ele>53.0</ele><time>2026-04-24T13:23:45.497Z</time></trkpt><trkpt lat="49.7041583" lon="3.369195"><ele>53.0</ele><time>2026-04-24T13:23:47.498Z</time></trkpt><trkpt lat="49.70428" lon="3.3691667"><ele>53.0</ele><time>2026-04-24T13:23:49.497Z</time></trkpt><trkpt lat="49.7043983" lon="3.3691383"><ele>53.0</ele><time>2026-04-24T13:23:51.497Z</time></trkpt><trkpt lat="49.7044633" lon="3.3691217"><ele>53.5</ele><time>2026-04-24T13:23:52.497Z</time></trkpt><trkpt lat="49.704585" lon="3.3691017"><ele>54.0</ele><time>2026-04-24T13:23:54.496Z</time></trkpt><trkpt lat="49.7047067" lon="3.369085"><ele>54.5</ele><time>2026-04-24T13:23:56.496Z</time></trkpt><trkpt lat="49.7048167" lon="3.3690617"><ele>55.0</ele><time>2026-04-24T13:23:58.495Z</time></trkpt><trkpt lat="49.7049267" lon="3.3690367"><ele>54.99999999999999</ele><time>2026-04-24T13:24:00.497Z</time></trkpt><trkpt lat="49.7050483" lon="3.3690183"><ele>55.0</ele><time>2026-04-24T13:24:02.498Z</time></trkpt><trkpt lat="49.7051133" lon="3.369005"><ele>55.0</ele><time>2026-04-24T13:24:03.496Z</time></trkpt><trkpt lat="49.7051783" lon="3.3689933"><ele>55.0</ele><time>2026-04-24T13:24:04.497Z</time></trkpt><trkpt lat="49.7053017" lon="3.368975"><ele>54.99999999999999</ele><time>2026-04-24T13:24:06.497Z</time></trkpt><trkpt lat="49.705365" lon="3.3689717"><ele>55.0</ele><time>2026-04-24T13:24:07.498Z</time></trkpt><trkpt lat="49.7054283" lon="3.368965"><ele>54.99999999999999</ele><time>2026-04-24T13:24:08.498Z</time></trkpt><trkpt lat="49.705555" lon="3.3689433"><ele>55.0</ele><time>2026-04-24T13:24:10.498Z</time></trkpt><trkpt lat="49.7056217" lon="3.3689317"><ele>55.0</ele><time>2026-04-24T13:24:11.498Z</time></trkpt><trkpt lat="49.705685" lon="3.368915"><ele>55.0</ele><time>2026-04-24T13:24:12.497Z</time></trkpt><trkpt lat="49.70575" lon="3.3689"><ele>54.99999999999999</ele><time>2026-04-24T13:24:13.498Z</time></trkpt><trkpt lat="49.7058533" lon="3.3688733"><ele>55.0</ele><time>2026-04-24T13:24:15.496Z</time></trkpt><trkpt lat="49.7059783" lon="3.3688433"><ele>55.0</ele><time>2026-04-24T13:24:17.496Z</time></trkpt><trkpt lat="49.7060433" lon="3.3688283"><ele>55.0</ele><time>2026-04-24T13:24:18.495Z</time></trkpt><trkpt lat="49.7061083" lon="3.36882"><ele>55.0</ele><time>2026-04-24T13:24:19.496Z</time></trkpt><trkpt lat="49.7062333" lon="3.3687933"><ele>55.0</ele><time>2026-04-24T13:24:21.497Z</time></trkpt><trkpt lat="49.7063567" lon="3.36877"><ele>55.0</ele><time>2026-04-24T13:24:23.498Z</time></trkpt><trkpt lat="49.7064767" lon="3.3687517"><ele>54.8</ele><time>2026-04-24T13:24:25.501Z</time></trkpt><trkpt lat="49.70654" lon="3.3687367"><ele>54.6</ele><time>2026-04-24T13:24:26.496Z</time></trkpt><trkpt lat="49.70666" lon="3.368715"><ele>54.400000000000006</ele><time>2026-04-24T13:24:28.497Z</time></trkpt><trkpt lat="49.7067783" lon="3.36869"><ele>54.2</ele><time>2026-04-24T13:24:30.498Z</time></trkpt><trkpt lat="49.7069017" lon="3.3686733"><ele>54.0</ele><time>2026-04-24T13:24:32.497Z</time></trkpt><trkpt lat="49.7070233" lon="3.3686483"><ele>53.75</ele><time>2026-04-24T13:24:34.495Z</time></trkpt><trkpt lat="49.7071367" lon="3.3686333"><ele>53.5</ele><time>2026-04-24T13:24:36.497Z</time></trkpt><trkpt lat="49.707245" lon="3.3686167"><ele>53.25</ele><time>2026-04-24T13:24:38.497Z</time></trkpt><trkpt lat="49.7073583" lon="3.3685933"><ele>53.0</ele><time>2026-04-24T13:24:40.496Z</time></trkpt><trkpt lat="49.7074767" lon="3.3685667"><ele>53.0</ele><time>2026-04-24T13:24:42.496Z</time></trkpt><trkpt lat="49.7075917" lon="3.3685467"><ele>53.0</ele><time>2026-04-24T13:24:44.496Z</time></trkpt><trkpt lat="49.7077117" lon="3.3685267"><ele>53.0</ele><time>2026-04-24T13:24:46.496Z</time></trkpt><trkpt lat="49.7078333" lon="3.3685083"><ele>53.0</ele><time>2026-04-24T13:24:48.496Z</time></trkpt><trkpt lat="49.7079517" lon="3.368485"><ele>53.0</ele><time>2026-04-24T13:24:50.496Z</time></trkpt><trkpt lat="49.708015" lon="3.3684733"><ele>53.0</ele><time>2026-04-24T13:24:51.496Z</time></trkpt><trkpt lat="49.7080783" lon="3.3684617"><ele>53.0</ele><time>2026-04-24T13:24:52.495Z</time></trkpt><trkpt lat="49.7082" lon="3.3684483"><ele>53.0</ele><time>2026-04-24T13:24:54.496Z</time></trkpt><trkpt lat="49.7083117" lon="3.3684367"><ele>53.0</ele><time>2026-04-24T13:24:56.496Z</time></trkpt><trkpt lat="49.70843" lon="3.368415"><ele>53.00000000000001</ele><time>2026-04-24T13:24:58.496Z</time></trkpt><trkpt lat="49.70855" lon="3.3683883"><ele>53.0</ele><time>2026-04-24T13:25:00.496Z</time></trkpt><trkpt lat="49.7086117" lon="3.3683667"><ele>53.0</ele><time>2026-04-24T13:25:01.496Z</time></trkpt><trkpt lat="49.7087367" lon="3.3683333"><ele>53.0</ele><time>2026-04-24T13:25:03.495Z</time></trkpt><trkpt lat="49.7088033" lon="3.3683217"><ele>53.00000000000001</ele><time>2026-04-24T13:25:04.496Z</time></trkpt><trkpt lat="49.7088683" lon="3.3683083"><ele>53.0</ele><time>2026-04-24T13:25:05.497Z</time></trkpt><trkpt lat="49.7089333" lon="3.3682933"><ele>53.2</ele><time>2026-04-24T13:25:06.497Z</time></trkpt><trkpt lat="49.7090033" lon="3.36828"><ele>53.4</ele><time>2026-04-24T13:25:07.496Z</time></trkpt><trkpt lat="49.7090767" lon="3.368265"><ele>53.60000000000001</ele><time>2026-04-24T13:25:08.496Z</time></trkpt><trkpt lat="49.7091433" lon="3.3682467"><ele>53.800000000000004</ele><time>2026-04-24T13:25:09.495Z</time></trkpt><trkpt lat="49.7092683" lon="3.3682167"><ele>54.0</ele><time>2026-04-24T13:25:11.497Z</time></trkpt><trkpt lat="49.7093933" lon="3.36819"><ele>54.0</ele><time>2026-04-24T13:25:13.496Z</time></trkpt><trkpt lat="49.7094583" lon="3.3681783"><ele>54.0</ele><time>2026-04-24T13:25:14.496Z</time></trkpt><trkpt lat="49.7095217" lon="3.3681667"><ele>54.0</ele><time>2026-04-24T13:25:15.497Z</time></trkpt><trkpt lat="49.7095867" lon="3.368155"><ele>54.0</ele><time>2026-04-24T13:25:16.496Z</time></trkpt><trkpt lat="49.7097133" lon="3.3681317"><ele>54.0</ele><time>2026-04-24T13:25:18.496Z</time></trkpt><trkpt lat="49.70978" lon="3.3681183"><ele>54.0</ele><time>2026-04-24T13:25:19.497Z</time></trkpt><trkpt lat="49.709845" lon="3.3681"><ele>54.0</ele><time>2026-04-24T13:25:20.496Z</time></trkpt><trkpt lat="49.709965" lon="3.3680733"><ele>54.0</ele><time>2026-04-24T13:25:22.497Z</time></trkpt><trkpt lat="49.710085" lon="3.36805"><ele>54.0</ele><time>2026-04-24T13:25:24.497Z</time></trkpt><trkpt lat="49.7102017" lon="3.368015"><ele>54.0</ele><time>2026-04-24T13:25:26.499Z</time></trkpt><trkpt lat="49.71032" lon="3.3679933"><ele>54.0</ele><time>2026-04-24T13:25:28.497Z</time></trkpt><trkpt lat="49.710435" lon="3.3679783"><ele>54.00000000000001</ele><time>2026-04-24T13:25:30.495Z</time></trkpt><trkpt lat="49.7104983" lon="3.36797"><ele>54.00000000000001</ele><time>2026-04-24T13:25:31.495Z</time></trkpt><trkpt lat="49.71062" lon="3.367955"><ele>54.0</ele><time>2026-04-24T13:25:33.495Z</time></trkpt><trkpt lat="49.7107333" lon="3.3679433"><ele>54.0</ele><time>2026-04-24T13:25:35.495Z</time></trkpt><trkpt lat="49.7108483" lon="3.3679283"><ele>54.0</ele><time>2026-04-24T13:25:37.497Z</time></trkpt><trkpt lat="49.71096" lon="3.3679067"><ele>54.00000000000001</ele><time>2026-04-24T13:25:39.496Z</time></trkpt><trkpt lat="49.7110283" lon="3.3678917"><ele>54.00000000000001</ele><time>2026-04-24T13:25:40.496Z</time></trkpt><trkpt lat="49.7111467" lon="3.367865"><ele>54.0</ele><time>2026-04-24T13:25:42.496Z</time></trkpt><trkpt lat="49.7112617" lon="3.36784"><ele>54.0</ele><time>2026-04-24T13:25:44.496Z</time></trkpt><trkpt lat="49.7113817" lon="3.3678167"><ele>53.800000000000004</ele><time>2026-04-24T13:25:46.497Z</time></trkpt><trkpt lat="49.7115017" lon="3.3677967"><ele>53.60000000000001</ele><time>2026-04-24T13:25:48.497Z</time></trkpt><trkpt lat="49.7116117" lon="3.3677767"><ele>53.4</ele><time>2026-04-24T13:25:50.496Z</time></trkpt><trkpt lat="49.7117183" lon="3.3677533"><ele>53.2</ele><time>2026-04-24T13:25:52.497Z</time></trkpt><trkpt lat="49.7117833" lon="3.36774"><ele>53.0</ele><time>2026-04-24T13:25:53.497Z</time></trkpt><trkpt lat="49.7118983" lon="3.36772"><ele>53.0</ele><time>2026-04-24T13:25:55.496Z</time></trkpt><trkpt lat="49.7120117" lon="3.3677"><ele>53.0</ele><time>2026-04-24T13:25:57.497Z</time></trkpt><trkpt lat="49.712135" lon="3.3676817"><ele>53.0</ele><time>2026-04-24T13:25:59.497Z</time></trkpt><trkpt lat="49.71225" lon="3.3676683"><ele>53.0</ele><time>2026-04-24T13:26:01.496Z</time></trkpt><trkpt lat="49.712365" lon="3.36765"><ele>53.0</ele><time>2026-04-24T13:26:03.497Z</time></trkpt><trkpt lat="49.7124833" lon="3.3676217"><ele>53.0</ele><time>2026-04-24T13:26:05.497Z</time></trkpt><trkpt lat="49.7125983" lon="3.3676017"><ele>53.0</ele><time>2026-04-24T13:26:07.496Z</time></trkpt><trkpt lat="49.7127167" lon="3.3675833"><ele>53.0</ele><time>2026-04-24T13:26:09.499Z</time></trkpt><trkpt lat="49.7128283" lon="3.3675633"><ele>54.0</ele><time>2026-04-24T13:26:11.496Z</time></trkpt><trkpt lat="49.7129433" lon="3.3675433"><ele>55.0</ele><time>2026-04-24T13:26:13.496Z</time></trkpt><trkpt lat="49.71306" lon="3.367525"><ele>56.0</ele><time>2026-04-24T13:26:15.497Z</time></trkpt><trkpt lat="49.7131767" lon="3.3675"><ele>57.0</ele><time>2026-04-24T13:26:17.499Z</time></trkpt><trkpt lat="49.7132933" lon="3.36747"><ele>57.0</ele><time>2026-04-24T13:26:19.5Z</time></trkpt><trkpt lat="49.7134133" lon="3.3674467"><ele>57.0</ele><time>2026-04-24T13:26:21.498Z</time></trkpt><trkpt lat="49.7134783" lon="3.3674383"><ele>57.0</ele><time>2026-04-24T13:26:22.498Z</time></trkpt><trkpt lat="49.7135433" lon="3.3674267"><ele>57.0</ele><time>2026-04-24T13:26:23.498Z</time></trkpt><trkpt lat="49.71361" lon="3.367415"><ele>57.0</ele><time>2026-04-24T13:26:24.497Z</time></trkpt><trkpt lat="49.7136783" lon="3.3674017"><ele>57.0</ele><time>2026-04-24T13:26:25.497Z</time></trkpt><trkpt lat="49.713745" lon="3.3673867"><ele>56.8</ele><time>2026-04-24T13:26:26.496Z</time></trkpt><trkpt lat="49.7138183" lon="3.3673683"><ele>56.6</ele><time>2026-04-24T13:26:27.496Z</time></trkpt><trkpt lat="49.71394" lon="3.367345"><ele>56.39999999999999</ele><time>2026-04-24T13:26:29.497Z</time></trkpt><trkpt lat="49.7140533" lon="3.3673267"><ele>56.199999999999996</ele><time>2026-04-24T13:26:31.495Z</time></trkpt><trkpt lat="49.7141583" lon="3.3673067"><ele>56.0</ele><time>2026-04-24T13:26:33.495Z</time></trkpt><trkpt lat="49.7142467" lon="3.3672817"><ele>56.0</ele><time>2026-04-24T13:26:35.496Z</time></trkpt><trkpt lat="49.7143217" lon="3.36723"><ele>55.99999999999999</ele><time>2026-04-24T13:26:37.495Z</time></trkpt><trkpt lat="49.7144033" lon="3.3671617"><ele>55.99999999999999</ele><time>2026-04-24T13:26:39.495Z</time></trkpt><trkpt lat="49.7144883" lon="3.3670717"><ele>56.0</ele><time>2026-04-24T13:26:41.495Z</time></trkpt><trkpt lat="49.7145833" lon="3.36699"><ele>56.0</ele><time>2026-04-24T13:26:43.496Z</time></trkpt><trkpt lat="49.7146833" lon="3.3669"><ele>55.4</ele><time>2026-04-24T13:26:45.496Z</time></trkpt><trkpt lat="49.7147817" lon="3.3668133"><ele>54.8</ele><time>2026-04-24T13:26:47.495Z</time></trkpt><trkpt lat="49.714875" lon="3.3667417"><ele>54.199999999999996</ele><time>2026-04-24T13:26:49.497Z</time></trkpt><trkpt lat="49.714965" lon="3.3666917"><ele>53.599999999999994</ele><time>2026-04-24T13:26:51.498Z</time></trkpt><trkpt lat="49.71506" lon="3.3666717"><ele>53.0</ele><time>2026-04-24T13:26:53.495Z</time></trkpt><trkpt lat="49.7151433" lon="3.366645"><ele>53.00000000000001</ele><time>2026-04-24T13:26:55.495Z</time></trkpt><trkpt lat="49.7152283" lon="3.366625"><ele>53.0</ele><time>2026-04-24T13:26:57.496Z</time></trkpt><trkpt lat="49.71531" lon="3.3666183"><ele>53.0</ele><time>2026-04-24T13:26:59.497Z</time></trkpt><trkpt lat="49.7153817" lon="3.3666167"><ele>53.0</ele><time>2026-04-24T13:27:01.496Z</time></trkpt><trkpt lat="49.71548" lon="3.3665883"><ele>53.00000000000001</ele><time>2026-04-24T13:27:04.495Z</time></trkpt><trkpt lat="49.7155633" lon="3.3665733"><ele>53.0</ele><time>2026-04-24T13:27:06.496Z</time></trkpt><trkpt lat="49.7156517" lon="3.366555"><ele>52.8</ele><time>2026-04-24T13:27:08.496Z</time></trkpt><trkpt lat="49.7157467" lon="3.36653"><ele>52.599999999999994</ele><time>2026-04-24T13:27:10.497Z</time></trkpt><trkpt lat="49.715855" lon="3.366515"><ele>52.400000000000006</ele><time>2026-04-24T13:27:12.496Z</time></trkpt><trkpt lat="49.7159683" lon="3.3665017"><ele>52.2</ele><time>2026-04-24T13:27:14.498Z</time></trkpt><trkpt lat="49.7160683" lon="3.36649"><ele>52.0</ele><time>2026-04-24T13:27:16.498Z</time></trkpt><trkpt lat="49.7161583" lon="3.3664783"><ele>52.33333333333333</ele><time>2026-04-24T13:27:18.496Z</time></trkpt><trkpt lat="49.7162433" lon="3.366475"><ele>52.666666666666664</ele><time>2026-04-24T13:27:20.497Z</time></trkpt><trkpt lat="49.7163217" lon="3.366465"><ele>53.0</ele><time>2026-04-24T13:27:22.498Z</time></trkpt><trkpt lat="49.7164" lon="3.3664633"><ele>53.33333333333333</ele><time>2026-04-24T13:27:24.498Z</time></trkpt><trkpt lat="49.716495" lon="3.36645"><ele>53.666666666666664</ele><time>2026-04-24T13:27:26.498Z</time></trkpt><trkpt lat="49.7165917" lon="3.3664317"><ele>54.0</ele><time>2026-04-24T13:27:28.498Z</time></trkpt><trkpt lat="49.7166783" lon="3.3663967"><ele>53.800000000000004</ele><time>2026-04-24T13:27:30.496Z</time></trkpt><trkpt lat="49.7167317" lon="3.3663183"><ele>53.60000000000001</ele><time>2026-04-24T13:27:32.496Z</time></trkpt><trkpt lat="49.7167517" lon="3.3661567"><ele>53.4</ele><time>2026-04-24T13:27:34.497Z</time></trkpt><trkpt lat="49.7167433" lon="3.3660017"><ele>53.2</ele><time>2026-04-24T13:27:36.497Z</time></trkpt><trkpt lat="49.7167283" lon="3.3658567"><ele>53.0</ele><time>2026-04-24T13:27:38.496Z</time></trkpt><trkpt lat="49.716715" lon="3.3657233"><ele>53.0</ele><time>2026-04-24T13:27:40.499Z</time></trkpt><trkpt lat="49.7166967" lon="3.3655683"><ele>53.0</ele><time>2026-04-24T13:27:42.498Z</time></trkpt><trkpt lat="49.7166617" lon="3.3654083"><ele>53.0</ele><time>2026-04-24T13:27:44.497Z</time></trkpt><trkpt lat="49.7166233" lon="3.3652617"><ele>53.0</ele><time>2026-04-24T13:27:46.497Z</time></trkpt><trkpt lat="49.7165783" lon="3.3651233"><ele>53.0</ele><time>2026-04-24T13:27:48.496Z</time></trkpt><trkpt lat="49.71652" lon="3.36499"><ele>52.8</ele><time>2026-04-24T13:27:50.496Z</time></trkpt><trkpt lat="49.71646" lon="3.3648317"><ele>52.599999999999994</ele><time>2026-04-24T13:27:52.497Z</time></trkpt><trkpt lat="49.7164083" lon="3.3646517"><ele>52.400000000000006</ele><time>2026-04-24T13:27:54.498Z</time></trkpt><trkpt lat="49.71636" lon="3.3644733"><ele>52.2</ele><time>2026-04-24T13:27:56.498Z</time></trkpt><trkpt lat="49.716335" lon="3.3643833"><ele>52.0</ele><time>2026-04-24T13:27:57.498Z</time></trkpt><trkpt lat="49.7162833" lon="3.3642067"><ele>52.0</ele><time>2026-04-24T13:27:59.498Z</time></trkpt><trkpt lat="49.71623" lon="3.3640283"><ele>52.0</ele><time>2026-04-24T13:28:01.499Z</time></trkpt><trkpt lat="49.7161883" lon="3.3638467"><ele>52.0</ele><time>2026-04-24T13:28:03.498Z</time></trkpt><trkpt lat="49.7161683" lon="3.3637533"><ele>52.0</ele><time>2026-04-24T13:28:04.497Z</time></trkpt><trkpt lat="49.7161283" lon="3.3635717"><ele>52.0</ele><time>2026-04-24T13:28:06.498Z</time></trkpt><trkpt lat="49.71609" lon="3.3633933"><ele>52.25</ele><time>2026-04-24T13:28:08.498Z</time></trkpt><trkpt lat="49.7160583" lon="3.3632217"><ele>52.5</ele><time>2026-04-24T13:28:10.498Z</time></trkpt><trkpt lat="49.7160233" lon="3.3630417"><ele>52.75</ele><time>2026-04-24T13:28:12.499Z</time></trkpt><trkpt lat="49.7159867" lon="3.3628683"><ele>53.0</ele><time>2026-04-24T13:28:14.498Z</time></trkpt><trkpt lat="49.71595" lon="3.3626983"><ele>53.5</ele><time>2026-04-24T13:28:16.496Z</time></trkpt><trkpt lat="49.7159083" lon="3.3625367"><ele>54.0</ele><time>2026-04-24T13:28:18.496Z</time></trkpt><trkpt lat="49.7158717" lon="3.362375"><ele>54.5</ele><time>2026-04-24T13:28:20.498Z</time></trkpt><trkpt lat="49.7158367" lon="3.362205"><ele>55.0</ele><time>2026-04-24T13:28:22.498Z</time></trkpt><trkpt lat="49.71581" lon="3.3620183"><ele>55.0</ele><time>2026-04-24T13:28:24.499Z</time></trkpt><trkpt lat="49.715805" lon="3.3618283"><ele>55.0</ele><time>2026-04-24T13:28:26.498Z</time></trkpt><trkpt lat="49.7158317" lon="3.36164"><ele>55.0</ele><time>2026-04-24T13:28:28.498Z</time></trkpt><trkpt lat="49.7158733" lon="3.36146"><ele>55.0</ele><time>2026-04-24T13:28:30.498Z</time></trkpt><trkpt lat="49.7159383" lon="3.3613"><ele>54.5</ele><time>2026-04-24T13:28:32.497Z</time></trkpt><trkpt lat="49.716005" lon="3.3611417"><ele>54.0</ele><time>2026-04-24T13:28:34.497Z</time></trkpt><trkpt lat="49.716075" lon="3.360985"><ele>53.5</ele><time>2026-04-24T13:28:36.497Z</time></trkpt><trkpt lat="49.7161367" lon="3.360815"><ele>53.0</ele><time>2026-04-24T13:28:38.497Z</time></trkpt><trkpt lat="49.7162" lon="3.36066"><ele>53.00000000000001</ele><time>2026-04-24T13:28:40.498Z</time></trkpt><trkpt lat="49.7162633" lon="3.3605133"><ele>53.0</ele><time>2026-04-24T13:28:42.498Z</time></trkpt><trkpt lat="49.7163283" lon="3.3603483"><ele>53.0</ele><time>2026-04-24T13:28:44.496Z</time></trkpt><trkpt lat="49.7163617" lon="3.3602533"><ele>53.0</ele><time>2026-04-24T13:28:45.497Z</time></trkpt><trkpt lat="49.7163917" lon="3.3601617"><ele>53.00000000000001</ele><time>2026-04-24T13:28:46.496Z</time></trkpt><trkpt lat="49.7164183" lon="3.3600733"><ele>53.0</ele><time>2026-04-24T13:28:47.497Z</time></trkpt><trkpt lat="49.7164483" lon="3.359985"><ele>53.0</ele><time>2026-04-24T13:28:48.496Z</time></trkpt><trkpt lat="49.716505" lon="3.3598233"><ele>53.0</ele><time>2026-04-24T13:28:50.499Z</time></trkpt><trkpt lat="49.716565" lon="3.3596683"><ele>53.0</ele><time>2026-04-24T13:28:52.498Z</time></trkpt><trkpt lat="49.716635" lon="3.3595033"><ele>53.0</ele><time>2026-04-24T13:28:54.497Z</time></trkpt><trkpt lat="49.7166733" lon="3.35942"><ele>53.0</ele><time>2026-04-24T13:28:55.499Z</time></trkpt><trkpt lat="49.71671" lon="3.3593383"><ele>52.8</ele><time>2026-04-24T13:28:56.498Z</time></trkpt><trkpt lat="49.7167817" lon="3.3591783"><ele>52.599999999999994</ele><time>2026-04-24T13:28:58.498Z</time></trkpt><trkpt lat="49.7168183" lon="3.3590967"><ele>52.400000000000006</ele><time>2026-04-24T13:28:59.499Z</time></trkpt><trkpt lat="49.716855" lon="3.3590167"><ele>52.2</ele><time>2026-04-24T13:29:00.496Z</time></trkpt><trkpt lat="49.7169233" lon="3.3588617"><ele>52.0</ele><time>2026-04-24T13:29:02.498Z</time></trkpt><trkpt lat="49.7169867" lon="3.3587167"><ele>52.6</ele><time>2026-04-24T13:29:04.498Z</time></trkpt><trkpt lat="49.71704" lon="3.3585717"><ele>53.2</ele><time>2026-04-24T13:29:06.498Z</time></trkpt><trkpt lat="49.717095" lon="3.3584167"><ele>53.8</ele><time>2026-04-24T13:29:08.499Z</time></trkpt><trkpt lat="49.7171417" lon="3.3582433"><ele>54.4</ele><time>2026-04-24T13:29:10.5Z</time></trkpt><trkpt lat="49.7171567" lon="3.3581483"><ele>55.0</ele><time>2026-04-24T13:29:11.498Z</time></trkpt><trkpt lat="49.717165" lon="3.3580483"><ele>55.2</ele><time>2026-04-24T13:29:12.496Z</time></trkpt><trkpt lat="49.71717" lon="3.35795"><ele>55.4</ele><time>2026-04-24T13:29:13.497Z</time></trkpt><trkpt lat="49.7171717" lon="3.3578517"><ele>55.599999999999994</ele><time>2026-04-24T13:29:14.498Z</time></trkpt><trkpt lat="49.7171567" lon="3.35766"><ele>55.8</ele><time>2026-04-24T13:29:16.496Z</time></trkpt><trkpt lat="49.717125" lon="3.3574883"><ele>56.0</ele><time>2026-04-24T13:29:18.496Z</time></trkpt><trkpt lat="49.717085" lon="3.3573217"><ele>56.0</ele><time>2026-04-24T13:29:20.497Z</time></trkpt><trkpt lat="49.7170417" lon="3.3571417"><ele>56.0</ele><time>2026-04-24T13:29:22.498Z</time></trkpt><trkpt lat="49.71699" lon="3.3569667"><ele>56.0</ele><time>2026-04-24T13:29:24.497Z</time></trkpt><trkpt lat="49.7169417" lon="3.35679"><ele>56.0</ele><time>2026-04-24T13:29:26.497Z</time></trkpt><trkpt lat="49.7168917" lon="3.356615"><ele>55.5</ele><time>2026-04-24T13:29:28.497Z</time></trkpt><trkpt lat="49.7168383" lon="3.3564433"><ele>55.0</ele><time>2026-04-24T13:29:30.498Z</time></trkpt><trkpt lat="49.7167917" lon="3.35628"><ele>54.5</ele><time>2026-04-24T13:29:32.499Z</time></trkpt><trkpt lat="49.7167433" lon="3.3561217"><ele>54.0</ele><time>2026-04-24T13:29:34.497Z</time></trkpt><trkpt lat="49.7166933" lon="3.3559567"><ele>54.0</ele><time>2026-04-24T13:29:36.498Z</time></trkpt><trkpt lat="49.7166417" lon="3.3557867"><ele>54.00000000000001</ele><time>2026-04-24T13:29:38.498Z</time></trkpt><trkpt lat="49.7166133" lon="3.3556983"><ele>54.00000000000001</ele><time>2026-04-24T13:29:39.498Z</time></trkpt><trkpt lat="49.716585" lon="3.3556083"><ele>54.0</ele><time>2026-04-24T13:29:40.498Z</time></trkpt><trkpt lat="49.7165333" lon="3.3554367"><ele>54.0</ele><time>2026-04-24T13:29:42.498Z</time></trkpt><trkpt lat="49.7164833" lon="3.3552717"><ele>54.2</ele><time>2026-04-24T13:29:44.498Z</time></trkpt><trkpt lat="49.7164383" lon="3.3551033"><ele>54.400000000000006</ele><time>2026-04-24T13:29:46.496Z</time></trkpt><trkpt lat="49.7163933" lon="3.3549467"><ele>54.6</ele><time>2026-04-24T13:29:48.496Z</time></trkpt><trkpt lat="49.7163533" lon="3.3547983"><ele>54.8</ele><time>2026-04-24T13:29:50.498Z</time></trkpt><trkpt lat="49.7163183" lon="3.3546383"><ele>55.0</ele><time>2026-04-24T13:29:52.499Z</time></trkpt><trkpt lat="49.7162817" lon="3.3544833"><ele>55.6</ele><time>2026-04-24T13:29:54.501Z</time></trkpt><trkpt lat="49.716245" lon="3.3543267"><ele>56.2</ele><time>2026-04-24T13:29:56.497Z</time></trkpt><trkpt lat="49.7162133" lon="3.3541683"><ele>56.8</ele><time>2026-04-24T13:29:58.496Z</time></trkpt><trkpt lat="49.7161867" lon="3.354005"><ele>57.4</ele><time>2026-04-24T13:30:00.497Z</time></trkpt><trkpt lat="49.7161767" lon="3.3538583"><ele>58.0</ele><time>2026-04-24T13:30:02.498Z</time></trkpt><trkpt lat="49.7161783" lon="3.3537167"><ele>58.83333333333333</ele><time>2026-04-24T13:30:04.496Z</time></trkpt><trkpt lat="49.7161767" lon="3.3535767"><ele>59.666666666666664</ele><time>2026-04-24T13:30:06.498Z</time></trkpt><trkpt lat="49.7161767" lon="3.35344"><ele>60.5</ele><time>2026-04-24T13:30:08.496Z</time></trkpt><trkpt lat="49.71618" lon="3.3533133"><ele>61.33333333333333</ele><time>2026-04-24T13:30:10.495Z</time></trkpt><trkpt lat="49.7161717" lon="3.3531817"><ele>62.166666666666664</ele><time>2026-04-24T13:30:12.495Z</time></trkpt><trkpt lat="49.7161733" lon="3.3530517"><ele>63.0</ele><time>2026-04-24T13:30:14.497Z</time></trkpt><trkpt lat="49.7161667" lon="3.352925"><ele>63.833333333333336</ele><time>2026-04-24T13:30:16.497Z</time></trkpt><trkpt lat="49.71617" lon="3.3528033"><ele>64.66666666666667</ele><time>2026-04-24T13:30:18.496Z</time></trkpt><trkpt lat="49.7161733" lon="3.3526783"><ele>65.5</ele><time>2026-04-24T13:30:20.496Z</time></trkpt><trkpt lat="49.716175" lon="3.3525517"><ele>66.33333333333334</ele><time>2026-04-24T13:30:22.497Z</time></trkpt><trkpt lat="49.716185" lon="3.35242"><ele>67.16666666666667</ele><time>2026-04-24T13:30:24.495Z</time></trkpt><trkpt lat="49.7161933" lon="3.35228"><ele>68.0</ele><time>2026-04-24T13:30:26.497Z</time></trkpt><trkpt lat="49.7161983" lon="3.3521383"><ele>68.8</ele><time>2026-04-24T13:30:28.497Z</time></trkpt><trkpt lat="49.7161917" lon="3.35198"><ele>69.6</ele><time>2026-04-24T13:30:30.496Z</time></trkpt><trkpt lat="49.716195" lon="3.351825"><ele>70.4</ele><time>2026-04-24T13:30:32.496Z</time></trkpt><trkpt lat="49.7162083" lon="3.35168"><ele>71.2</ele><time>2026-04-24T13:30:34.498Z</time></trkpt><trkpt lat="49.7162217" lon="3.3515283"><ele>72.0</ele><time>2026-04-24T13:30:36.497Z</time></trkpt><trkpt lat="49.7162317" lon="3.3513783"><ele>72.0</ele><time>2026-04-24T13:30:38.498Z</time></trkpt><trkpt lat="49.7162383" lon="3.351215"><ele>72.0</ele><time>2026-04-24T13:30:40.497Z</time></trkpt><trkpt lat="49.716265" lon="3.3510633"><ele>72.0</ele><time>2026-04-24T13:30:42.496Z</time></trkpt><trkpt lat="49.7163067" lon="3.3509133"><ele>72.0</ele><time>2026-04-24T13:30:44.497Z</time></trkpt><trkpt lat="49.7163583" lon="3.3507767"><ele>72.0</ele><time>2026-04-24T13:30:46.496Z</time></trkpt><trkpt lat="49.7164217" lon="3.3506667"><ele>72.0</ele><time>2026-04-24T13:30:48.497Z</time></trkpt><trkpt lat="49.71652" lon="3.3506483"><ele>72.0</ele><time>2026-04-24T13:30:50.497Z</time></trkpt><trkpt lat="49.7166283" lon="3.3506817"><ele>72.0</ele><time>2026-04-24T13:30:52.497Z</time></trkpt><trkpt lat="49.716735" lon="3.3506783"><ele>72.0</ele><time>2026-04-24T13:30:54.496Z</time></trkpt><trkpt lat="49.7168017" lon="3.35058"><ele>72.0</ele><time>2026-04-24T13:30:56.496Z</time></trkpt><trkpt lat="49.7167967" lon="3.350435"><ele>72.0</ele><time>2026-04-24T13:30:58.495Z</time></trkpt><trkpt lat="49.716775" lon="3.3502783"><ele>72.0</ele><time>2026-04-24T13:31:00.497Z</time></trkpt><trkpt lat="49.7167567" lon="3.3501233"><ele>72.0</ele><time>2026-04-24T13:31:02.496Z</time></trkpt><trkpt lat="49.7167233" lon="3.3499517"><ele>72.0</ele><time>2026-04-24T13:31:04.496Z</time></trkpt><trkpt lat="49.716695" lon="3.3497783"><ele>72.0</ele><time>2026-04-24T13:31:06.496Z</time></trkpt><trkpt lat="49.7166683" lon="3.3496083"><ele>72.2</ele><time>2026-04-24T13:31:08.497Z</time></trkpt><trkpt lat="49.716635" lon="3.3494267"><ele>72.4</ele><time>2026-04-24T13:31:10.496Z</time></trkpt><trkpt lat="49.7165883" lon="3.3492433"><ele>72.6</ele><time>2026-04-24T13:31:12.496Z</time></trkpt><trkpt lat="49.7165683" lon="3.34915"><ele>72.8</ele><time>2026-04-24T13:31:13.498Z</time></trkpt><trkpt lat="49.7165467" lon="3.349055"><ele>73.0</ele><time>2026-04-24T13:31:14.498Z</time></trkpt><trkpt lat="49.7165" lon="3.3488717"><ele>73.4</ele><time>2026-04-24T13:31:16.496Z</time></trkpt><trkpt lat="49.7164783" lon="3.3487783"><ele>73.8</ele><time>2026-04-24T13:31:17.497Z</time></trkpt><trkpt lat="49.71645" lon="3.3486"><ele>74.2</ele><time>2026-04-24T13:31:19.496Z</time></trkpt><trkpt lat="49.7164233" lon="3.348415"><ele>74.6</ele><time>2026-04-24T13:31:21.497Z</time></trkpt><trkpt lat="49.716395" lon="3.34823"><ele>75.0</ele><time>2026-04-24T13:31:23.497Z</time></trkpt><trkpt lat="49.7163717" lon="3.34804"><ele>75.2</ele><time>2026-04-24T13:31:25.495Z</time></trkpt><trkpt lat="49.7163567" lon="3.347945"><ele>75.4</ele><time>2026-04-24T13:31:26.497Z</time></trkpt><trkpt lat="49.7163267" lon="3.3477583"><ele>75.6</ele><time>2026-04-24T13:31:28.497Z</time></trkpt><trkpt lat="49.7162967" lon="3.3475767"><ele>75.8</ele><time>2026-04-24T13:31:30.496Z</time></trkpt><trkpt lat="49.7162767" lon="3.3474833"><ele>76.0</ele><time>2026-04-24T13:31:31.498Z</time></trkpt><trkpt lat="49.71624" lon="3.3473"><ele>77.0</ele><time>2026-04-24T13:31:33.496Z</time></trkpt><trkpt lat="49.7162217" lon="3.3472067"><ele>78.0</ele><time>2026-04-24T13:31:34.496Z</time></trkpt><trkpt lat="49.7161883" lon="3.3470267"><ele>79.0</ele><time>2026-04-24T13:31:36.496Z</time></trkpt><trkpt lat="49.7161567" lon="3.346845"><ele>80.0</ele><time>2026-04-24T13:31:38.496Z</time></trkpt><trkpt lat="49.716125" lon="3.34666"><ele>81.0</ele><time>2026-04-24T13:31:40.496Z</time></trkpt><trkpt lat="49.7160933" lon="3.346475"><ele>81.5</ele><time>2026-04-24T13:31:42.497Z</time></trkpt><trkpt lat="49.7160667" lon="3.3462983"><ele>82.0</ele><time>2026-04-24T13:31:44.496Z</time></trkpt><trkpt lat="49.71605" lon="3.3461233"><ele>82.5</ele><time>2026-04-24T13:31:46.495Z</time></trkpt><trkpt lat="49.7160383" lon="3.3459467"><ele>83.0</ele><time>2026-04-24T13:31:48.495Z</time></trkpt><trkpt lat="49.71603" lon="3.34578"><ele>83.0</ele><time>2026-04-24T13:31:50.498Z</time></trkpt><trkpt lat="49.7160367" lon="3.3456067"><ele>83.0</ele><time>2026-04-24T13:31:52.496Z</time></trkpt><trkpt lat="49.7160533" lon="3.34544"><ele>83.0</ele><time>2026-04-24T13:31:54.496Z</time></trkpt><trkpt lat="49.71607" lon="3.34528"><ele>83.0</ele><time>2026-04-24T13:31:56.497Z</time></trkpt><trkpt lat="49.7160883" lon="3.34514"><ele>83.0</ele><time>2026-04-24T13:31:58.494Z</time></trkpt><trkpt lat="49.7161067" lon="3.345005"><ele>83.85714285714285</ele><time>2026-04-24T13:32:00.495Z</time></trkpt><trkpt lat="49.716125" lon="3.344885"><ele>84.71428571428572</ele><time>2026-04-24T13:32:02.497Z</time></trkpt><trkpt lat="49.7161333" lon="3.3447733"><ele>85.57142857142857</ele><time>2026-04-24T13:32:04.496Z</time></trkpt><trkpt lat="49.7161483" lon="3.34467"><ele>86.42857142857142</ele><time>2026-04-24T13:32:06.496Z</time></trkpt><trkpt lat="49.7161533" lon="3.3445517"><ele>87.28571428571428</ele><time>2026-04-24T13:32:08.497Z</time></trkpt><trkpt lat="49.71617" lon="3.3444383"><ele>88.14285714285714</ele><time>2026-04-24T13:32:10.496Z</time></trkpt><trkpt lat="49.71618" lon="3.344325"><ele>89.0</ele><time>2026-04-24T13:32:12.497Z</time></trkpt><trkpt lat="49.7161817" lon="3.3442233"><ele>89.28571428571428</ele><time>2026-04-24T13:32:14.497Z</time></trkpt><trkpt lat="49.7161833" lon="3.344115"><ele>89.57142857142857</ele><time>2026-04-24T13:32:16.495Z</time></trkpt><trkpt lat="49.7161767" lon="3.34401"><ele>89.85714285714286</ele><time>2026-04-24T13:32:18.495Z</time></trkpt><trkpt lat="49.716175" lon="3.3439083"><ele>90.14285714285714</ele><time>2026-04-24T13:32:20.495Z</time></trkpt><trkpt lat="49.7161717" lon="3.3438"><ele>90.42857142857143</ele><time>2026-04-24T13:32:22.496Z</time></trkpt><trkpt lat="49.716165" lon="3.3436767"><ele>90.71428571428571</ele><time>2026-04-24T13:32:24.496Z</time></trkpt><trkpt lat="49.71616" lon="3.34356"><ele>91.0</ele><time>2026-04-24T13:32:26.496Z</time></trkpt><trkpt lat="49.716155" lon="3.343445"><ele>91.16666666666666</ele><time>2026-04-24T13:32:28.497Z</time></trkpt><trkpt lat="49.7161617" lon="3.3433283"><ele>91.33333333333333</ele><time>2026-04-24T13:32:30.496Z</time></trkpt><trkpt lat="49.7161683" lon="3.3432067"><ele>91.5</ele><time>2026-04-24T13:32:32.496Z</time></trkpt><trkpt lat="49.7161733" lon="3.3430767"><ele>91.66666666666667</ele><time>2026-04-24T13:32:34.496Z</time></trkpt><trkpt lat="49.71618" lon="3.3429383"><ele>91.83333333333334</ele><time>2026-04-24T13:32:36.496Z</time></trkpt><trkpt lat="49.7161883" lon="3.3427883"><ele>92.0</ele><time>2026-04-24T13:32:38.496Z</time></trkpt><trkpt lat="49.7161983" lon="3.3426333"><ele>92.6</ele><time>2026-04-24T13:32:40.496Z</time></trkpt><trkpt lat="49.7162117" lon="3.3424833"><ele>93.19999999999999</ele><time>2026-04-24T13:32:42.497Z</time></trkpt><trkpt lat="49.7162267" lon="3.342335"><ele>93.8</ele><time>2026-04-24T13:32:44.497Z</time></trkpt><trkpt lat="49.716235" lon="3.3421767"><ele>94.4</ele><time>2026-04-24T13:32:46.495Z</time></trkpt><trkpt lat="49.7162467" lon="3.34202"><ele>95.0</ele><time>2026-04-24T13:32:48.497Z</time></trkpt><trkpt lat="49.71626" lon="3.341865"><ele>95.4</ele><time>2026-04-24T13:32:50.499Z</time></trkpt><trkpt lat="49.71627" lon="3.3417083"><ele>95.8</ele><time>2026-04-24T13:32:52.497Z</time></trkpt><trkpt lat="49.71628" lon="3.3415517"><ele>96.19999999999999</ele><time>2026-04-24T13:32:54.496Z</time></trkpt><trkpt lat="49.71629" lon="3.3413933"><ele>96.6</ele><time>2026-04-24T13:32:56.497Z</time></trkpt><trkpt lat="49.7162983" lon="3.3412333"><ele>97.0</ele><time>2026-04-24T13:32:58.496Z</time></trkpt><trkpt lat="49.7163083" lon="3.3410683"><ele>97.39999999999999</ele><time>2026-04-24T13:33:00.498Z</time></trkpt><trkpt lat="49.71632" lon="3.3409117"><ele>97.8</ele><time>2026-04-24T13:33:02.497Z</time></trkpt><trkpt lat="49.7163283" lon="3.3407583"><ele>98.2</ele><time>2026-04-24T13:33:04.498Z</time></trkpt><trkpt lat="49.7163367" lon="3.3406067"><ele>98.6</ele><time>2026-04-24T13:33:06.498Z</time></trkpt><trkpt lat="49.7163433" lon="3.3404567"><ele>99.0</ele><time>2026-04-24T13:33:08.498Z</time></trkpt><trkpt lat="49.7163517" lon="3.3403083"><ele>99.4</ele><time>2026-04-24T13:33:10.497Z</time></trkpt><trkpt lat="49.71636" lon="3.3401583"><ele>99.80000000000001</ele><time>2026-04-24T13:33:12.498Z</time></trkpt><trkpt lat="49.7163733" lon="3.340005"><ele>100.19999999999999</ele><time>2026-04-24T13:33:14.497Z</time></trkpt><trkpt lat="49.716385" lon="3.339845"><ele>100.6</ele><time>2026-04-24T13:33:16.497Z</time></trkpt><trkpt lat="49.716395" lon="3.33968"><ele>101.0</ele><time>2026-04-24T13:33:18.495Z</time></trkpt><trkpt lat="49.7164067" lon="3.33951"><ele>101.16666666666666</ele><time>2026-04-24T13:33:20.496Z</time></trkpt><trkpt lat="49.7164233" lon="3.3393667"><ele>101.33333333333333</ele><time>2026-04-24T13:33:22.497Z</time></trkpt><trkpt lat="49.71644" lon="3.3392483"><ele>101.5</ele><time>2026-04-24T13:33:24.498Z</time></trkpt><trkpt lat="49.7164383" lon="3.33913"><ele>101.66666666666666</ele><time>2026-04-24T13:33:34.497Z</time></trkpt><trkpt lat="49.7164483" lon="3.3389733"><ele>101.83333333333333</ele><time>2026-04-24T13:33:37.497Z</time></trkpt><trkpt lat="49.716455" lon="3.3388317"><ele>102.0</ele><time>2026-04-24T13:33:39.497Z</time></trkpt><trkpt lat="49.716465" lon="3.3386633"><ele>101.66666666666667</ele><time>2026-04-24T13:33:41.496Z</time></trkpt><trkpt lat="49.7164817" lon="3.3384767"><ele>101.33333333333334</ele><time>2026-04-24T13:33:43.496Z</time></trkpt><trkpt lat="49.7164917" lon="3.3383783"><ele>101.0</ele><time>2026-04-24T13:33:44.497Z</time></trkpt><trkpt lat="49.7165" lon="3.3382767"><ele>100.66666666666667</ele><time>2026-04-24T13:33:45.497Z</time></trkpt><trkpt lat="49.7165067" lon="3.3381733"><ele>100.33333333333334</ele><time>2026-04-24T13:33:46.496Z</time></trkpt><trkpt lat="49.7165133" lon="3.33807"><ele>100.0</ele><time>2026-04-24T13:33:47.497Z</time></trkpt><trkpt lat="49.7165217" lon="3.337965"><ele>99.71428571428572</ele><time>2026-04-24T13:33:48.497Z</time></trkpt><trkpt lat="49.7165333" lon="3.3378617"><ele>99.42857142857143</ele><time>2026-04-24T13:33:49.496Z</time></trkpt><trkpt lat="49.7165467" lon="3.3377533"><ele>99.14285714285714</ele><time>2026-04-24T13:33:50.497Z</time></trkpt><trkpt lat="49.7165633" lon="3.337645"><ele>98.85714285714286</ele><time>2026-04-24T13:33:51.496Z</time></trkpt><trkpt lat="49.7165817" lon="3.3375383"><ele>98.57142857142857</ele><time>2026-04-24T13:33:52.497Z</time></trkpt><trkpt lat="49.7165967" lon="3.337425"><ele>98.28571428571429</ele><time>2026-04-24T13:33:53.497Z</time></trkpt><trkpt lat="49.7166133" lon="3.3373083"><ele>98.0</ele><time>2026-04-24T13:33:54.497Z</time></trkpt><trkpt lat="49.7166317" lon="3.3371917"><ele>97.33333333333333</ele><time>2026-04-24T13:33:55.496Z</time></trkpt><trkpt lat="49.71665" lon="3.3370783"><ele>96.66666666666666</ele><time>2026-04-24T13:33:56.496Z</time></trkpt><trkpt lat="49.7166683" lon="3.3369633"><ele>96.0</ele><time>2026-04-24T13:33:57.497Z</time></trkpt><trkpt lat="49.7166833" lon="3.3368483"><ele>95.33333333333333</ele><time>2026-04-24T13:33:58.495Z</time></trkpt><trkpt lat="49.7167017" lon="3.33673"><ele>94.66666666666666</ele><time>2026-04-24T13:33:59.497Z</time></trkpt><trkpt lat="49.71672" lon="3.3366133"><ele>94.0</ele><time>2026-04-24T13:34:00.497Z</time></trkpt><trkpt lat="49.716735" lon="3.3364933"><ele>93.66666666666666</ele><time>2026-04-24T13:34:01.496Z</time></trkpt><trkpt lat="49.716755" lon="3.3363767"><ele>93.33333333333333</ele><time>2026-04-24T13:34:02.497Z</time></trkpt><trkpt lat="49.7167767" lon="3.3362567"><ele>93.0</ele><time>2026-04-24T13:34:03.497Z</time></trkpt><trkpt lat="49.7167967" lon="3.3361383"><ele>92.66666666666667</ele><time>2026-04-24T13:34:04.496Z</time></trkpt><trkpt lat="49.7168167" lon="3.33602"><ele>92.33333333333334</ele><time>2026-04-24T13:34:05.497Z</time></trkpt><trkpt lat="49.7168367" lon="3.3359"><ele>92.0</ele><time>2026-04-24T13:34:06.497Z</time></trkpt><trkpt lat="49.7168567" lon="3.3357783"><ele>92.0</ele><time>2026-04-24T13:34:07.498Z</time></trkpt><trkpt lat="49.7168767" lon="3.335655"><ele>92.0</ele><time>2026-04-24T13:34:08.498Z</time></trkpt><trkpt lat="49.7169" lon="3.3355333"><ele>92.0</ele><time>2026-04-24T13:34:09.496Z</time></trkpt><trkpt lat="49.71692" lon="3.33541"><ele>92.0</ele><time>2026-04-24T13:34:10.497Z</time></trkpt><trkpt lat="49.7169383" lon="3.335285"><ele>92.0</ele><time>2026-04-24T13:34:11.496Z</time></trkpt><trkpt lat="49.716955" lon="3.3351617"><ele>92.0</ele><time>2026-04-24T13:34:12.497Z</time></trkpt><trkpt lat="49.7169717" lon="3.335035"><ele>91.5</ele><time>2026-04-24T13:34:13.501Z</time></trkpt><trkpt lat="49.7169867" lon="3.3349033"><ele>91.0</ele><time>2026-04-24T13:34:14.497Z</time></trkpt><trkpt lat="49.7170017" lon="3.3347717"><ele>90.5</ele><time>2026-04-24T13:34:15.497Z</time></trkpt><trkpt lat="49.7170183" lon="3.3346417"><ele>90.0</ele><time>2026-04-24T13:34:16.495Z</time></trkpt><trkpt lat="49.717035" lon="3.3345117"><ele>89.5</ele><time>2026-04-24T13:34:17.497Z</time></trkpt><trkpt lat="49.7170517" lon="3.3343833"><ele>89.0</ele><time>2026-04-24T13:34:18.496Z</time></trkpt><trkpt lat="49.717065" lon="3.3342533"><ele>88.83333333333334</ele><time>2026-04-24T13:34:19.495Z</time></trkpt><trkpt lat="49.7170783" lon="3.33412"><ele>88.66666666666667</ele><time>2026-04-24T13:34:20.497Z</time></trkpt><trkpt lat="49.7170933" lon="3.33399"><ele>88.5</ele><time>2026-04-24T13:34:21.497Z</time></trkpt><trkpt lat="49.7171083" lon="3.33386"><ele>88.33333333333333</ele><time>2026-04-24T13:34:22.497Z</time></trkpt><trkpt lat="49.7171233" lon="3.333725"><ele>88.16666666666666</ele><time>2026-04-24T13:34:23.497Z</time></trkpt><trkpt lat="49.7171367" lon="3.333595"><ele>88.0</ele><time>2026-04-24T13:34:24.496Z</time></trkpt><trkpt lat="49.7171483" lon="3.3334633"><ele>87.83333333333333</ele><time>2026-04-24T13:34:25.495Z</time></trkpt><trkpt lat="49.7171617" lon="3.3333283"><ele>87.66666666666666</ele><time>2026-04-24T13:34:26.496Z</time></trkpt><trkpt lat="49.7171767" lon="3.3331967"><ele>87.5</ele><time>2026-04-24T13:34:27.496Z</time></trkpt><trkpt lat="49.71719" lon="3.3330667"><ele>87.33333333333333</ele><time>2026-04-24T13:34:28.496Z</time></trkpt><trkpt lat="49.717205" lon="3.3329367"><ele>87.16666666666667</ele><time>2026-04-24T13:34:29.496Z</time></trkpt><trkpt lat="49.7172183" lon="3.3328067"><ele>87.0</ele><time>2026-04-24T13:34:30.495Z</time></trkpt><trkpt lat="49.7172333" lon="3.3326783"><ele>86.5</ele><time>2026-04-24T13:34:31.498Z</time></trkpt><trkpt lat="49.717245" lon="3.33255"><ele>86.0</ele><time>2026-04-24T13:34:32.498Z</time></trkpt><trkpt lat="49.7172583" lon="3.3324167"><ele>85.5</ele><time>2026-04-24T13:34:33.498Z</time></trkpt><trkpt lat="49.71727" lon="3.3322883"><ele>85.0</ele><time>2026-04-24T13:34:34.497Z</time></trkpt><trkpt lat="49.7172833" lon="3.3321567"><ele>84.5</ele><time>2026-04-24T13:34:35.498Z</time></trkpt><trkpt lat="49.717295" lon="3.33203"><ele>84.0</ele><time>2026-04-24T13:34:36.497Z</time></trkpt><trkpt lat="49.717305" lon="3.3319017"><ele>84.0</ele><time>2026-04-24T13:34:37.498Z</time></trkpt><trkpt lat="49.7173183" lon="3.3317783"><ele>84.0</ele><time>2026-04-24T13:34:38.496Z</time></trkpt><trkpt lat="49.7173283" lon="3.33165"><ele>84.0</ele><time>2026-04-24T13:34:39.496Z</time></trkpt><trkpt lat="49.7173383" lon="3.3315233"><ele>84.0</ele><time>2026-04-24T13:34:40.496Z</time></trkpt><trkpt lat="49.7173483" lon="3.3314"><ele>84.0</ele><time>2026-04-24T13:34:41.496Z</time></trkpt><trkpt lat="49.71736" lon="3.33128"><ele>84.0</ele><time>2026-04-24T13:34:42.495Z</time></trkpt><trkpt lat="49.71737" lon="3.33116"><ele>83.83333333333333</ele><time>2026-04-24T13:34:43.496Z</time></trkpt><trkpt lat="49.7173783" lon="3.3310417"><ele>83.66666666666667</ele><time>2026-04-24T13:34:44.497Z</time></trkpt><trkpt lat="49.7173867" lon="3.3309233"><ele>83.5</ele><time>2026-04-24T13:34:45.495Z</time></trkpt><trkpt lat="49.717395" lon="3.3308033"><ele>83.33333333333334</ele><time>2026-04-24T13:34:46.497Z</time></trkpt><trkpt lat="49.717405" lon="3.3306867"><ele>83.16666666666667</ele><time>2026-04-24T13:34:47.495Z</time></trkpt><trkpt lat="49.717415" lon="3.3305733"><ele>83.0</ele><time>2026-04-24T13:34:48.495Z</time></trkpt><trkpt lat="49.7174233" lon="3.33046"><ele>82.85714285714285</ele><time>2026-04-24T13:34:49.497Z</time></trkpt><trkpt lat="49.7174317" lon="3.33035"><ele>82.71428571428572</ele><time>2026-04-24T13:34:50.499Z</time></trkpt><trkpt lat="49.71744" lon="3.3302417"><ele>82.57142857142857</ele><time>2026-04-24T13:34:51.495Z</time></trkpt><trkpt lat="49.71745" lon="3.3301333"><ele>82.42857142857142</ele><time>2026-04-24T13:34:52.498Z</time></trkpt><trkpt lat="49.71746" lon="3.330025"><ele>82.28571428571428</ele><time>2026-04-24T13:34:53.497Z</time></trkpt><trkpt lat="49.71747" lon="3.3299133"><ele>82.14285714285714</ele><time>2026-04-24T13:34:54.497Z</time></trkpt><trkpt lat="49.71748" lon="3.3298017"><ele>82.0</ele><time>2026-04-24T13:34:55.498Z</time></trkpt><trkpt lat="49.7174917" lon="3.3296917"><ele>81.85714285714285</ele><time>2026-04-24T13:34:56.498Z</time></trkpt><trkpt lat="49.7175033" lon="3.32958"><ele>81.71428571428571</ele><time>2026-04-24T13:34:57.497Z</time></trkpt><trkpt lat="49.7175167" lon="3.32947"><ele>81.57142857142857</ele><time>2026-04-24T13:34:58.497Z</time></trkpt><trkpt lat="49.71753" lon="3.32936"><ele>81.42857142857142</ele><time>2026-04-24T13:34:59.497Z</time></trkpt><trkpt lat="49.717545" lon="3.32925"><ele>81.28571428571428</ele><time>2026-04-24T13:35:00.497Z</time></trkpt><trkpt lat="49.7175583" lon="3.3291417"><ele>81.14285714285714</ele><time>2026-04-24T13:35:01.495Z</time></trkpt><trkpt lat="49.71757" lon="3.3290333"><ele>81.0</ele><time>2026-04-24T13:35:02.497Z</time></trkpt><trkpt lat="49.7175817" lon="3.328925"><ele>80.85714285714286</ele><time>2026-04-24T13:35:03.495Z</time></trkpt><trkpt lat="49.717595" lon="3.328815"><ele>80.71428571428571</ele><time>2026-04-24T13:35:04.496Z</time></trkpt><trkpt lat="49.7176067" lon="3.328705"><ele>80.57142857142857</ele><time>2026-04-24T13:35:05.495Z</time></trkpt><trkpt lat="49.7176183" lon="3.3285967"><ele>80.42857142857143</ele><time>2026-04-24T13:35:06.496Z</time></trkpt><trkpt lat="49.7176317" lon="3.3284883"><ele>80.28571428571429</ele><time>2026-04-24T13:35:07.496Z</time></trkpt><trkpt lat="49.717645" lon="3.32838"><ele>80.14285714285714</ele><time>2026-04-24T13:35:08.496Z</time></trkpt><trkpt lat="49.7176567" lon="3.3282733"><ele>80.0</ele><time>2026-04-24T13:35:09.496Z</time></trkpt><trkpt lat="49.71767" lon="3.3281683"><ele>80.0</ele><time>2026-04-24T13:35:10.497Z</time></trkpt><trkpt lat="49.7176817" lon="3.3280633"><ele>80.0</ele><time>2026-04-24T13:35:11.495Z</time></trkpt><trkpt lat="49.7176933" lon="3.32796"><ele>80.0</ele><time>2026-04-24T13:35:12.496Z</time></trkpt><trkpt lat="49.717705" lon="3.3278567"><ele>80.0</ele><time>2026-04-24T13:35:13.499Z</time></trkpt><trkpt lat="49.7177183" lon="3.327755"><ele>80.0</ele><time>2026-04-24T13:35:14.497Z</time></trkpt><trkpt lat="49.71773" lon="3.3276533"><ele>80.0</ele><time>2026-04-24T13:35:15.495Z</time></trkpt><trkpt lat="49.7177433" lon="3.3275533"><ele>80.0</ele><time>2026-04-24T13:35:16.497Z</time></trkpt><trkpt lat="49.717755" lon="3.327455"><ele>79.66666666666667</ele><time>2026-04-24T13:35:17.496Z</time></trkpt><trkpt lat="49.7177683" lon="3.3273567"><ele>79.33333333333334</ele><time>2026-04-24T13:35:18.495Z</time></trkpt><trkpt lat="49.7177817" lon="3.3272533"><ele>79.0</ele><time>2026-04-24T13:35:19.498Z</time></trkpt><trkpt lat="49.717795" lon="3.327155"><ele>78.66666666666667</ele><time>2026-04-24T13:35:20.499Z</time></trkpt><trkpt lat="49.71782" lon="3.3269683"><ele>78.33333333333333</ele><time>2026-04-24T13:35:22.499Z</time></trkpt><trkpt lat="49.717845" lon="3.3267817"><ele>78.0</ele><time>2026-04-24T13:35:24.497Z</time></trkpt><trkpt lat="49.7178667" lon="3.32659"><ele>78.0</ele><time>2026-04-24T13:35:26.496Z</time></trkpt><trkpt lat="49.7178783" lon="3.3264933"><ele>78.0</ele><time>2026-04-24T13:35:27.495Z</time></trkpt><trkpt lat="49.71789" lon="3.326395"><ele>78.0</ele><time>2026-04-24T13:35:28.495Z</time></trkpt><trkpt lat="49.7179133" lon="3.3262083"><ele>78.0</ele><time>2026-04-24T13:35:30.497Z</time></trkpt><trkpt lat="49.7179233" lon="3.3261117"><ele>78.0</ele><time>2026-04-24T13:35:31.496Z</time></trkpt><trkpt lat="49.717935" lon="3.326015"><ele>78.0</ele><time>2026-04-24T13:35:32.496Z</time></trkpt><trkpt lat="49.7179567" lon="3.3258317"><ele>77.75</ele><time>2026-04-24T13:35:34.497Z</time></trkpt><trkpt lat="49.7179783" lon="3.3256467"><ele>77.5</ele><time>2026-04-24T13:35:36.496Z</time></trkpt><trkpt lat="49.7180017" lon="3.3254633"><ele>77.25</ele><time>2026-04-24T13:35:38.496Z</time></trkpt><trkpt lat="49.7180217" lon="3.325275"><ele>77.0</ele><time>2026-04-24T13:35:40.496Z</time></trkpt><trkpt lat="49.718045" lon="3.3250883"><ele>77.0</ele><time>2026-04-24T13:35:42.496Z</time></trkpt><trkpt lat="49.71806" lon="3.3249917"><ele>77.0</ele><time>2026-04-24T13:35:43.497Z</time></trkpt><trkpt lat="49.718085" lon="3.3248033"><ele>77.0</ele><time>2026-04-24T13:35:45.499Z</time></trkpt><trkpt lat="49.7181117" lon="3.3246167"><ele>77.0</ele><time>2026-04-24T13:35:47.496Z</time></trkpt><trkpt lat="49.71814" lon="3.3244267"><ele>77.0</ele><time>2026-04-24T13:35:49.495Z</time></trkpt><trkpt lat="49.7181517" lon="3.32433"><ele>77.0</ele><time>2026-04-24T13:35:50.496Z</time></trkpt><trkpt lat="49.718175" lon="3.324145"><ele>77.0</ele><time>2026-04-24T13:35:52.496Z</time></trkpt><trkpt lat="49.7182" lon="3.323955"><ele>77.0</ele><time>2026-04-24T13:35:54.495Z</time></trkpt><trkpt lat="49.7182217" lon="3.3237667"><ele>77.0</ele><time>2026-04-24T13:35:56.497Z</time></trkpt><trkpt lat="49.7182333" lon="3.3235733"><ele>77.0</ele><time>2026-04-24T13:35:58.496Z</time></trkpt><trkpt lat="49.71824" lon="3.32338"><ele>77.0</ele><time>2026-04-24T13:36:00.496Z</time></trkpt><trkpt lat="49.718245" lon="3.323185"><ele>77.0</ele><time>2026-04-24T13:36:02.498Z</time></trkpt><trkpt lat="49.718245" lon="3.323085"><ele>77.0</ele><time>2026-04-24T13:36:03.498Z</time></trkpt><trkpt lat="49.7182433" lon="3.322985"><ele>77.0</ele><time>2026-04-24T13:36:04.498Z</time></trkpt><trkpt lat="49.71824" lon="3.3227917"><ele>77.0</ele><time>2026-04-24T13:36:06.501Z</time></trkpt><trkpt lat="49.71824" lon="3.3226"><ele>77.0</ele><time>2026-04-24T13:36:08.499Z</time></trkpt><trkpt lat="49.7182383" lon="3.3224083"><ele>77.0</ele><time>2026-04-24T13:36:10.496Z</time></trkpt><trkpt lat="49.7182367" lon="3.3222183"><ele>77.0</ele><time>2026-04-24T13:36:12.495Z</time></trkpt><trkpt lat="49.718235" lon="3.32212"><ele>77.0</ele><time>2026-04-24T13:36:13.496Z</time></trkpt><trkpt lat="49.7182333" lon="3.3220217"><ele>77.0</ele><time>2026-04-24T13:36:14.497Z</time></trkpt><trkpt lat="49.71823" lon="3.3218283"><ele>77.0</ele><time>2026-04-24T13:36:16.497Z</time></trkpt><trkpt lat="49.718225" lon="3.3216417"><ele>77.0</ele><time>2026-04-24T13:36:18.495Z</time></trkpt><trkpt lat="49.71822" lon="3.3214583"><ele>77.0</ele><time>2026-04-24T13:36:20.497Z</time></trkpt><trkpt lat="49.718215" lon="3.3212783"><ele>77.0</ele><time>2026-04-24T13:36:22.498Z</time></trkpt><trkpt lat="49.7182083" lon="3.3211033"><ele>77.0</ele><time>2026-04-24T13:36:24.497Z</time></trkpt><trkpt lat="49.7182017" lon="3.3209317"><ele>77.0</ele><time>2026-04-24T13:36:26.498Z</time></trkpt><trkpt lat="49.7181967" lon="3.3207483"><ele>77.0</ele><time>2026-04-24T13:36:28.497Z</time></trkpt><trkpt lat="49.7181933" lon="3.32065"><ele>77.0</ele><time>2026-04-24T13:36:29.496Z</time></trkpt><trkpt lat="49.7181883" lon="3.3205517"><ele>77.25</ele><time>2026-04-24T13:36:30.498Z</time></trkpt><trkpt lat="49.7181783" lon="3.3203583"><ele>77.5</ele><time>2026-04-24T13:36:32.498Z</time></trkpt><trkpt lat="49.7181733" lon="3.3201683"><ele>77.75</ele><time>2026-04-24T13:36:34.497Z</time></trkpt><trkpt lat="49.71817" lon="3.3199767"><ele>78.0</ele><time>2026-04-24T13:36:36.498Z</time></trkpt><trkpt lat="49.7181733" lon="3.3197883"><ele>77.75</ele><time>2026-04-24T13:36:38.496Z</time></trkpt><trkpt lat="49.71817" lon="3.319595"><ele>77.5</ele><time>2026-04-24T13:36:40.496Z</time></trkpt><trkpt lat="49.71818" lon="3.31941"><ele>77.25</ele><time>2026-04-24T13:36:42.497Z</time></trkpt><trkpt lat="49.7181933" lon="3.31923"><ele>77.0</ele><time>2026-04-24T13:36:44.497Z</time></trkpt><trkpt lat="49.7182117" lon="3.3190533"><ele>76.8</ele><time>2026-04-24T13:36:46.496Z</time></trkpt><trkpt lat="49.718235" lon="3.31887"><ele>76.6</ele><time>2026-04-24T13:36:48.496Z</time></trkpt><trkpt lat="49.7182483" lon="3.3187733"><ele>76.39999999999999</ele><time>2026-04-24T13:36:49.496Z</time></trkpt><trkpt lat="49.7182633" lon="3.3186767"><ele>76.2</ele><time>2026-04-24T13:36:50.498Z</time></trkpt><trkpt lat="49.7182983" lon="3.3184917"><ele>76.0</ele><time>2026-04-24T13:36:52.495Z</time></trkpt><trkpt lat="49.71833" lon="3.318305"><ele>76.0</ele><time>2026-04-24T13:36:54.496Z</time></trkpt><trkpt lat="49.7183483" lon="3.3182117"><ele>76.0</ele><time>2026-04-24T13:36:55.496Z</time></trkpt><trkpt lat="49.718365" lon="3.3181167"><ele>76.0</ele><time>2026-04-24T13:36:56.495Z</time></trkpt><trkpt lat="49.718395" lon="3.3179317"><ele>76.0</ele><time>2026-04-24T13:36:58.495Z</time></trkpt><trkpt lat="49.71843" lon="3.3177567"><ele>76.0</ele><time>2026-04-24T13:37:00.497Z</time></trkpt><trkpt lat="49.7184633" lon="3.3175833"><ele>76.25</ele><time>2026-04-24T13:37:02.497Z</time></trkpt><trkpt lat="49.7185" lon="3.3174133"><ele>76.5</ele><time>2026-04-24T13:37:04.496Z</time></trkpt><trkpt lat="49.718535" lon="3.3172383"><ele>76.75</ele><time>2026-04-24T13:37:06.497Z</time></trkpt><trkpt lat="49.7185717" lon="3.3170633"><ele>77.0</ele><time>2026-04-24T13:37:08.497Z</time></trkpt><trkpt lat="49.7186067" lon="3.3168967"><ele>77.4</ele><time>2026-04-24T13:37:10.497Z</time></trkpt><trkpt lat="49.71864" lon="3.31673"><ele>77.80000000000001</ele><time>2026-04-24T13:37:12.495Z</time></trkpt><trkpt lat="49.71867" lon="3.31656"><ele>78.2</ele><time>2026-04-24T13:37:14.497Z</time></trkpt><trkpt lat="49.718695" lon="3.3163917"><ele>78.60000000000001</ele><time>2026-04-24T13:37:16.495Z</time></trkpt><trkpt lat="49.7187267" lon="3.3162283"><ele>79.0</ele><time>2026-04-24T13:37:18.495Z</time></trkpt><trkpt lat="49.7187583" lon="3.31606"><ele>79.4</ele><time>2026-04-24T13:37:20.501Z</time></trkpt><trkpt lat="49.71879" lon="3.3158883"><ele>79.80000000000001</ele><time>2026-04-24T13:37:22.496Z</time></trkpt><trkpt lat="49.718825" lon="3.3157117"><ele>80.19999999999999</ele><time>2026-04-24T13:37:24.498Z</time></trkpt><trkpt lat="49.71886" lon="3.3155233"><ele>80.6</ele><time>2026-04-24T13:37:26.498Z</time></trkpt><trkpt lat="49.7188783" lon="3.3154283"><ele>81.0</ele><time>2026-04-24T13:37:27.5Z</time></trkpt><trkpt lat="49.7189133" lon="3.3152483"><ele>81.25</ele><time>2026-04-24T13:37:29.5Z</time></trkpt><trkpt lat="49.7189483" lon="3.3150667"><ele>81.5</ele><time>2026-04-24T13:37:31.498Z</time></trkpt><trkpt lat="49.71898" lon="3.3148883"><ele>81.75</ele><time>2026-04-24T13:37:33.495Z</time></trkpt><trkpt lat="49.7190117" lon="3.314715"><ele>82.0</ele><time>2026-04-24T13:37:35.496Z</time></trkpt><trkpt lat="49.71904" lon="3.3145417"><ele>81.6</ele><time>2026-04-24T13:37:37.496Z</time></trkpt><trkpt lat="49.71907" lon="3.31437"><ele>81.19999999999999</ele><time>2026-04-24T13:37:39.496Z</time></trkpt><trkpt lat="49.719105" lon="3.3141983"><ele>80.8</ele><time>2026-04-24T13:37:41.496Z</time></trkpt><trkpt lat="49.719135" lon="3.31401"><ele>80.4</ele><time>2026-04-24T13:37:43.496Z</time></trkpt><trkpt lat="49.7191483" lon="3.31391"><ele>80.0</ele><time>2026-04-24T13:37:44.497Z</time></trkpt><trkpt lat="49.7191617" lon="3.3138083"><ele>79.71428571428571</ele><time>2026-04-24T13:37:45.495Z</time></trkpt><trkpt lat="49.719175" lon="3.3137"><ele>79.42857142857143</ele><time>2026-04-24T13:37:46.495Z</time></trkpt><trkpt lat="49.7191883" lon="3.3135933"><ele>79.14285714285714</ele><time>2026-04-24T13:37:47.496Z</time></trkpt><trkpt lat="49.7192017" lon="3.3134883"><ele>78.85714285714286</ele><time>2026-04-24T13:37:48.496Z</time></trkpt><trkpt lat="49.7192117" lon="3.31338"><ele>78.57142857142857</ele><time>2026-04-24T13:37:49.497Z</time></trkpt><trkpt lat="49.7192233" lon="3.3132717"><ele>78.28571428571429</ele><time>2026-04-24T13:37:50.496Z</time></trkpt><trkpt lat="49.7192367" lon="3.313165"><ele>78.0</ele><time>2026-04-24T13:37:51.496Z</time></trkpt><trkpt lat="49.7192467" lon="3.3130583"><ele>77.85714285714286</ele><time>2026-04-24T13:37:52.497Z</time></trkpt><trkpt lat="49.7192567" lon="3.3129483"><ele>77.71428571428571</ele><time>2026-04-24T13:37:53.498Z</time></trkpt><trkpt lat="49.719265" lon="3.3128383"><ele>77.57142857142857</ele><time>2026-04-24T13:37:54.497Z</time></trkpt><trkpt lat="49.71927" lon="3.3127317"><ele>77.42857142857143</ele><time>2026-04-24T13:37:55.496Z</time></trkpt><trkpt lat="49.7192733" lon="3.3126267"><ele>77.28571428571428</ele><time>2026-04-24T13:37:56.497Z</time></trkpt><trkpt lat="49.7192783" lon="3.3125267"><ele>77.14285714285714</ele><time>2026-04-24T13:37:57.497Z</time></trkpt><trkpt lat="49.7192817" lon="3.3124267"><ele>77.0</ele><time>2026-04-24T13:37:58.495Z</time></trkpt><trkpt lat="49.7192833" lon="3.3123267"><ele>77.25</ele><time>2026-04-24T13:37:59.495Z</time></trkpt><trkpt lat="49.719285" lon="3.3121367"><ele>77.5</ele><time>2026-04-24T13:38:01.496Z</time></trkpt><trkpt lat="49.7192917" lon="3.3119533"><ele>77.75</ele><time>2026-04-24T13:38:03.495Z</time></trkpt><trkpt lat="49.7192983" lon="3.3117783"><ele>78.0</ele><time>2026-04-24T13:38:05.496Z</time></trkpt><trkpt lat="49.7192983" lon="3.3116033"><ele>78.0</ele><time>2026-04-24T13:38:07.496Z</time></trkpt><trkpt lat="49.7192933" lon="3.3114217"><ele>78.0</ele><time>2026-04-24T13:38:09.497Z</time></trkpt><trkpt lat="49.7192783" lon="3.3112333"><ele>78.0</ele><time>2026-04-24T13:38:11.496Z</time></trkpt><trkpt lat="49.7192533" lon="3.311045"><ele>78.0</ele><time>2026-04-24T13:38:13.496Z</time></trkpt><trkpt lat="49.7192183" lon="3.3108567"><ele>78.0</ele><time>2026-04-24T13:38:15.496Z</time></trkpt><trkpt lat="49.7191983" lon="3.31076"><ele>78.0</ele><time>2026-04-24T13:38:16.5Z</time></trkpt><trkpt lat="49.7191567" lon="3.310575"><ele>78.0</ele><time>2026-04-24T13:38:18.496Z</time></trkpt><trkpt lat="49.71913" lon="3.3104833"><ele>78.0</ele><time>2026-04-24T13:38:19.496Z</time></trkpt><trkpt lat="49.7190733" lon="3.31031"><ele>78.0</ele><time>2026-04-24T13:38:21.496Z</time></trkpt><trkpt lat="49.7190433" lon="3.3102233"><ele>78.0</ele><time>2026-04-24T13:38:22.495Z</time></trkpt><trkpt lat="49.71898" lon="3.3100567"><ele>78.0</ele><time>2026-04-24T13:38:24.496Z</time></trkpt><trkpt lat="49.7189183" lon="3.309895"><ele>78.0</ele><time>2026-04-24T13:38:26.498Z</time></trkpt><trkpt lat="49.718855" lon="3.3097317"><ele>78.0</ele><time>2026-04-24T13:38:28.496Z</time></trkpt><trkpt lat="49.718795" lon="3.3095667"><ele>78.0</ele><time>2026-04-24T13:38:30.496Z</time></trkpt><trkpt lat="49.7187367" lon="3.3093967"><ele>78.25</ele><time>2026-04-24T13:38:32.497Z</time></trkpt><trkpt lat="49.7186833" lon="3.3092267"><ele>78.5</ele><time>2026-04-24T13:38:34.496Z</time></trkpt><trkpt lat="49.7186367" lon="3.3090467"><ele>78.75</ele><time>2026-04-24T13:38:36.496Z</time></trkpt><trkpt lat="49.718595" lon="3.308865"><ele>79.0</ele><time>2026-04-24T13:38:38.496Z</time></trkpt><trkpt lat="49.7185567" lon="3.30868"><ele>79.14285714285715</ele><time>2026-04-24T13:38:40.496Z</time></trkpt><trkpt lat="49.7185333" lon="3.30849"><ele>79.28571428571429</ele><time>2026-04-24T13:38:42.497Z</time></trkpt><trkpt lat="49.718525" lon="3.3083933"><ele>79.42857142857143</ele><time>2026-04-24T13:38:43.496Z</time></trkpt><trkpt lat="49.7185167" lon="3.3082933"><ele>79.57142857142858</ele><time>2026-04-24T13:38:44.497Z</time></trkpt><trkpt lat="49.71851" lon="3.3081933"><ele>79.71428571428572</ele><time>2026-04-24T13:38:45.496Z</time></trkpt><trkpt lat="49.7185017" lon="3.308095"><ele>79.85714285714286</ele><time>2026-04-24T13:38:46.497Z</time></trkpt><trkpt lat="49.7184933" lon="3.3079983"><ele>80.0</ele><time>2026-04-24T13:38:47.496Z</time></trkpt><trkpt lat="49.71848" lon="3.3078083"><ele>80.0</ele><time>2026-04-24T13:38:49.498Z</time></trkpt><trkpt lat="49.7184717" lon="3.3076167"><ele>80.0</ele><time>2026-04-24T13:38:51.496Z</time></trkpt><trkpt lat="49.71846" lon="3.3074267"><ele>80.0</ele><time>2026-04-24T13:38:53.495Z</time></trkpt><trkpt lat="49.71845" lon="3.3072333"><ele>80.0</ele><time>2026-04-24T13:38:55.496Z</time></trkpt><trkpt lat="49.7184417" lon="3.3070417"><ele>80.0</ele><time>2026-04-24T13:38:57.497Z</time></trkpt><trkpt lat="49.7184333" lon="3.30685"><ele>80.0</ele><time>2026-04-24T13:38:59.496Z</time></trkpt><trkpt lat="49.718425" lon="3.3066583"><ele>80.0</ele><time>2026-04-24T13:39:01.497Z</time></trkpt><trkpt lat="49.718415" lon="3.306465"><ele>80.0</ele><time>2026-04-24T13:39:03.498Z</time></trkpt><trkpt lat="49.7184083" lon="3.3062717"><ele>80.2</ele><time>2026-04-24T13:39:05.497Z</time></trkpt><trkpt lat="49.7184" lon="3.3060817"><ele>80.4</ele><time>2026-04-24T13:39:07.497Z</time></trkpt><trkpt lat="49.7183917" lon="3.3058883"><ele>80.6</ele><time>2026-04-24T13:39:09.496Z</time></trkpt><trkpt lat="49.7183817" lon="3.305695"><ele>80.8</ele><time>2026-04-24T13:39:11.497Z</time></trkpt><trkpt lat="49.7183767" lon="3.3055967"><ele>81.0</ele><time>2026-04-24T13:39:12.497Z</time></trkpt><trkpt lat="49.7183733" lon="3.3054983"><ele>81.0</ele><time>2026-04-24T13:39:13.497Z</time></trkpt><trkpt lat="49.7183683" lon="3.3053067"><ele>81.0</ele><time>2026-04-24T13:39:15.497Z</time></trkpt><trkpt lat="49.7183617" lon="3.3051133"><ele>81.0</ele><time>2026-04-24T13:39:17.497Z</time></trkpt><trkpt lat="49.71836" lon="3.305015"><ele>81.0</ele><time>2026-04-24T13:39:18.495Z</time></trkpt><trkpt lat="49.718355" lon="3.3048233"><ele>81.0</ele><time>2026-04-24T13:39:20.497Z</time></trkpt><trkpt lat="49.71835" lon="3.30463"><ele>81.6</ele><time>2026-04-24T13:39:22.497Z</time></trkpt><trkpt lat="49.7183483" lon="3.3044383"><ele>82.19999999999999</ele><time>2026-04-24T13:39:24.497Z</time></trkpt><trkpt lat="49.718345" lon="3.30434"><ele>82.80000000000001</ele><time>2026-04-24T13:39:25.497Z</time></trkpt><trkpt lat="49.7183417" lon="3.30415"><ele>83.4</ele><time>2026-04-24T13:39:27.496Z</time></trkpt><trkpt lat="49.71834" lon="3.3039583"><ele>84.0</ele><time>2026-04-24T13:39:29.498Z</time></trkpt><trkpt lat="49.7183367" lon="3.3037667"><ele>84.0</ele><time>2026-04-24T13:39:31.497Z</time></trkpt><trkpt lat="49.7183283" lon="3.3035767"><ele>84.0</ele><time>2026-04-24T13:39:33.496Z</time></trkpt><trkpt lat="49.7183233" lon="3.303385"><ele>84.0</ele><time>2026-04-24T13:39:35.496Z</time></trkpt><trkpt lat="49.7183183" lon="3.3031933"><ele>84.0</ele><time>2026-04-24T13:39:37.495Z</time></trkpt><trkpt lat="49.718315" lon="3.303005"><ele>83.75</ele><time>2026-04-24T13:39:39.495Z</time></trkpt><trkpt lat="49.7183117" lon="3.302815"><ele>83.5</ele><time>2026-04-24T13:39:41.496Z</time></trkpt><trkpt lat="49.7183117" lon="3.3026267"><ele>83.25</ele><time>2026-04-24T13:39:43.497Z</time></trkpt><trkpt lat="49.7183117" lon="3.3024333"><ele>83.0</ele><time>2026-04-24T13:39:45.496Z</time></trkpt><trkpt lat="49.7183133" lon="3.3022417"><ele>83.4</ele><time>2026-04-24T13:39:47.496Z</time></trkpt><trkpt lat="49.7183133" lon="3.3020483"><ele>83.80000000000001</ele><time>2026-04-24T13:39:49.496Z</time></trkpt><trkpt lat="49.7183133" lon="3.301855"><ele>84.2</ele><time>2026-04-24T13:39:51.497Z</time></trkpt><trkpt lat="49.7183117" lon="3.3016617"><ele>84.6</ele><time>2026-04-24T13:39:53.498Z</time></trkpt><trkpt lat="49.71831" lon="3.3015633"><ele>85.0</ele><time>2026-04-24T13:39:54.497Z</time></trkpt><trkpt lat="49.7183083" lon="3.3013717"><ele>85.2</ele><time>2026-04-24T13:39:56.498Z</time></trkpt><trkpt lat="49.7183067" lon="3.3011833"><ele>85.4</ele><time>2026-04-24T13:39:58.496Z</time></trkpt><trkpt lat="49.7183" lon="3.3009917"><ele>85.6</ele><time>2026-04-24T13:40:00.495Z</time></trkpt><trkpt lat="49.7182917" lon="3.300895"><ele>85.8</ele><time>2026-04-24T13:40:01.496Z</time></trkpt><trkpt lat="49.7182767" lon="3.3007067"><ele>86.0</ele><time>2026-04-24T13:40:03.495Z</time></trkpt><trkpt lat="49.7182667" lon="3.30061"><ele>86.19999999999999</ele><time>2026-04-24T13:40:04.495Z</time></trkpt><trkpt lat="49.7182417" lon="3.3004217"><ele>86.39999999999999</ele><time>2026-04-24T13:40:06.495Z</time></trkpt><trkpt lat="49.718225" lon="3.3003267"><ele>86.6</ele><time>2026-04-24T13:40:07.498Z</time></trkpt><trkpt lat="49.7181917" lon="3.30014"><ele>86.8</ele><time>2026-04-24T13:40:09.496Z</time></trkpt><trkpt lat="49.7181567" lon="3.2999517"><ele>87.0</ele><time>2026-04-24T13:40:11.495Z</time></trkpt><trkpt lat="49.71814" lon="3.2998567"><ele>87.0</ele><time>2026-04-24T13:40:12.495Z</time></trkpt><trkpt lat="49.718125" lon="3.2997617"><ele>87.0</ele><time>2026-04-24T13:40:13.495Z</time></trkpt><trkpt lat="49.7180933" lon="3.2995733"><ele>87.0</ele><time>2026-04-24T13:40:15.495Z</time></trkpt><trkpt lat="49.7180683" lon="3.299385"><ele>87.0</ele><time>2026-04-24T13:40:17.499Z</time></trkpt><trkpt lat="49.7180383" lon="3.299195"><ele>87.0</ele><time>2026-04-24T13:40:19.496Z</time></trkpt><trkpt lat="49.7180083" lon="3.2990117"><ele>87.5</ele><time>2026-04-24T13:40:21.496Z</time></trkpt><trkpt lat="49.717975" lon="3.2988233"><ele>88.0</ele><time>2026-04-24T13:40:23.497Z</time></trkpt><trkpt lat="49.7179567" lon="3.29873"><ele>88.5</ele><time>2026-04-24T13:40:24.498Z</time></trkpt><trkpt lat="49.7179417" lon="3.298635"><ele>89.0</ele><time>2026-04-24T13:40:25.497Z</time></trkpt><trkpt lat="49.717925" lon="3.29854"><ele>89.5</ele><time>2026-04-24T13:40:26.497Z</time></trkpt><trkpt lat="49.7178933" lon="3.298355"><ele>90.0</ele><time>2026-04-24T13:40:28.497Z</time></trkpt><trkpt lat="49.7178667" lon="3.2981683"><ele>90.5</ele><time>2026-04-24T13:40:30.495Z</time></trkpt><trkpt lat="49.7178433" lon="3.2979833"><ele>91.0</ele><time>2026-04-24T13:40:32.497Z</time></trkpt><trkpt lat="49.7178267" lon="3.2977983"><ele>91.5</ele><time>2026-04-24T13:40:34.496Z</time></trkpt><trkpt lat="49.7178117" lon="3.29761"><ele>92.0</ele><time>2026-04-24T13:40:36.495Z</time></trkpt><trkpt lat="49.7178067" lon="3.297425"><ele>92.5</ele><time>2026-04-24T13:40:38.496Z</time></trkpt><trkpt lat="49.7178033" lon="3.2972417"><ele>93.0</ele><time>2026-04-24T13:40:40.496Z</time></trkpt><trkpt lat="49.717805" lon="3.2970583"><ele>93.5</ele><time>2026-04-24T13:40:42.497Z</time></trkpt><trkpt lat="49.71781" lon="3.296875"><ele>94.0</ele><time>2026-04-24T13:40:44.496Z</time></trkpt><trkpt lat="49.7178167" lon="3.2966917"><ele>94.0</ele><time>2026-04-24T13:40:46.495Z</time></trkpt><trkpt lat="49.717825" lon="3.2965067"><ele>94.0</ele><time>2026-04-24T13:40:48.496Z</time></trkpt><trkpt lat="49.7178317" lon="3.29632"><ele>94.0</ele><time>2026-04-24T13:40:50.497Z</time></trkpt><trkpt lat="49.7178383" lon="3.2961317"><ele>94.0</ele><time>2026-04-24T13:40:52.497Z</time></trkpt><trkpt lat="49.71784" lon="3.2960333"><ele>94.0</ele><time>2026-04-24T13:40:53.499Z</time></trkpt><trkpt lat="49.7178433" lon="3.29584"><ele>94.2</ele><time>2026-04-24T13:40:55.501Z</time></trkpt><trkpt lat="49.7178483" lon="3.29565"><ele>94.4</ele><time>2026-04-24T13:40:57.497Z</time></trkpt><trkpt lat="49.717855" lon="3.2954583"><ele>94.6</ele><time>2026-04-24T13:40:59.495Z</time></trkpt><trkpt lat="49.717855" lon="3.29536"><ele>94.8</ele><time>2026-04-24T13:41:00.496Z</time></trkpt><trkpt lat="49.717855" lon="3.2952617"><ele>95.0</ele><time>2026-04-24T13:41:01.497Z</time></trkpt><trkpt lat="49.7178633" lon="3.2950717"><ele>95.0</ele><time>2026-04-24T13:41:03.496Z</time></trkpt><trkpt lat="49.7178667" lon="3.2949733"><ele>95.0</ele><time>2026-04-24T13:41:04.499Z</time></trkpt><trkpt lat="49.7178733" lon="3.294785"><ele>95.0</ele><time>2026-04-24T13:41:06.499Z</time></trkpt><trkpt lat="49.7178817" lon="3.294595"><ele>95.0</ele><time>2026-04-24T13:41:08.499Z</time></trkpt><trkpt lat="49.7178883" lon="3.2944033"><ele>95.0</ele><time>2026-04-24T13:41:10.498Z</time></trkpt><trkpt lat="49.7179017" lon="3.2942283"><ele>95.4</ele><time>2026-04-24T13:41:12.496Z</time></trkpt><trkpt lat="49.7179133" lon="3.2940633"><ele>95.8</ele><time>2026-04-24T13:41:14.497Z</time></trkpt><trkpt lat="49.7179183" lon="3.2938983"><ele>96.19999999999999</ele><time>2026-04-24T13:41:16.495Z</time></trkpt><trkpt lat="49.7179217" lon="3.2937383"><ele>96.6</ele><time>2026-04-24T13:41:18.497Z</time></trkpt><trkpt lat="49.717945" lon="3.29357"><ele>97.0</ele><time>2026-04-24T13:41:20.5Z</time></trkpt><trkpt lat="49.7180083" lon="3.29342"><ele>97.0</ele><time>2026-04-24T13:41:22.496Z</time></trkpt><trkpt lat="49.7181117" lon="3.2933133"><ele>97.0</ele><time>2026-04-24T13:41:24.497Z</time></trkpt><trkpt lat="49.7181683" lon="3.2932683"><ele>97.0</ele><time>2026-04-24T13:41:25.496Z</time></trkpt><trkpt lat="49.718225" lon="3.2932233"><ele>97.0</ele><time>2026-04-24T13:41:26.497Z</time></trkpt><trkpt lat="49.7183333" lon="3.2931417"><ele>97.0</ele><time>2026-04-24T13:41:28.497Z</time></trkpt><trkpt lat="49.7184333" lon="3.2930717"><ele>97.0</ele><time>2026-04-24T13:41:30.496Z</time></trkpt><trkpt lat="49.7185233" lon="3.2929933"><ele>97.0</ele><time>2026-04-24T13:41:32.496Z</time></trkpt><trkpt lat="49.7186083" lon="3.2929267"><ele>97.0</ele><time>2026-04-24T13:41:34.497Z</time></trkpt><trkpt lat="49.7186967" lon="3.2928633"><ele>97.0</ele><time>2026-04-24T13:41:36.498Z</time></trkpt><trkpt lat="49.71879" lon="3.2927733"><ele>97.0</ele><time>2026-04-24T13:41:38.497Z</time></trkpt><trkpt lat="49.71888" lon="3.2926483"><ele>97.19999999999999</ele><time>2026-04-24T13:41:40.497Z</time></trkpt><trkpt lat="49.7189483" lon="3.2924917"><ele>97.4</ele><time>2026-04-24T13:41:42.496Z</time></trkpt><trkpt lat="49.718965" lon="3.2923067"><ele>97.6</ele><time>2026-04-24T13:41:44.498Z</time></trkpt><trkpt lat="49.7189567" lon="3.2921233"><ele>97.80000000000001</ele><time>2026-04-24T13:41:46.497Z</time></trkpt><trkpt lat="49.718945" lon="3.2920267"><ele>98.0</ele><time>2026-04-24T13:41:47.496Z</time></trkpt><trkpt lat="49.718935" lon="3.29193"><ele>97.66666666666666</ele><time>2026-04-24T13:41:48.497Z</time></trkpt><trkpt lat="49.7189267" lon="3.2918333"><ele>97.33333333333333</ele><time>2026-04-24T13:41:49.499Z</time></trkpt><trkpt lat="49.7189083" lon="3.2916417"><ele>97.0</ele><time>2026-04-24T13:41:51.497Z</time></trkpt><trkpt lat="49.7189033" lon="3.291535"><ele>96.66666666666666</ele><time>2026-04-24T13:41:52.498Z</time></trkpt><trkpt lat="49.7189033" lon="3.291425"><ele>96.33333333333333</ele><time>2026-04-24T13:41:53.499Z</time></trkpt><trkpt lat="49.7189067" lon="3.2913117"><ele>96.0</ele><time>2026-04-24T13:41:54.497Z</time></trkpt><trkpt lat="49.718905" lon="3.2911983"><ele>95.83333333333333</ele><time>2026-04-24T13:41:55.499Z</time></trkpt><trkpt lat="49.7189133" lon="3.2910917"><ele>95.66666666666667</ele><time>2026-04-24T13:41:56.499Z</time></trkpt><trkpt lat="49.7189217" lon="3.2909917"><ele>95.5</ele><time>2026-04-24T13:41:57.499Z</time></trkpt><trkpt lat="49.7189267" lon="3.29089"><ele>95.33333333333334</ele><time>2026-04-24T13:41:58.496Z</time></trkpt><trkpt lat="49.71895" lon="3.2907067"><ele>95.16666666666667</ele><time>2026-04-24T13:42:00.496Z</time></trkpt><trkpt lat="49.7189483" lon="3.290555"><ele>95.0</ele><time>2026-04-24T13:42:02.497Z</time></trkpt><trkpt lat="49.718915" lon="3.2904583"><ele>94.0</ele><time>2026-04-24T13:42:04.497Z</time></trkpt><trkpt lat="49.7188467" lon="3.290405"><ele>94.0</ele><time>2026-04-24T13:42:06.497Z</time></trkpt><trkpt lat="49.718775" lon="3.29037"><ele>94.0</ele><time>2026-04-24T13:42:08.495Z</time></trkpt><trkpt lat="49.7187083" lon="3.2903317"><ele>94.0</ele><time>2026-04-24T13:42:11.495Z</time></trkpt></trkseg></trk></gpx>